GFSGBSN_500_spd_000.txt.gz
Wind_Speed
44 45 40 39 33 31 31 28 21 20 20 21 20 18 17 14 12 14 15 16 15 14 13 16 15 16 16 18 18 18 23 26 20 27 32 35 32 30 25 9 8 5 13 12 15 14 12
47 46 41 37 31 32 30 25 20 19 19 18 14 19 21 15 13 14 14 14 14 15 16 14 12 16 15 14 19 26 32 32 36 35 38 35 27 28 25 18 10 11 11 16 21 15 7
47 43 39 37 32 31 24 23 18 16 13 12 18 14 14 14 14 13 14 14 13 17 16 13 14 13 12 15 27 31 31 35 43 43 38 32 34 34 27 20 19 12 9 14 14 11 9
43 40 36 32 28 25 23 21 19 15 16 14 15 14 14 15 17 13 11 12 12 14 15 14 12 10 14 17 27 32 32 34 36 39 36 33 24 21 22 17 18 17 17 16 13 11 9
43 35 36 29 27 25 22 20 19 16 14 11 10 5 13 18 13 11 11 12 12 13 11 11 12 14 20 22 21 18 30 30 14 30 26 20 21 19 14 14 16 15 19 11 11 7 2
40 34 35 28 25 25 23 18 17 17 15 12 6 6 16 17 17 15 12 12 14 14 16 17 18 20 19 19 21 21 18 18 13 25 18 13 13 19 24 20 17 14 12 8 9 5 6
37 32 33 27 23 24 21 19 16 16 13 9 8 8 15 21 13 12 15 18 20 22 21 22 23 22 22 20 19 19 17 18 18 20 23 24 24 26 23 17 14 5 3 6 7 3 7
36 31 33 24 19 22 20 19 16 15 12 13 16 8 13 15 17 20 21 21 21 21 21 21 22 23 24 22 19 18 19 20 20 25 26 22 21 21 18 14 10 10 8 8 7 4 9
34 31 30 21 20 22 21 19 16 14 10 16 19 15 17 19 20 20 25 28 27 26 25 22 21 21 20 19 19 17 16 17 20 19 16 16 12 14 11 10 10 17 15 12 7 4 9
33 31 28 23 23 24 22 19 15 12 14 21 19 18 23 23 26 29 30 29 27 26 25 22 22 21 20 19 18 17 14 13 12 14 14 13 12 9 8 8 7 10 19 20 13 10 14
36 33 27 25 28 26 24 19 15 14 19 22 22 27 28 32 32 30 30 29 29 28 27 25 22 22 20 16 17 18 16 14 10 14 13 11 12 12 11 11 10 12 14 16 17 15 15
38 34 28 28 30 27 26 20 16 19 25 28 30 33 35 35 32 31 30 31 31 27 25 23 21 18 15 14 12 13 14 14 13 11 11 11 11 11 11 11 11 11 12 14 16 16 16
40 34 31 33 32 30 28 22 19 28 31 33 35 38 37 35 34 33 33 32 28 24 22 19 17 14 12 11 9 9 8 8 7 10 11 10 9 9 9 11 12 11 12 14 14 15 16
39 35 37 37 32 33 29 25 26 34 37 37 39 39 37 37 36 36 33 28 23 19 18 15 13 10 10 10 11 10 10 11 13 11 11 11 9 8 8 7 5 5 5 6 8 9 13
38 39 40 39 35 36 31 28 34 39 40 40 42 41 39 38 38 35 31 26 20 17 14 11 8 7 11 12 11 12 13 12 11 11 10 10 9 8 7 5 3 2 2 3 5 9 14
39 42 41 40 38 38 34 32 38 43 42 42 43 41 41 39 37 34 29 25 20 15 7 5 5 6 9 11 12 11 11 11 11 11 12 11 8 7 8 7 4 2 3 4 5 5 11
42 42 44 41 41 41 36 36 41 46 44 44 45 44 43 41 37 33 29 24 18 11 6 3 3 4 7 8 9 10 13 14 13 11 10 11 10 9 7 6 4 4 5 6 11 11 12
45 42 44 41 43 42 39 39 45 49 46 45 46 46 45 41 37 33 29 24 17 10 4 2 5 2 4 6 7 12 15 15 13 11 11 10 9 9 6 4 1 3 6 9 10 12 14
45 45 45 43 44 42 41 41 47 51 47 46 47 49 45 41 37 32 29 22 15 8 2 3 4 3 3 5 11 14 16 16 14 14 14 10 8 6 5 4 2 4 7 10 13 15 16
41 46 45 43 43 41 43 44 50 53 50 48 50 50 47 43 38 35 29 20 13 8 4 5 5 4 4 7 14 16 16 15 15 14 12 11 9 6 6 5 6 10 11 12 15 17 19
46 49 45 42 42 41 44 46 52 55 53 50 51 50 46 43 39 34 28 20 16 10 7 5 7 5 6 7 11 14 15 16 15 16 13 12 10 9 8 10 12 13 15 19 21 23 23
52 48 43 42 41 41 46 49 53 56 56 51 49 49 47 43 40 34 28 22 17 15 11 9 8 6 8 8 11 14 15 17 16 17 16 15 13 12 12 13 15 17 18 21 24 27 29
51 46 43 42 40 40 45 49 52 56 56 54 49 47 46 44 40 36 30 26 21 18 16 13 10 9 12 12 13 17 20 22 21 23 21 19 17 17 17 19 21 22 23 25 29 29 31
51 45 43 42 38 39 43 48 53 54 54 55 53 50 45 42 39 35 31 28 26 23 20 17 14 12 12 16 19 19 22 23 24 24 23 22 21 22 22 24 25 27 26 29 32 31 35
48 46 45 42 38 39 42 46 51 52 53 52 53 47 45 43 40 37 35 35 30 25 21 20 18 15 18 21 22 21 22 26 26 25 25 25 25 25 25 27 29 31 31 33 35 35 39
49 46 45 40 37 38 41 44 48 50 50 51 51 48 46 45 43 41 39 36 31 28 25 24 23 21 20 22 24 24 25 26 28 28 29 29 28 29 30 32 34 34 35 36 38 38 41
50 47 44 40 37 37 37 41 45 47 49 50 50 47 46 45 43 41 39 36 32 30 30 28 27 26 25 24 27 28 29 30 31 30 31 33 34 34 34 36 37 39 40 41 41 43 48
49 47 44 42 36 34 34 35 39 42 45 47 46 46 45 44 43 42 40 38 34 32 33 31 31 29 29 29 30 32 34 33 33 34 34 37 40 38 39 39 41 41 43 44 45 45 48
48 45 42 39 37 34 32 32 33 37 40 42 43 42 42 43 42 41 40 39 38 37 37 37 36 35 35 33 34 36 38 39 37 39 37 39 40 41 40 40 41 45 46 46 46 47 54

GFSGBSN_500_spd_003.txt.gz
Wind_Speed
42 43 45 38 44 42 41 36 33 31 24 23 22 23 23 21 18 15 13 13 15 17 13 15 14 13 13 14 15 18 17 21 22 24 30 36 35 34 34 32 24 17 14 8 7 4 7
46 45 48 41 44 43 39 35 29 26 21 19 23 21 17 21 20 15 13 14 15 15 13 13 16 13 12 15 16 17 23 26 25 29 37 37 34 29 22 16 12 18 9 9 13 11 9
50 46 50 45 46 40 38 32 27 20 19 18 16 16 18 17 17 16 13 14 13 13 14 12 10 6 8 13 18 23 30 26 28 35 37 37 33 28 18 13 13 13 11 10 12 16 9
51 49 50 46 45 40 37 27 26 19 19 19 19 18 17 16 15 17 15 13 14 12 12 12 10 8 11 14 18 30 34 32 37 35 28 23 23 20 14 8 9 10 8 12 12 10 10
51 50 49 47 44 39 37 28 26 21 19 16 12 17 11 16 15 16 12 12 12 11 11 11 8 10 17 17 21 30 32 35 39 36 28 23 19 17 18 15 15 16 19 13 11 12 12
51 50 48 48 44 38 36 27 24 21 17 14 16 10 10 16 18 15 11 10 11 10 9 10 13 16 19 23 25 28 25 36 40 37 32 31 29 23 13 19 17 18 16 15 13 10 9
49 49 48 44 41 35 35 26 23 19 16 15 14 11 10 18 17 18 12 11 12 14 14 17 20 20 21 19 23 28 27 30 34 27 16 12 16 18 23 21 20 21 24 12 14 10 6
50 49 50 44 39 33 30 22 22 18 16 15 15 13 16 19 18 10 12 15 17 19 22 22 20 19 19 20 20 21 26 28 23 21 19 25 24 29 24 21 18 12 20 11 7 3 6
54 50 49 41 34 30 24 21 22 17 16 15 21 15 14 14 9 10 16 19 21 21 22 22 21 21 21 19 20 20 21 23 25 26 27 24 27 29 21 18 13 7 10 9 7 5 8
56 51 47 38 32 29 23 21 22 17 16 15 22 16 11 10 14 18 23 24 24 25 25 23 23 23 22 21 21 19 19 19 17 18 21 18 19 19 15 13 14 13 15 15 14 14 15
59 53 43 36 31 25 24 23 21 18 15 21 24 16 14 19 21 27 28 27 27 26 24 22 22 21 21 19 19 19 18 16 16 15 16 14 15 16 16 14 11 11 16 17 18 19 23
59 51 40 34 31 25 26 25 21 18 17 27 23 20 25 27 31 31 28 27 26 27 23 24 23 20 19 16 15 15 15 15 13 15 16 16 15 15 15 14 13 12 14 17 20 23 27
56 50 40 37 32 28 29 26 23 20 24 28 25 31 33 33 32 30 29 27 26 26 25 23 20 18 15 15 13 13 12 12 12 16 18 15 15 15 14 13 13 14 15 17 20 22 25
55 51 45 40 34 31 33 29 25 22 31 31 32 38 37 34 32 31 30 30 28 25 22 20 17 16 13 11 11 11 12 13 14 14 15 13 13 12 10 9 12 14 14 15 14 14 16
58 52 47 41 35 34 36 31 28 26 35 36 39 41 38 36 35 33 32 31 25 21 17 15 13 13 13 13 13 14 14 13 12 13 13 12 10 10 9 8 8 8 9 9 11 13 14
61 54 48 41 40 37 38 33 32 32 39 40 45 42 39 38 36 36 34 29 21 17 14 12 11 12 15 14 14 15 16 13 12 15 15 14 12 11 11 10 9 7 4 3 4 6 5
59 53 47 43 44 42 39 36 34 40 43 45 48 44 41 40 39 38 34 28 22 16 11 7 5 6 10 12 13 15 14 13 15 17 16 15 14 13 12 9 7 6 5 1 2 3 5
57 52 47 47 43 45 40 40 37 44 45 49 49 45 43 42 42 39 34 28 22 17 10 5 3 4 9 10 11 15 16 17 17 17 16 15 15 14 10 9 7 3 2 2 4 7 9
56 51 47 47 45 45 41 42 40 46 47 50 50 48 46 44 43 38 33 27 23 15 7 3 3 4 7 10 13 15 18 20 20 17 16 16 15 13 12 10 7 7 5 6 6 8 10
53 48 47 45 47 43 43 43 43 47 49 52 53 51 48 45 42 38 34 28 22 15 8 6 4 1 4 9 13 15 19 19 18 18 18 17 15 14 12 11 11 11 11 11 11 11 13
51 47 46 44 49 42 44 43 45 49 51 53 53 52 48 46 43 40 35 29 24 16 9 6 3 2 5 7 12 16 18 18 18 19 19 18 17 14 13 14 15 16 16 16 16 18 19
49 48 42 47 45 42 43 44 45 51 53 53 53 52 50 46 43 41 37 30 24 17 11 9 8 5 6 9 12 15 18 20 20 19 22 20 19 18 18 18 19 19 21 22 21 23 24
46 47 44 46 41 42 44 43 44 52 55 53 54 52 51 49 47 44 37 31 26 20 14 13 12 10 9 10 12 16 20 23 24 24 25 25 23 23 22 22 24 22 25 27 26 25 28
47 44 42 44 40 44 43 41 44 53 55 54 51 52 52 50 47 43 38 33 28 23 20 17 15 13 13 14 18 19 21 21 24 26 27 28 28 28 27 27 30 26 27 30 31 30 31
44 44 42 41 40 44 40 39 43 52 56 54 52 51 50 50 47 46 40 34 32 27 23 20 20 18 17 17 19 21 21 23 25 27 28 29 31 32 33 31 33 29 29 33 35 34 35
47 41 45 40 40 43 36 38 43 49 55 57 55 51 49 48 47 45 40 37 36 30 26 25 24 22 21 19 20 22 24 24 25 27 29 31 32 34 35 37 38 33 35 38 39 37 39
41 47 42 41 38 39 34 37 41 47 46 48 56 54 51 48 48 45 42 40 36 31 29 28 27 25 25 24 23 23 25 27 28 27 29 33 36 37 40 42 42 39 40 41 42 42 41
49 46 43 40 36 34 32 36 39 43 51 51 54 54 53 51 48 46 42 40 36 34 34 32 31 29 29 28 28 28 29 30 30 31 32 35 39 40 42 44 46 42 45 44 43 44 45
47 46 44 39 36 30 31 35 38 42 46 49 50 51 50 48 46 45 43 42 40 38 37 36 35 33 33 32 32 33 34 36 35 36 35 37 39 41 43 43 44 45 47 45 46 47 47

GFSGBSN_500_spd_006.txt.gz
Wind_Speed
46 45 43 45 46 47 42 42 42 40 38 32 30 25 24 25 26 22 19 17 15 14 14 15 19 18 10 12 14 15 15 13 13 16 21 24 34 33 30 30 22 24 21 18 10 4 4
47 43 42 43 46 47 43 43 42 40 35 29 27 23 24 26 20 22 20 18 16 15 17 13 15 14 9 13 12 14 14 12 13 20 27 32 31 27 25 23 20 16 11 7 5 5 0
48 45 42 43 46 47 45 43 41 39 33 29 26 23 22 23 21 21 17 17 16 14 14 14 8 5 5 11 13 14 13 17 17 21 31 30 26 25 23 20 17 18 13 11 6 9 7
50 49 45 44 44 46 45 44 40 38 32 31 25 24 24 22 22 18 18 19 14 10 12 11 8 8 12 12 13 15 23 23 21 31 30 31 26 22 17 16 6 9 6 5 10 10 14
51 47 44 44 44 43 44 44 38 36 29 31 23 23 18 22 17 15 17 15 11 11 11 11 9 6 11 13 17 23 29 26 31 28 23 24 24 23 11 7 8 12 12 10 11 16 14
55 49 46 44 43 42 44 43 36 33 29 27 20 21 21 19 17 15 14 12 10 9 11 9 10 14 16 19 18 26 28 30 33 29 24 15 19 16 15 10 11 10 15 12 11 13 13
58 52 47 44 43 43 44 41 35 29 28 23 20 19 19 15 13 14 13 12 12 13 12 11 16 20 20 20 23 24 34 34 34 28 21 19 16 13 8 12 11 20 16 15 14 17 17
61 54 50 45 43 43 42 37 29 25 25 21 21 16 16 12 14 14 15 13 13 14 15 15 17 17 15 17 22 27 34 35 33 25 19 14 22 17 16 20 20 23 20 16 19 17 13
67 59 54 48 44 45 42 35 29 22 22 19 18 17 17 13 16 14 11 13 14 16 21 21 19 19 18 16 18 21 28 36 33 29 26 16 21 24 26 25 19 19 23 18 11 8 8
71 63 56 50 47 46 42 33 27 20 22 18 17 21 15 14 12 12 15 19 19 20 20 19 20 18 18 18 19 20 23 33 29 27 25 17 21 23 25 21 21 21 19 19 12 14 13
72 65 60 53 50 48 42 32 26 21 23 17 17 24 14 11 14 18 22 22 22 23 21 21 20 19 20 20 20 21 22 22 24 22 19 16 20 23 21 21 19 18 16 13 15 16 18
74 67 62 56 52 49 43 30 24 23 23 16 18 23 16 18 19 24 25 26 25 24 19 21 21 19 19 19 19 18 18 18 16 15 17 18 15 18 21 17 14 13 15 14 16 18 21
76 69 65 60 54 49 43 33 25 27 22 16 24 23 23 23 28 28 28 27 26 23 21 20 19 18 17 14 13 12 12 12 14 15 15 17 15 16 17 16 15 15 15 16 19 20 21
74 70 66 62 55 49 43 33 29 29 22 19 28 29 30 31 31 29 27 26 24 20 21 20 18 16 14 14 11 11 11 13 13 13 16 17 17 17 17 17 17 16 16 17 18 20 20
71 74 70 62 56 49 43 35 32 31 26 23 33 35 36 35 32 30 28 25 24 21 21 19 17 15 12 12 11 11 11 12 13 15 17 16 14 13 13 14 14 14 14 12 12 14 15
77 80 73 66 57 51 44 37 37 33 28 30 39 40 41 36 34 32 29 26 25 23 20 16 14 13 12 13 14 14 14 13 13 13 15 16 14 12 12 11 11 11 9 8 7 8 6
81 80 74 66 60 53 45 41 40 36 30 39 44 45 42 38 36 34 30 29 23 20 15 12 11 12 14 16 17 17 16 14 14 15 17 16 15 14 13 12 11 9 7 6 4 4 4
79 78 73 68 62 54 48 44 42 39 33 45 48 47 44 40 39 36 34 31 23 18 14 8 5 7 10 10 11 14 16 15 14 16 16 15 17 15 14 13 11 8 7 7 7 7 8
84 79 71 65 58 55 50 45 44 42 37 47 51 50 46 42 41 39 37 33 23 18 12 5 4 5 8 10 13 15 16 16 17 18 18 17 18 18 16 14 12 9 8 9 10 11 11
79 72 65 62 57 53 50 47 46 42 43 50 56 53 49 43 42 40 37 32 25 19 12 7 5 4 8 11 14 16 16 18 19 19 18 19 17 17 15 16 16 13 13 14 16 17 17
70 66 62 57 51 50 48 46 47 42 47 52 58 53 47 43 43 42 39 32 26 20 14 8 4 4 5 9 12 15 17 19 19 19 19 20 19 19 18 18 18 18 19 19 21 21 22
67 63 58 52 48 47 45 44 46 43 49 54 59 52 48 44 43 42 40 34 27 21 16 9 6 6 5 7 10 13 17 20 20 20 21 22 21 22 22 21 21 22 22 23 25 27 28
65 60 54 48 47 46 43 45 45 42 50 55 59 54 48 46 45 45 40 33 27 24 18 14 10 9 8 7 9 12 16 20 21 22 23 24 25 26 27 27 28 27 24 28 29 31 32
61 55 49 46 44 43 42 43 43 41 51 54 58 54 49 47 47 43 39 35 32 28 22 19 15 12 12 11 12 15 16 19 21 23 23 25 28 31 32 31 35 28 29 32 35 36 34
54 50 44 42 39 41 39 41 40 41 52 55 57 55 51 49 46 44 41 36 33 30 25 22 19 18 17 16 15 15 18 19 19 21 24 27 31 33 36 36 38 37 34 37 39 40 37
49 45 41 38 38 38 39 38 37 41 52 57 56 55 52 49 46 44 42 37 35 32 28 25 25 22 21 20 18 17 17 19 23 23 23 26 30 34 37 40 43 41 39 41 44 45 43
43 40 37 36 36 37 35 35 36 41 52 56 54 53 52 50 48 46 43 37 36 34 31 30 29 27 24 24 23 21 21 20 21 23 25 29 31 34 37 41 45 43 44 44 47 48 50
39 36 31 32 35 33 34 34 35 40 49 52 50 51 50 49 48 47 43 40 39 37 35 34 32 31 29 29 28 28 27 26 25 25 26 30 34 36 38 42 46 44 46 47 49 49 50
37 33 31 32 31 31 32 28 33 38 42 43 42 51 50 49 48 47 44 42 40 40 39 38 36 33 33 34 33 33 32 31 31 33 32 35 35 39 41 42 44 47 49 50 49 49 49

GFSGBSN_500_spd_009.txt.gz
Wind_Speed
50 48 44 43 42 42 41 38 40 41 39 39 37 33 34 27 23 26 29 21 21 18 13 13 14 14 15 10 10 10 13 15 11 14 18 17 18 20 24 24 22 19 17 14 14 5 12
52 50 47 44 42 44 41 39 40 40 39 39 35 32 32 27 24 25 23 24 23 18 16 15 15 11 9 8 10 10 13 8 5 12 19 25 29 31 29 25 19 16 6 6 7 7 10
54 52 49 47 43 42 41 40 41 40 40 38 32 32 31 24 24 25 23 24 18 17 15 14 12 8 8 8 11 11 9 9 14 16 27 34 34 28 28 24 19 16 10 6 3 4 4
54 50 47 46 45 42 43 42 41 39 39 36 31 33 29 21 23 22 26 21 18 16 12 9 9 9 9 11 13 16 13 19 20 30 32 25 24 23 20 20 16 11 6 7 7 8 11
56 53 48 46 45 42 42 41 41 39 36 33 31 31 24 20 20 24 23 17 17 14 12 9 10 10 11 12 14 15 19 19 22 31 29 24 20 17 13 11 7 5 8 6 8 9 13
60 56 52 49 47 41 41 41 41 39 32 30 30 27 20 18 20 23 18 15 13 12 11 11 12 11 15 15 10 19 23 24 24 29 31 26 23 20 11 13 7 8 5 8 7 12 13
66 62 57 51 50 45 42 40 39 38 32 26 27 22 19 17 20 18 14 12 12 12 12 11 13 14 17 19 18 19 25 31 27 24 19 11 21 22 12 7 7 5 13 14 13 12 13
73 67 58 52 50 45 43 40 38 36 33 25 23 19 17 17 18 13 12 13 14 15 16 15 14 18 17 20 22 22 27 26 22 20 19 16 11 15 13 11 11 16 18 12 13 13 13
73 65 60 52 51 46 44 40 38 34 32 22 21 17 15 16 15 14 14 15 17 16 15 16 17 17 17 15 17 23 28 26 28 25 20 12 10 12 12 15 13 22 18 13 10 7 9
76 64 59 55 52 49 46 41 39 35 30 21 22 16 16 16 16 19 18 16 14 15 17 17 18 18 16 15 16 19 29 31 29 26 20 15 12 19 17 18 19 19 20 19 14 13 11
73 69 62 59 55 52 48 43 40 37 29 20 22 16 17 16 16 17 14 16 17 19 20 20 20 18 18 18 16 20 24 33 30 26 23 21 22 18 20 20 23 18 17 18 22 22 16
74 71 65 61 59 56 52 46 42 37 28 21 21 17 14 17 18 18 18 21 22 21 16 19 19 18 18 18 19 18 19 21 31 25 28 21 17 14 19 20 17 18 18 17 17 18 16
75 69 67 66 64 61 55 50 44 38 28 24 21 18 20 20 20 22 25 25 24 22 22 20 18 19 18 16 16 16 17 19 20 22 19 17 15 14 17 21 18 18 16 15 16 17 15
79 74 68 69 66 64 57 53 46 39 29 28 24 20 26 25 26 27 27 27 26 21 20 19 18 16 16 14 14 13 13 13 14 15 16 17 19 18 16 17 18 18 17 17 17 17 16
79 72 73 71 70 67 61 56 48 40 32 32 26 27 30 31 32 32 31 29 26 21 20 19 18 15 13 12 11 12 12 12 13 14 15 15 15 14 15 18 19 18 18 17 16 13 11
79 73 73 73 72 70 64 59 51 41 37 34 29 34 35 37 38 35 32 29 25 21 20 19 16 13 12 11 10 10 11 11 12 14 15 14 16 15 15 17 16 16 12 11 8 7 5
78 73 68 67 78 74 69 61 53 45 42 37 34 39 42 44 41 36 32 28 25 22 20 17 15 13 14 15 16 16 15 14 15 16 16 17 17 17 15 14 13 11 10 9 7 5 5
75 75 68 81 83 78 72 63 55 49 45 41 38 43 48 48 43 37 34 30 26 23 19 15 13 13 15 17 17 19 20 18 16 16 18 18 17 17 17 15 14 11 10 9 8 9 9
84 84 81 82 84 80 72 65 57 51 46 43 42 47 51 50 43 39 36 33 27 24 20 13 9 8 10 10 13 14 16 16 15 15 16 16 16 17 16 15 14 12 12 11 11 11 11
92 92 87 86 84 77 71 65 59 53 50 46 49 53 55 51 44 41 39 35 29 24 19 11 4 3 6 8 11 13 16 16 16 17 17 17 16 16 17 17 18 15 16 16 15 15 17
78 78 84 89 81 76 69 63 60 54 53 48 52 58 55 49 45 43 42 37 31 22 17 10 3 1 3 6 9 13 16 16 17 18 17 17 17 18 20 21 20 20 20 20 19 21 23
75 88 91 81 77 72 66 61 58 56 55 49 56 59 56 50 46 44 44 40 35 25 19 11 5 2 2 4 7 10 12 14 17 18 18 18 19 21 22 22 23 24 23 22 25 26 28
81 91 82 73 72 67 60 59 56 56 54 51 58 59 57 51 48 47 44 39 33 27 20 14 8 5 5 4 4 7 9 12 15 18 19 20 21 23 25 26 28 30 23 27 30 31 34
78 77 75 71 64 60 58 54 53 54 50 52 57 59 56 51 49 46 44 40 34 27 22 18 12 9 8 7 7 6 8 10 14 17 19 20 22 25 28 30 34 28 28 32 36 37 39
75 71 65 62 58 55 52 50 49 47 47 53 55 57 57 52 49 47 45 40 36 29 25 21 16 14 12 10 10 9 8 10 13 15 17 20 23 26 30 31 34 34 34 37 40 42 44
64 62 58 54 53 50 48 45 43 43 46 51 53 58 57 53 49 47 44 41 36 31 28 24 20 18 17 15 14 13 13 11 12 13 17 21 24 26 28 32 34 34 37 39 42 45 44
63 58 54 51 49 45 43 41 41 42 44 49 49 55 57 52 49 47 44 40 34 32 29 27 24 22 20 19 18 17 17 17 17 17 17 20 23 25 28 32 34 35 38 39 42 45 47
58 52 47 46 42 40 38 40 41 40 41 47 49 53 55 52 49 46 44 40 36 34 31 30 28 26 25 24 23 23 23 22 22 21 22 24 26 28 31 34 39 39 41 43 46 48 50
50 44 41 39 39 40 39 38 36 36 38 43 45 47 53 51 49 46 43 41 38 38 36 34 33 31 29 28 29 29 28 28 29 30 30 30 32 35 36 37 40 43 45 47 47 48 48

GFSGBSN_500_spd_012.txt.gz
Wind_Speed
46 45 44 45 44 45 42 38 36 35 37 40 38 35 35 32 35 32 27 25 23 18 18 13 14 14 16 13 11 8 9 11 13 15 15 13 18 20 18 17 20 18 17 12 9 4 5
48 47 47 47 46 45 43 39 37 35 35 39 39 34 34 32 32 28 24 25 20 22 15 13 15 16 14 9 9 8 11 13 14 11 16 18 21 24 24 22 19 19 16 13 7 12 12
52 51 50 47 47 47 43 40 39 37 36 39 39 33 31 32 29 23 23 19 22 20 13 12 13 13 12 9 9 9 7 6 8 15 21 27 34 30 27 24 21 18 12 6 3 5 9
55 54 52 50 47 46 42 39 38 37 38 39 38 33 29 29 28 21 20 21 20 14 11 10 11 11 9 10 11 9 8 12 13 17 26 22 27 28 26 25 20 18 14 9 5 5 10
57 56 53 51 48 44 41 38 36 36 37 37 36 32 28 24 23 19 19 22 14 10 10 9 12 10 13 11 12 13 14 15 18 19 30 28 27 30 29 24 20 14 6 5 5 10 13
59 56 53 51 49 47 43 39 36 34 37 34 34 28 23 22 19 18 18 18 10 10 8 11 12 11 12 12 14 15 22 19 21 28 28 22 24 15 12 10 9 5 7 6 5 9 12
64 60 56 54 52 49 45 42 39 34 36 34 33 26 20 20 19 19 17 13 10 9 11 13 14 13 13 14 15 18 22 23 17 21 28 25 19 13 14 18 13 9 13 10 8 9 12
71 66 63 59 56 53 49 45 41 38 36 35 32 25 18 19 19 16 13 11 8 9 12 15 18 15 16 19 20 17 23 23 17 21 21 20 20 18 15 12 8 7 15 11 10 12 13
78 75 69 66 62 58 51 46 43 40 38 35 31 24 18 19 17 13 9 11 12 14 17 18 20 16 18 21 23 23 27 28 24 16 20 11 10 17 18 12 7 8 16 10 4 5 7
82 79 75 69 66 62 56 47 44 41 40 35 31 23 17 18 15 13 11 13 15 16 17 17 18 16 19 20 24 27 28 20 25 16 24 17 9 10 10 11 13 11 19 15 10 9 6
84 80 77 72 66 62 56 49 44 42 40 37 30 23 17 17 15 15 16 16 18 17 18 17 16 16 19 20 21 27 30 25 26 21 17 14 9 7 12 17 14 15 13 17 13 15 15
87 81 78 74 67 60 53 51 46 44 41 39 31 23 19 17 17 15 16 15 16 18 19 18 19 19 18 18 18 21 26 28 24 23 22 20 16 14 18 17 15 17 12 15 17 19 20
87 83 78 75 69 60 54 53 50 48 44 41 34 25 22 20 19 17 17 18 20 20 18 20 19 18 17 17 19 20 22 23 27 25 23 23 23 20 15 11 14 14 13 15 17 18 18
98 87 82 74 71 63 61 56 55 51 47 43 36 29 25 24 22 21 21 22 22 22 22 21 20 19 16 16 17 17 17 18 19 22 20 20 19 17 12 14 17 20 16 18 19 17 16
101 96 85 79 73 69 64 62 58 55 50 45 39 32 27 27 26 24 25 24 24 23 23 21 20 19 17 16 16 16 15 15 15 16 18 17 18 17 15 16 17 17 18 17 19 18 17
101 96 87 80 75 72 68 67 63 60 55 47 39 34 30 32 29 31 29 28 29 26 23 20 19 18 15 14 13 14 14 14 15 15 15 15 17 17 18 19 20 20 18 18 16 13 11
99 97 87 82 79 78 73 72 69 63 58 50 45 39 36 38 35 36 34 35 30 26 23 21 19 17 15 13 12 12 13 14 15 15 15 16 18 18 20 19 18 18 15 13 13 10 7
78 87 91 82 82 82 79 76 72 68 63 56 48 43 42 40 41 40 40 38 31 27 25 22 19 16 14 14 15 16 17 17 17 18 18 18 19 18 19 19 17 15 14 13 13 11 10
74 87 88 88 85 83 82 79 76 71 64 58 50 47 47 44 46 44 43 39 33 30 26 21 17 15 16 18 20 22 22 22 20 19 20 20 21 20 20 17 15 15 14 14 15 14 12
79 91 96 92 90 86 79 83 78 73 67 61 54 49 50 47 50 47 44 40 36 32 26 19 14 13 14 14 16 17 18 18 18 18 18 18 16 16 16 18 18 18 18 18 17 16 16
85 96 99 95 90 86 83 86 81 74 69 63 57 53 45 52 54 51 47 41 37 32 27 20 12 9 8 10 12 14 14 15 17 17 18 17 15 16 17 19 21 20 21 21 21 21 22
88 99 95 92 86 87 82 82 79 76 70 65 59 54 51 54 55 53 49 44 38 33 29 20 12 7 5 5 7 8 10 12 14 14 17 17 16 17 18 19 22 23 23 22 24 25 27
90 94 90 85 85 95 85 79 77 76 70 65 59 55 54 57 58 55 49 45 40 35 28 21 14 8 4 2 1 4 6 8 10 15 16 18 17 18 19 21 24 26 21 25 28 29 32
95 99 74 77 83 87 83 78 76 73 68 63 61 57 57 60 59 55 50 47 42 36 28 23 18 11 5 1 1 1 2 5 7 10 13 15 17 20 20 23 28 23 25 28 32 33 37
98 64 73 83 92 85 79 74 73 69 66 62 57 59 59 61 60 55 51 49 45 39 32 26 20 14 8 5 2 2 3 2 6 9 12 15 18 21 24 25 26 28 29 31 34 37 40
55 69 80 78 76 75 69 69 67 64 61 58 55 57 59 60 59 55 52 50 47 41 34 28 23 18 13 9 6 5 4 4 4 6 10 14 18 20 22 25 26 25 28 30 33 37 38
63 72 68 74 71 68 67 64 61 57 53 53 52 56 57 59 57 55 52 50 46 41 34 29 25 22 18 14 11 10 9 9 9 10 11 14 17 19 22 25 27 29 30 32 36 40 42
71 71 64 67 68 61 59 58 53 49 46 46 50 55 57 59 57 55 52 49 45 40 36 30 29 25 22 20 18 16 15 15 16 16 17 19 21 23 26 29 33 34 38 40 42 44 45
69 68 64 58 57 55 54 49 47 44 42 43 50 51 53 56 56 53 51 47 43 40 36 34 31 30 28 25 21 22 22 21 22 24 25 26 28 30 31 33 38 42 44 45 45 44 44

GFSGBSN_500_spd_015.txt.gz
Wind_Speed
50 48 46 45 44 42 42 40 40 39 37 35 32 34 34 36 32 32 32 26 24 25 23 22 17 13 15 17 11 11 8 10 11 10 12 10 17 17 18 16 18 21 17 20 21 16 7
50 49 47 47 45 44 43 43 41 39 38 36 33 34 34 36 31 32 30 23 23 23 25 20 14 14 15 15 10 8 9 11 11 14 13 13 21 23 21 17 15 15 17 16 11 11 19
52 51 50 47 46 44 44 44 42 40 38 37 34 34 34 35 29 31 27 21 21 24 21 14 12 13 14 12 12 8 8 9 18 19 15 14 21 25 20 14 19 18 19 17 9 10 10
56 53 51 51 47 46 45 45 43 41 37 34 32 32 34 34 27 25 25 20 20 25 15 10 10 13 13 11 9 8 7 7 5 8 11 13 17 19 19 24 21 17 9 11 2 8 7
60 57 54 53 51 48 48 47 43 40 35 31 30 31 32 31 27 23 22 19 18 20 11 11 10 12 10 9 8 8 7 5 9 11 18 27 27 27 25 23 17 16 10 10 9 10 9
64 61 56 53 52 50 47 46 43 41 37 30 28 29 31 28 25 22 21 18 18 17 11 11 11 11 12 12 10 11 13 11 15 16 24 31 28 28 23 20 12 12 6 9 7 9 12
65 61 58 54 53 51 49 46 45 41 37 31 29 28 30 27 22 20 20 17 17 15 11 11 11 13 12 8 9 11 16 18 19 19 21 27 30 25 17 19 4 6 6 7 11 7 12
68 66 61 57 53 49 49 48 46 44 41 35 31 31 31 26 20 18 18 15 16 12 12 11 11 13 13 11 11 15 22 19 22 19 20 13 17 8 12 17 11 7 8 13 10 7 10
72 70 67 62 59 56 54 51 48 46 43 39 35 34 32 27 20 18 17 13 12 11 14 14 14 15 17 15 19 16 17 12 6 7 20 19 15 15 16 11 6 6 9 11 4 2 7
79 75 71 69 65 60 58 55 52 48 45 40 37 36 34 29 20 19 17 15 14 13 17 19 16 18 17 17 25 25 25 22 20 9 22 17 9 24 17 10 11 10 11 6 11 3 5
85 82 77 74 70 66 62 56 53 49 47 42 40 37 34 28 21 22 17 18 16 18 19 23 19 17 16 18 21 28 28 28 24 15 10 8 9 6 5 9 6 17 2 14 12 8 12
88 86 84 80 75 71 66 59 54 49 46 42 41 39 35 25 23 23 19 20 20 21 20 16 14 13 16 21 22 24 28 26 18 17 14 19 11 12 10 9 11 10 9 8 10 8 16
91 89 87 84 80 75 69 62 57 50 48 45 45 42 35 30 28 24 21 23 22 20 14 15 13 14 16 18 21 21 25 26 19 18 13 13 16 15 14 15 13 13 10 7 9 15 14
100 93 90 87 84 77 72 64 58 51 49 49 49 45 39 32 31 26 24 26 23 16 15 15 17 18 18 20 20 21 23 22 22 17 16 15 15 20 20 15 9 10 10 12 14 11 11
108 103 94 89 87 81 73 67 60 53 50 53 53 48 41 35 33 28 28 25 17 17 19 19 21 21 21 20 21 20 20 16 17 23 18 13 19 14 16 14 12 14 18 19 19 18 19
107 106 103 92 87 84 75 68 62 57 54 57 55 49 43 38 36 31 30 22 22 23 20 22 21 20 18 17 18 19 18 23 20 19 22 17 17 19 16 17 16 18 18 16 19 21 19
105 103 100 99 88 86 79 71 65 59 59 65 58 53 47 42 40 34 30 26 27 26 24 23 22 21 19 18 17 17 16 17 16 16 16 18 18 18 18 18 15 18 19 18 19 17 14
80 90 97 99 95 90 85 78 69 63 69 66 61 57 50 48 42 34 30 34 31 30 28 25 25 23 20 19 18 17 16 18 16 15 17 19 19 21 16 19 19 19 18 18 18 18 15
61 76 84 90 95 91 91 87 77 68 68 69 65 59 54 52 42 36 36 40 39 34 30 27 25 22 19 18 17 18 19 18 19 19 22 19 21 21 21 19 18 18 18 18 19 18 15
52 66 83 90 91 88 93 91 86 76 72 74 67 63 58 53 45 40 42 45 42 38 34 30 26 21 19 19 20 21 23 23 23 24 24 23 23 22 21 15 18 18 19 19 20 19 17
40 55 63 91 98 93 94 93 89 86 78 76 72 63 54 55 49 45 45 45 44 40 35 31 24 20 18 19 20 22 21 20 21 22 22 22 20 19 19 19 19 20 19 21 22 19 23
37 50 63 91 105 104 99 94 88 90 84 80 74 66 60 53 53 49 51 51 46 40 36 29 23 18 18 16 17 17 19 19 18 18 19 20 19 18 18 19 19 21 21 21 21 22 25
39 49 56 90 107 105 99 88 85 88 84 79 71 66 64 53 56 53 55 54 48 44 38 33 25 19 16 12 12 14 13 14 16 18 19 19 18 20 19 17 20 20 18 22 23 25 27
45 45 59 92 105 103 97 88 88 89 85 77 69 69 67 51 57 56 56 53 49 44 40 34 26 20 14 11 8 7 9 11 13 14 16 17 18 20 17 19 23 19 19 23 27 28 31
47 48 68 101 95 92 79 85 85 88 80 73 69 68 62 55 58 58 57 55 49 47 44 37 28 22 16 11 7 6 5 7 10 11 12 14 16 18 20 20 22 21 22 24 27 29 35
45 55 87 97 85 75 91 91 82 80 77 67 70 66 65 56 60 56 59 56 54 49 43 38 32 25 19 14 10 6 4 5 4 5 8 11 14 16 17 19 20 21 21 23 26 30 33
45 69 95 78 60 70 74 80 80 79 74 68 67 65 64 56 57 59 59 57 54 51 45 38 32 28 23 18 13 9 7 6 5 5 6 8 10 12 15 17 19 21 24 26 31 35 37
69 90 67 64 79 73 74 76 77 73 67 61 65 63 59 58 59 60 61 58 55 53 46 38 34 31 27 22 18 15 12 10 10 10 12 14 15 17 20 23 26 27 30 33 36 39 42
65 69 70 79 75 69 72 70 70 65 62 57 57 58 53 59 57 60 59 57 56 53 46 40 37 32 30 29 24 20 18 17 16 18 18 20 22 24 26 29 32 34 36 39 41 44 45

GFSGBSN_500_spd_018.txt.gz
Wind_Speed
53 53 52 50 48 45 43 42 42 40 37 37 36 31 30 30 34 30 31 30 30 31 31 30 31 23 14 16 20 17 14 9 9 7 7 6 9 11 16 19 17 20 16 21 19 18 9
55 54 53 52 49 46 44 43 42 40 40 39 36 32 30 31 33 31 30 27 28 31 30 30 26 17 14 17 19 15 11 10 9 8 9 8 14 17 12 12 12 18 13 18 22 19 13
58 55 53 52 50 47 45 44 43 41 40 39 36 32 30 31 31 30 29 23 27 28 28 29 20 13 14 19 18 13 10 10 11 11 10 9 15 16 17 16 15 20 21 15 18 13 14
61 59 56 54 52 49 46 44 43 40 40 39 35 32 28 29 30 28 27 20 25 27 27 28 16 14 15 16 11 11 9 9 13 1 8 11 11 18 14 12 16 16 17 16 8 11 7
65 63 61 57 54 52 51 46 44 40 40 38 35 32 26 27 28 28 25 19 23 25 24 24 16 14 13 13 11 8 9 4 3 2 7 12 14 15 16 15 19 17 9 9 5 11 7
69 66 63 60 57 55 53 50 45 42 41 38 35 31 28 27 26 26 21 19 22 23 23 20 15 14 12 10 11 6 10 2 5 5 9 16 23 21 19 19 9 8 10 6 2 2 7
70 68 66 63 60 57 54 51 48 44 42 39 36 33 30 27 27 25 18 19 22 20 18 17 14 14 10 11 10 7 9 2 9 11 14 27 25 23 20 9 14 11 8 6 9 6 10
73 70 68 66 62 58 54 51 48 44 41 39 37 35 32 29 29 25 18 20 19 17 15 13 16 13 8 10 8 7 10 8 12 13 9 24 23 11 11 12 7 3 2 12 15 11 11
76 72 70 68 64 59 53 51 47 46 42 40 39 38 35 34 31 28 19 21 19 18 14 16 15 14 12 11 8 8 8 7 8 13 6 18 19 14 11 12 10 4 9 14 9 5 9
77 76 70 67 64 60 57 54 52 50 44 41 39 38 38 35 33 28 23 21 18 18 18 20 18 17 15 13 12 12 13 10 5 13 10 13 17 19 10 8 5 12 14 14 12 3 3
82 80 76 71 67 64 61 57 55 52 50 46 44 41 40 35 35 32 23 22 19 18 21 23 18 17 17 13 11 20 19 16 14 13 6 10 19 20 15 15 15 8 18 12 5 13 17
88 84 82 76 72 69 65 62 58 55 52 50 46 43 41 37 40 32 26 23 21 21 23 23 22 9 12 12 17 16 22 25 26 12 5 12 15 8 17 6 7 8 4 5 11 11 17
90 88 84 81 77 73 68 65 59 57 52 51 46 43 42 43 44 35 30 25 24 24 19 22 18 13 10 12 17 22 21 28 23 16 12 13 7 9 8 9 9 12 6 3 12 15 8
98 94 88 84 80 76 72 69 65 60 56 50 46 44 42 45 45 36 33 30 26 19 23 15 14 12 13 11 15 19 19 14 19 18 11 18 12 12 16 12 16 3 15 11 17 19 10
104 100 97 91 85 80 76 72 68 63 60 53 47 45 42 47 45 38 35 34 24 17 18 16 14 16 14 15 13 15 17 17 20 15 21 25 23 20 11 13 18 11 12 16 18 15 10
110 106 102 97 92 86 79 74 71 65 62 54 48 45 47 50 47 43 39 33 22 24 17 20 19 18 16 17 21 18 17 16 14 18 25 25 15 4 11 13 12 13 15 12 16 18 16
112 106 105 103 96 91 85 78 73 68 63 56 49 48 53 53 51 47 41 30 24 28 25 27 23 19 18 20 18 16 14 17 28 21 25 20 11 13 13 13 13 14 16 16 18 19 16
86 98 103 101 102 95 89 84 77 71 64 57 51 51 56 57 55 49 42 31 30 31 26 24 26 19 23 17 17 17 19 16 18 20 22 23 22 22 11 18 13 18 14 15 20 18 18
55 75 86 95 101 98 93 88 82 76 68 59 52 58 57 59 56 50 42 34 36 33 30 27 25 26 26 27 23 23 22 27 19 21 21 23 17 17 16 17 13 14 17 17 21 16 15
33 46 71 83 91 98 94 89 86 79 71 64 60 64 59 56 55 50 43 39 40 35 34 31 28 27 27 26 24 22 23 22 18 21 20 22 19 21 20 13 16 15 19 18 19 18 16
36 40 49 75 88 91 93 90 90 85 77 73 70 63 60 56 56 54 47 44 42 41 41 36 32 30 26 23 22 22 25 23 23 23 25 25 24 24 23 19 23 24 19 19 21 19 21
39 44 46 59 83 96 91 91 90 88 86 84 70 62 60 58 54 53 50 47 45 43 40 36 34 30 25 24 23 24 25 21 21 21 22 21 23 23 20 20 22 22 21 20 21 20 21
47 45 42 54 72 92 104 96 95 91 90 84 69 65 64 65 56 54 51 47 49 43 41 35 32 29 26 27 24 24 19 15 24 20 21 21 21 21 21 20 21 19 16 20 19 21 23
47 41 39 51 64 86 105 108 100 95 91 75 76 71 65 63 56 54 53 51 51 46 39 40 37 28 30 20 18 17 18 19 20 20 22 20 22 21 22 20 21 16 16 19 21 22 26
41 40 39 48 52 77 102 107 98 90 88 85 80 61 63 57 60 56 55 51 49 41 41 42 41 33 24 21 18 15 15 16 17 18 19 19 21 20 21 20 18 18 18 18 22 23 29
41 35 38 44 51 70 101 99 91 86 89 81 76 68 62 64 62 52 57 53 54 47 52 47 41 33 28 22 17 14 12 12 11 12 14 15 16 17 17 18 19 19 18 19 21 24 25
38 37 36 40 48 74 101 101 82 92 85 80 66 43 52 44 60 54 57 58 56 57 54 46 43 36 30 24 20 17 13 10 9 8 9 10 10 12 13 13 13 17 15 20 23 27 30
37 39 38 44 53 85 101 92 85 85 80 76 64 47 46 68 55 48 56 56 58 59 51 48 46 39 33 28 23 19 15 13 10 10 10 9 10 11 13 15 18 21 23 25 28 31 34
37 35 43 53 74 93 96 81 80 79 69 72 71 63 38 38 63 56 55 59 62 57 53 49 44 38 34 31 28 22 20 17 14 14 14 15 14 17 18 22 24 26 28 31 33 35 39

GFSGBSN_500_spd_021.txt.gz
Wind_Speed
59 58 57 56 55 53 51 49 46 44 41 39 37 35 34 33 28 28 27 30 29 29 28 31 32 33 27 18 19 20 17 14 10 7 5 6 7 7 10 21 20 15 10 7 15 16 14
61 60 59 59 57 54 53 51 48 45 41 39 37 36 35 32 29 28 27 29 28 28 28 29 30 32 20 18 20 20 14 13 11 6 6 9 13 17 21 19 12 9 16 5 7 22 16
65 64 61 59 57 55 54 51 49 47 43 40 37 36 34 31 28 28 27 27 27 27 26 27 28 29 16 19 18 16 13 10 11 8 6 12 14 18 26 22 15 18 21 7 8 17 10
69 68 66 63 59 57 55 53 50 48 44 40 37 34 34 31 27 26 26 27 26 25 23 24 27 24 15 17 18 16 11 9 11 4 9 12 10 14 19 15 13 15 13 10 12 14 5
76 75 70 67 63 59 57 55 52 48 45 41 37 37 34 28 26 25 26 26 24 24 22 22 25 20 14 14 14 12 10 8 8 1 6 12 11 12 12 7 15 17 17 15 10 14 3
75 74 70 68 64 61 59 56 52 49 46 41 38 38 33 28 25 25 26 25 25 21 20 21 23 16 12 11 14 12 11 10 4 2 4 8 12 14 14 12 12 12 12 17 8 5 7
75 75 72 68 66 64 62 60 54 51 49 43 39 38 33 28 25 25 27 25 24 19 19 19 20 13 12 10 12 13 7 2 1 2 5 11 13 13 10 18 13 12 6 3 6 1 5
74 74 72 69 67 67 65 63 59 58 53 46 41 38 34 29 28 27 28 27 21 22 18 17 17 10 9 11 12 9 3 2 3 6 7 13 17 11 14 15 14 12 8 4 9 11 4
71 73 74 72 69 66 65 62 60 55 49 45 40 37 35 33 31 29 29 30 25 20 18 17 16 11 11 13 16 10 3 6 5 7 9 7 14 9 18 15 14 4 5 16 10 10 9
74 71 69 71 69 66 65 61 57 54 48 44 40 39 36 35 33 32 31 29 27 22 21 17 16 14 13 14 15 12 10 10 10 13 4 6 19 11 15 14 9 3 9 14 10 6 5
78 77 73 70 68 63 61 63 56 53 50 47 43 42 39 38 36 32 32 30 26 25 24 19 16 14 16 13 17 12 11 13 11 10 6 4 10 19 17 13 11 3 10 9 8 5 8
84 81 78 75 71 66 62 60 61 54 53 49 48 45 42 39 37 35 36 32 30 27 25 20 19 14 16 14 17 17 13 14 15 15 1 9 14 19 11 10 13 5 1 11 15 17 17
89 86 83 80 76 72 67 64 60 58 53 54 54 45 43 42 38 36 36 35 33 31 22 22 20 17 16 13 17 21 17 22 24 15 7 13 19 9 5 2 2 11 12 14 13 17 15
96 91 87 85 82 75 72 68 64 62 57 55 51 51 46 40 40 37 37 37 37 28 23 24 23 20 15 14 15 18 22 20 21 20 19 15 16 14 11 5 8 9 13 16 15 15 17
103 99 93 87 85 82 75 71 67 66 62 58 53 50 48 42 41 41 41 37 34 27 20 21 23 22 14 15 9 13 18 15 16 21 22 22 22 21 20 19 19 13 13 14 18 19 12
106 103 99 94 89 86 82 75 70 68 65 61 58 52 46 47 45 46 42 37 35 26 25 22 24 18 15 15 16 11 14 14 16 19 21 20 23 23 27 18 10 12 14 17 18 19 13
82 90 101 97 94 90 87 81 75 71 68 64 61 56 49 51 49 48 44 35 32 28 30 30 23 16 17 14 14 14 10 10 16 17 23 18 20 20 6 4 11 16 17 18 18 19 16
43 59 78 85 95 93 91 86 81 75 72 69 61 59 54 54 54 49 41 36 35 34 35 31 27 23 19 23 26 15 17 18 18 20 25 15 22 19 17 8 10 17 13 15 17 15 20
48 45 47 68 82 93 93 90 84 79 76 70 63 59 59 59 53 49 47 42 38 37 40 36 28 28 26 24 22 15 23 24 19 20 23 19 21 18 17 19 17 16 16 19 20 16 14
46 48 48 48 71 86 92 92 88 83 78 75 69 65 63 59 48 48 48 42 40 41 40 34 28 29 32 30 30 24 27 26 24 23 24 21 22 21 21 18 19 19 14 18 20 21 15
43 41 43 44 63 88 91 95 91 87 82 79 76 66 60 51 51 51 52 45 44 46 42 35 34 33 34 37 27 20 31 31 22 19 22 25 25 24 24 20 24 23 16 18 19 20 18
41 39 35 32 53 88 97 99 93 90 87 85 77 66 56 47 48 52 51 49 48 48 42 39 40 37 35 32 33 28 26 24 22 22 27 29 29 29 26 25 26 25 23 24 20 17 18
40 41 36 32 35 70 92 99 97 94 94 90 76 65 59 50 51 53 49 45 47 46 42 39 40 38 36 34 33 31 30 27 26 26 26 25 24 24 23 23 24 23 13 21 18 19 20
40 42 39 35 37 49 82 98 103 101 97 88 76 69 63 58 55 50 43 45 49 49 45 42 41 37 40 32 31 28 26 25 23 26 25 20 23 26 23 24 25 16 19 16 16 20 22
43 42 39 40 40 42 69 92 106 103 95 87 77 75 72 63 53 55 48 46 47 49 46 44 47 42 37 36 31 26 25 24 23 22 20 19 24 24 24 24 20 19 18 17 19 23 23
42 44 40 40 39 40 57 83 102 103 98 87 82 77 64 60 54 51 50 51 52 53 51 47 41 44 40 37 31 27 23 18 21 20 20 20 22 23 22 21 19 20 19 18 21 24 21
41 41 39 40 39 42 54 74 97 100 93 88 84 79 63 50 54 53 56 53 54 52 49 51 53 45 40 32 29 26 22 21 16 14 16 16 16 15 15 16 17 17 15 17 18 20 21
36 35 36 36 35 44 52 71 96 98 93 84 79 78 57 48 36 46 54 53 53 54 50 53 42 43 42 36 32 27 23 19 16 14 13 10 9 10 10 11 12 13 15 17 20 22 25
34 34 29 32 34 35 52 73 97 96 87 81 76 72 56 43 46 46 52 44 49 54 50 54 37 38 42 37 32 30 25 21 18 16 15 13 12 11 12 13 16 17 20 21 24 27 31

GFSGBSN_500_spd_024.txt.gz
Wind_Speed
60 59 58 56 55 55 55 55 54 52 50 46 44 41 38 36 34 31 27 25 25 25 26 28 29 31 30 20 22 19 20 13 13 7 5 3 7 11 18 21 20 20 19 10 15 15 5
65 64 63 61 60 59 58 57 56 54 51 48 45 43 39 37 34 30 27 25 25 24 24 27 27 30 29 16 20 22 15 10 11 7 5 6 8 12 18 24 18 19 17 7 8 10 7
69 69 69 67 66 64 63 61 59 55 52 49 46 44 41 37 35 30 27 24 23 22 24 25 25 27 26 15 17 18 14 8 9 11 7 6 5 11 19 23 18 20 11 6 6 1 3
69 73 70 70 70 70 68 65 59 56 51 49 47 45 42 39 35 30 28 25 22 19 23 23 23 25 20 13 13 14 13 11 13 10 4 10 2 9 16 23 16 13 11 15 2 3 3
71 72 75 71 71 68 69 69 65 60 55 49 46 45 43 41 36 29 28 25 22 20 22 21 21 22 16 12 9 13 15 14 10 1 2 8 11 10 15 14 13 12 17 6 2 5 8
72 73 73 74 74 72 70 67 66 65 58 53 47 44 43 41 36 31 27 26 21 23 21 21 19 20 17 9 8 14 14 8 3 5 9 11 13 17 14 8 14 15 14 7 8 5 2
74 74 74 74 74 73 70 69 65 60 62 57 53 46 43 39 39 30 27 26 23 22 20 19 18 16 14 8 6 12 11 9 3 5 3 7 14 17 13 13 13 16 21 17 15 10 3
68 69 70 72 74 74 71 66 64 61 59 57 55 53 44 41 39 33 30 26 25 22 20 20 18 14 13 7 9 12 9 9 3 5 6 8 9 16 12 17 13 10 11 8 12 8 7
72 69 66 67 66 68 68 66 63 59 57 53 53 54 45 48 37 36 30 29 23 26 22 21 20 14 15 9 11 15 9 6 9 6 5 1 5 10 12 20 17 14 16 11 8 5 2
76 73 72 69 66 64 66 64 62 57 55 56 51 50 52 50 39 32 30 26 27 29 25 21 21 17 15 14 13 16 11 11 12 10 7 2 7 8 12 18 15 11 13 14 11 11 12
81 77 75 72 70 65 62 61 62 58 55 54 51 45 44 44 32 34 31 31 30 29 29 21 21 16 17 12 18 12 13 14 18 12 9 5 10 13 18 18 11 3 8 13 11 13 14
89 83 78 76 73 70 65 61 57 58 53 53 51 43 41 34 34 38 35 33 32 30 28 21 21 16 19 15 18 17 14 17 20 10 3 9 9 22 20 18 12 8 5 11 12 15 18
96 90 85 81 76 73 69 65 60 56 52 48 48 44 41 42 36 38 33 34 35 36 25 22 22 20 20 16 18 18 17 23 22 15 7 8 14 20 16 13 10 14 9 13 16 21 23
100 96 91 85 81 78 72 69 65 61 59 50 50 48 42 43 41 41 37 37 39 33 28 25 24 24 20 17 17 19 20 25 27 22 15 9 17 25 18 19 15 16 14 17 21 22 19
103 101 96 89 85 81 78 73 68 64 64 59 55 55 50 49 44 45 41 44 39 32 25 23 27 30 23 18 16 17 18 21 25 22 21 17 18 21 13 17 19 14 11 15 22 23 18
72 91 99 95 88 85 81 78 73 66 65 64 61 57 53 51 55 49 46 44 42 30 27 27 30 29 22 17 14 17 20 20 21 23 25 24 23 20 19 19 23 14 18 16 18 21 17
46 61 80 89 92 87 84 81 76 73 67 67 66 62 56 58 56 56 52 47 40 30 31 30 32 31 22 20 16 16 15 17 20 24 26 26 25 20 22 9 20 22 19 18 17 20 17
50 42 49 74 81 86 85 84 80 77 74 72 68 66 63 64 62 53 53 45 39 33 35 34 36 32 26 21 21 20 17 17 20 24 27 17 20 16 9 10 11 19 15 18 22 21 22
53 48 45 40 66 77 81 87 86 80 79 76 71 68 69 68 64 53 49 43 41 39 39 38 38 32 27 26 25 22 19 19 20 23 24 19 20 22 23 19 18 15 17 20 24 23 22
56 50 46 44 41 68 81 81 91 85 82 80 79 77 70 72 59 55 50 44 41 41 42 42 40 34 30 29 28 24 27 23 23 24 20 20 23 21 16 14 20 21 21 22 24 24 22
55 50 46 44 42 47 81 85 90 91 88 87 87 81 71 67 64 58 55 50 48 48 45 46 42 36 32 32 35 31 27 27 27 26 23 22 22 22 22 21 22 25 24 24 26 22 23
51 52 44 42 43 41 49 94 96 95 94 94 89 80 72 58 56 57 55 51 53 46 47 46 39 35 33 36 35 36 32 31 28 30 29 26 26 26 26 25 27 30 31 23 22 24 24
49 50 47 42 43 43 43 54 98 100 102 98 88 79 71 62 58 58 54 51 51 49 50 47 40 37 36 37 38 33 27 27 26 29 29 28 29 30 32 32 33 34 25 26 24 28 26
48 50 48 45 42 42 44 50 67 101 105 97 90 80 71 66 60 52 51 53 47 50 50 46 42 38 37 43 38 35 34 31 30 30 28 29 27 30 31 30 33 21 24 25 22 23 23
47 48 47 45 43 42 41 48 66 87 105 99 91 81 73 69 57 52 53 51 45 49 53 47 45 39 41 45 42 38 38 35 34 31 31 29 26 29 30 28 28 22 22 23 22 23 22
44 46 46 45 44 41 40 40 59 78 102 98 90 84 77 72 60 56 58 50 50 54 55 52 49 45 44 47 43 42 41 37 34 28 26 24 25 27 25 25 25 19 21 22 23 24 22
45 48 48 46 45 42 38 35 51 74 99 97 93 88 76 67 65 60 61 49 52 57 54 51 49 48 48 49 44 42 41 34 31 26 23 25 25 24 22 22 21 18 20 22 23 20 21
42 41 42 42 39 39 33 31 50 72 94 97 88 82 72 66 69 65 59 57 53 56 53 51 50 51 51 50 46 43 37 31 29 24 22 19 19 18 18 17 15 16 17 17 16 17 18
36 36 38 38 38 31 29 28 48 74 95 95 89 80 59 57 62 59 61 52 53 52 54 55 48 48 45 49 45 42 36 32 29 24 24 19 16 14 14 12 14 14 13 14 15 18 23

GFSGBSN_500_spd_027.txt.gz
Wind_Speed
58 58 57 57 57 57 56 54 56 53 51 53 50 49 48 45 40 36 36 33 30 27 23 23 25 29 30 33 28 22 18 15 12 12 10 8 13 8 16 13 12 13 11 21 13 14 15
63 60 61 60 59 58 57 56 55 54 54 54 53 50 49 46 42 38 37 35 30 26 22 23 24 28 28 31 27 18 15 13 12 10 11 8 10 4 11 15 9 9 10 10 15 20 6
64 64 62 63 63 62 61 59 58 58 57 55 52 52 50 47 44 41 38 35 31 25 22 22 24 27 27 28 24 14 14 14 13 13 7 6 2 4 7 18 15 11 20 9 5 12 1
65 66 65 66 64 66 66 64 61 63 61 59 56 55 53 49 46 41 38 35 33 26 23 23 24 26 24 26 21 12 15 16 16 12 5 10 5 3 6 14 15 18 15 6 1 3 4
66 69 69 69 69 67 68 68 66 63 61 63 60 59 55 51 46 41 38 37 34 27 25 24 24 23 24 23 20 13 15 16 10 9 3 9 7 7 6 13 13 20 15 4 4 6 9
70 70 71 72 71 70 69 69 66 68 63 61 63 62 60 53 46 42 39 37 35 30 26 24 24 21 22 22 17 12 13 15 11 7 1 5 9 11 11 12 16 14 12 13 8 9 7
71 69 72 73 72 73 70 69 68 67 65 64 62 58 55 58 50 43 41 40 39 33 27 24 22 21 22 21 14 11 11 13 9 4 6 4 9 13 16 15 18 16 16 13 13 12 10
74 72 72 68 70 72 72 69 68 67 64 64 63 57 50 51 56 50 43 45 39 32 26 27 22 21 22 21 14 13 11 10 10 5 3 4 8 16 18 12 13 12 13 16 13 4 3
78 76 72 70 67 65 67 69 70 68 66 62 63 58 53 48 52 56 51 47 37 36 31 29 22 21 22 21 17 17 14 8 6 6 7 5 8 13 14 9 14 16 18 18 13 5 2
85 79 77 73 70 68 64 62 64 66 65 63 60 55 51 47 51 49 47 47 37 37 35 26 24 23 19 21 18 20 16 9 11 7 10 7 11 11 9 14 17 14 13 14 13 10 8
92 86 82 79 75 72 69 67 63 63 61 62 56 53 48 47 40 43 42 40 39 38 36 29 27 24 20 19 22 15 15 11 14 14 12 11 11 11 8 23 17 14 15 13 12 13 10
97 92 87 83 80 77 73 70 66 64 61 58 54 47 48 43 37 38 39 40 41 41 39 29 27 23 20 20 21 19 20 15 19 20 17 10 16 12 17 21 16 10 12 15 17 14 15
94 99 94 87 83 80 77 74 70 66 64 58 57 49 48 40 38 37 38 46 44 45 32 32 24 22 22 22 24 19 20 18 17 20 17 18 13 13 18 20 19 14 14 13 19 19 17
59 72 92 94 88 84 81 76 74 69 65 62 58 55 51 44 41 41 41 44 47 41 34 30 26 27 22 24 22 21 21 20 20 25 22 17 12 16 19 18 17 22 18 19 19 20 22
61 54 63 79 92 87 84 81 77 72 69 64 62 58 51 46 45 44 45 46 43 42 32 32 30 32 27 26 24 25 21 20 20 27 23 19 13 20 23 21 19 17 18 19 22 22 24
65 60 52 60 73 88 85 84 82 77 72 69 66 61 54 50 50 50 49 42 47 36 34 34 34 33 29 28 29 23 19 19 20 22 27 23 19 19 27 18 18 17 20 24 24 22 22
61 64 59 51 59 76 84 85 85 82 78 74 72 66 59 55 58 57 49 41 48 37 36 37 38 36 31 29 25 21 15 16 22 20 24 32 29 25 27 24 18 18 26 26 25 27 21
66 60 63 56 49 68 81 87 86 87 83 80 75 72 65 65 65 56 50 47 49 40 39 39 39 37 32 29 26 22 19 17 25 25 28 29 32 31 25 19 27 26 14 26 27 23 22
71 65 61 59 47 49 81 85 90 90 88 83 79 75 74 72 69 53 49 50 50 45 46 44 39 39 35 31 29 23 23 22 24 26 26 24 28 28 23 22 20 20 14 19 23 25 25
75 69 63 57 50 44 62 91 90 92 91 87 85 85 79 79 63 58 52 51 51 48 46 47 45 44 37 32 30 24 25 27 24 24 22 22 23 24 21 18 17 23 24 24 26 26 25
70 67 62 59 50 44 45 75 93 95 94 93 92 88 77 74 66 59 57 52 49 52 51 49 47 45 38 33 33 27 30 30 28 26 26 25 25 24 23 22 21 21 23 24 23 24 25
61 65 61 58 53 48 43 47 88 98 97 98 94 87 83 69 65 62 59 53 49 50 55 52 48 45 40 36 32 26 28 30 29 27 27 25 24 23 25 25 25 26 27 28 24 26 29
62 60 62 58 53 48 50 44 60 93 100 101 94 87 82 72 69 68 57 51 49 49 48 45 42 44 40 35 30 32 33 34 29 27 26 27 27 24 24 26 30 31 29 29 31 33 32
58 60 58 56 54 50 49 46 45 66 94 100 93 88 81 76 73 60 58 55 51 45 47 46 47 49 40 38 36 37 35 37 37 33 29 28 24 26 29 32 38 30 30 30 32 32 31
58 57 52 51 50 48 49 44 41 45 71 97 94 92 83 79 70 64 61 57 55 49 52 48 51 48 42 42 40 41 42 37 38 34 33 29 27 30 33 35 34 30 28 26 27 29 27
56 49 50 53 47 45 47 46 40 36 43 81 95 93 86 79 69 68 61 58 55 54 52 51 56 55 50 50 45 47 44 37 42 39 33 29 29 31 34 35 33 22 27 27 27 30 24
54 48 46 49 50 47 45 45 41 38 36 57 88 92 88 81 74 70 64 61 59 57 56 56 58 57 53 51 46 47 49 41 42 36 30 30 30 33 35 35 30 23 26 29 28 19 22
46 43 44 49 47 45 45 43 40 38 38 51 72 92 88 80 74 71 68 62 61 60 59 58 62 59 58 53 47 48 48 41 43 36 31 30 32 32 30 29 25 19 24 22 18 19 19
38 41 44 46 46 45 43 41 39 36 36 53 72 90 88 81 74 69 62 62 56 57 57 61 62 61 58 51 49 46 44 44 40 36 32 32 30 27 28 24 20 16 14 14 13 15 18

GFSGBSN_500_spd_030.txt.gz
Wind_Speed
55 55 54 53 52 54 54 54 53 51 49 48 47 46 45 44 44 42 45 41 37 35 35 32 27 27 27 31 34 35 33 23 22 19 19 13 11 11 7 6 12 9 13 15 13 10 8
57 57 57 56 56 56 56 56 57 55 54 52 52 49 46 45 46 45 43 41 37 36 35 31 28 27 27 30 32 33 30 22 24 20 19 9 6 6 9 8 5 5 6 7 11 11 12
60 60 60 58 57 57 58 58 57 57 57 55 52 50 48 47 47 44 45 42 38 36 36 32 29 27 27 29 30 31 28 22 23 20 16 8 5 0 5 7 8 7 7 0 4 8 14
62 62 63 63 62 61 60 60 60 58 56 56 55 54 52 50 48 46 45 45 40 38 35 31 29 25 29 27 29 28 27 21 24 18 14 10 7 4 3 3 8 10 12 7 4 6 10
62 63 63 63 64 64 65 63 63 60 59 57 56 56 55 52 52 49 48 47 43 38 37 32 29 25 29 26 27 26 24 18 22 18 11 11 8 5 5 5 10 15 12 9 6 2 12
66 64 64 63 63 64 66 67 66 64 61 60 61 57 55 54 50 46 49 51 46 40 39 32 29 27 27 26 27 23 22 16 20 16 6 7 8 6 8 10 12 13 18 10 7 7 16
74 72 69 65 64 63 65 67 69 67 66 63 60 61 58 53 54 49 44 43 43 42 41 34 31 29 27 26 27 21 20 18 21 17 5 3 3 5 12 14 14 15 16 12 13 8 10
83 80 77 75 71 67 65 66 70 69 68 64 60 59 57 57 52 49 46 45 39 43 41 37 35 31 29 26 25 21 19 17 19 13 4 5 2 6 12 9 9 14 11 9 11 11 5
91 88 83 80 77 73 71 68 66 66 68 67 62 59 55 56 57 49 46 42 38 45 47 39 38 32 30 26 24 21 18 18 16 11 7 8 6 7 13 5 5 12 11 13 13 10 7
98 94 92 86 81 78 75 71 68 63 60 60 64 60 54 53 54 50 44 40 40 46 49 40 41 32 32 26 23 22 17 17 14 12 10 8 7 9 13 11 12 13 16 16 17 13 7
108 101 94 91 85 81 77 74 70 66 62 59 56 57 58 53 49 47 44 40 43 45 41 36 43 38 30 24 23 20 18 14 15 15 12 12 9 12 11 11 15 17 19 17 16 15 9
81 83 87 97 92 85 81 76 73 70 66 63 60 57 55 54 49 45 45 39 39 42 42 34 40 36 30 26 26 26 18 13 19 19 17 17 14 14 14 9 15 16 17 17 16 16 14
63 60 59 64 80 91 85 81 78 74 71 67 64 59 54 51 39 47 44 39 41 39 35 35 36 35 31 26 25 27 19 12 17 18 21 19 16 16 15 12 20 18 12 16 19 19 17
64 66 65 62 60 71 83 85 82 79 75 72 66 62 56 50 41 47 45 44 44 38 39 35 37 30 35 26 28 27 21 14 16 18 25 26 23 17 16 19 23 24 23 18 18 18 19
62 60 63 64 61 60 79 79 85 83 80 76 71 67 61 53 47 49 48 48 42 38 38 43 40 40 37 30 28 27 22 16 17 18 25 26 24 19 18 22 22 21 20 19 20 19 23
68 64 61 61 63 57 64 85 87 86 84 81 76 71 64 57 54 54 54 47 43 38 40 49 41 39 35 28 30 29 23 18 16 18 24 25 23 20 23 26 25 19 18 20 22 24 25
79 74 68 64 62 62 55 70 91 89 88 86 82 78 68 65 63 64 56 48 44 40 43 47 46 43 35 33 31 29 23 19 15 21 26 29 27 21 23 27 25 20 21 22 24 31 29
76 74 74 71 65 62 60 52 82 93 90 89 86 81 73 71 74 66 53 48 47 41 47 50 45 43 37 33 31 29 22 18 18 21 27 29 32 29 24 24 29 25 24 25 25 25 29
65 71 73 72 65 61 62 56 49 92 93 90 88 82 81 78 78 63 53 51 50 45 48 49 46 46 40 36 34 29 23 20 18 22 26 26 28 30 30 30 26 30 24 22 30 22 22
61 59 66 72 62 60 60 60 55 65 92 91 90 91 90 83 68 64 60 54 50 47 50 51 45 47 43 38 34 28 23 22 19 23 25 27 25 24 25 20 24 28 27 29 30 28 22
58 68 60 69 63 59 58 63 57 51 76 90 93 95 88 82 76 63 61 56 54 51 53 53 49 47 44 40 35 29 27 21 22 25 26 29 27 22 21 23 27 28 28 30 29 28 26
56 65 63 65 68 60 57 62 59 53 55 80 94 94 89 79 69 71 68 58 56 50 51 59 57 47 45 41 34 29 26 22 22 28 30 28 26 24 23 25 27 27 25 26 28 28 27
50 57 68 64 67 61 58 62 57 54 54 81 87 92 90 81 79 77 62 58 57 51 52 57 50 40 46 38 33 33 32 31 28 32 30 30 31 30 26 25 26 30 24 27 27 27 28
46 49 56 66 66 61 61 61 56 50 45 59 82 88 88 87 81 70 68 61 57 50 47 50 48 47 44 38 40 39 36 34 30 31 33 30 28 32 30 30 33 21 22 25 30 30 32
46 46 54 64 65 62 63 57 53 45 35 38 61 86 89 89 79 77 71 65 62 54 51 48 48 49 43 43 45 44 42 40 38 32 30 33 30 32 31 28 29 23 23 29 35 29 30
40 50 59 65 63 63 60 53 51 45 38 33 45 76 91 87 81 78 75 68 62 55 53 49 50 47 48 48 50 47 48 44 42 33 28 35 37 34 30 28 29 26 27 27 29 29 25
44 43 48 55 54 60 55 50 45 38 41 35 45 68 85 87 83 80 75 69 63 57 54 49 48 48 48 50 51 49 48 45 45 37 31 34 34 30 28 31 32 29 27 29 34 22 26
46 52 46 50 57 54 51 44 38 40 38 31 44 63 80 85 82 80 77 72 65 56 52 53 55 56 55 55 55 53 49 49 45 35 33 32 33 33 32 34 31 28 28 27 25 26 25
41 43 48 50 47 47 43 41 40 39 32 31 52 65 78 84 81 77 74 70 65 59 56 56 58 55 56 56 56 52 52 51 42 39 31 33 33 32 33 30 30 27 24 22 21 20 19

GFSGBSN_500_spd_033.txt.gz
Wind_Speed
54 51 50 50 51 52 50 48 47 47 47 47 45 44 44 43 41 39 37 35 37 34 35 35 32 33 31 28 28 31 36 34 32 27 27 21 15 12 8 4 2 5 13 11 9 5 3
59 58 55 54 54 53 53 52 52 51 48 49 48 47 45 44 45 43 43 38 40 35 35 33 32 32 30 27 27 31 35 32 30 25 25 19 14 11 4 5 5 4 4 7 6 5 9
60 62 60 59 57 59 57 55 54 53 52 51 50 49 49 48 44 43 42 40 37 38 35 30 30 31 30 28 23 31 34 30 27 23 23 18 14 9 5 9 8 8 6 7 8 9 10
62 63 61 61 61 59 60 60 59 57 55 55 52 51 50 49 48 45 44 44 41 37 36 33 31 31 29 29 22 30 31 28 25 22 22 15 12 8 5 11 12 10 8 1 7 9 9
61 61 60 60 59 62 61 62 61 60 60 58 57 54 53 49 49 46 46 43 41 38 35 36 34 34 30 29 24 30 30 26 23 22 22 14 11 8 6 13 16 12 9 6 4 2 12
65 65 65 63 61 60 60 60 61 62 61 62 61 59 55 53 49 47 45 42 39 33 33 35 38 34 31 29 26 29 29 24 21 21 20 13 7 8 7 14 16 11 12 7 1 3 8
72 72 71 70 67 65 63 62 61 59 59 59 62 60 59 55 52 50 47 45 39 37 32 32 31 34 32 28 28 28 28 23 20 19 16 12 8 6 8 14 16 10 7 11 8 5 15
82 81 79 78 77 73 70 66 64 62 60 59 60 60 60 58 56 54 49 46 42 40 35 33 32 30 31 31 29 29 29 23 20 19 14 12 8 6 5 6 7 11 7 8 10 8 10
90 91 88 85 83 81 79 74 70 67 64 62 61 61 59 58 57 54 52 47 44 41 38 30 31 30 33 32 31 29 29 24 19 18 12 11 9 7 6 3 2 12 13 11 12 7 8
98 98 97 92 88 86 83 80 76 72 68 65 63 62 59 58 57 53 53 48 43 45 41 32 33 30 37 35 32 30 28 23 17 16 10 10 11 8 7 5 5 7 14 13 12 12 10
99 101 100 101 99 92 85 82 80 76 71 69 66 65 61 57 54 51 51 47 43 41 38 34 34 33 38 38 27 26 27 21 16 17 10 13 12 8 10 9 7 14 12 14 15 14 11
60 64 70 77 84 85 85 89 82 79 75 70 68 66 64 59 51 48 48 44 44 42 42 34 33 32 37 36 33 33 29 23 18 17 11 14 12 9 12 11 10 17 14 15 16 15 14
57 58 59 56 54 59 62 65 66 72 76 74 71 67 65 59 51 48 48 44 47 46 42 38 34 30 34 38 36 37 29 25 18 16 9 15 16 16 16 14 14 16 15 17 20 21 17
60 61 61 61 61 58 54 51 63 72 75 77 76 72 67 61 56 51 52 48 52 48 43 44 35 36 35 40 38 35 30 28 17 14 15 17 20 18 21 18 16 18 19 18 15 14 14
59 61 60 58 60 61 61 58 50 69 82 81 79 78 73 65 61 54 56 56 46 46 46 40 40 35 38 39 39 36 32 23 17 16 15 17 21 24 22 21 22 22 24 22 20 21 19
64 64 64 65 61 58 58 60 58 51 70 83 83 81 76 71 65 60 60 52 45 47 43 40 44 41 42 36 41 37 30 23 16 15 17 21 22 25 27 26 26 26 25 22 22 21 21
78 76 69 67 66 62 56 56 57 60 52 78 81 83 79 76 72 70 66 49 49 51 44 45 44 49 45 40 33 32 26 21 19 18 21 22 24 26 27 28 28 30 26 24 23 21 20
83 80 77 73 67 68 66 56 53 60 62 59 86 85 81 82 83 76 64 51 53 53 43 47 42 49 43 40 34 33 30 22 19 18 21 23 26 29 25 23 26 31 29 26 21 18 24
75 74 76 77 77 72 70 69 56 56 65 60 64 86 87 84 85 77 60 60 58 53 44 49 43 50 47 42 38 34 31 25 25 21 20 24 27 29 32 30 28 23 27 26 23 28 29
58 67 69 66 73 75 72 68 64 60 65 65 58 78 86 87 81 71 70 66 60 57 47 49 47 50 53 48 41 36 30 27 26 21 24 26 27 28 24 23 26 28 25 29 30 31 31
55 58 70 71 65 67 69 67 65 65 64 71 65 67 83 91 87 78 72 65 65 60 49 51 51 54 50 42 41 37 29 28 25 22 23 26 22 22 19 23 28 27 31 30 29 28 31
47 47 48 62 67 58 60 65 68 69 67 71 69 55 72 89 80 78 79 72 66 60 51 52 53 51 48 42 41 37 32 30 28 26 26 26 23 22 21 23 27 29 28 27 27 28 26
46 50 47 50 55 55 61 64 69 69 68 72 65 49 56 87 86 85 78 70 67 62 55 52 49 47 42 35 37 35 35 35 32 32 29 29 26 24 24 23 28 28 25 25 24 24 26
44 45 42 54 62 60 59 61 67 64 64 65 56 45 49 77 87 82 78 72 68 63 57 54 50 50 38 30 37 39 39 37 35 34 32 31 29 28 29 28 29 15 19 21 22 22 26
43 46 46 53 56 64 59 59 63 59 59 63 53 43 42 66 84 81 80 75 71 66 59 54 49 46 42 40 42 44 44 40 39 35 35 33 33 31 32 30 24 23 21 21 25 21 24
41 38 41 44 54 64 61 57 59 55 57 58 44 37 41 57 83 82 81 78 74 67 60 57 51 49 50 46 44 49 49 46 43 39 36 31 31 31 34 31 25 16 21 21 24 19 20
35 36 39 44 55 61 62 58 54 53 52 43 37 34 36 57 74 81 81 79 78 70 62 59 52 48 50 51 49 45 47 44 46 42 35 33 32 32 33 33 22 21 20 22 25 24 24
30 33 34 48 57 60 61 57 51 50 47 41 35 28 35 57 69 64 81 81 79 71 66 59 56 51 47 54 56 51 50 50 47 40 36 34 33 30 30 30 27 22 23 24 26 25 25
27 32 39 49 53 61 56 50 47 46 39 37 33 27 31 56 69 78 82 80 75 71 65 57 51 51 52 49 55 54 54 49 47 45 36 32 28 28 31 28 26 26 25 24 25 25 23

GFSGBSN_500_spd_036.txt.gz
Wind_Speed
49 50 52 52 51 49 48 48 48 47 44 45 44 43 44 41 39 38 37 36 33 31 30 33 29 26 30 28 27 25 26 29 30 32 27 27 24 16 14 2 3 2 8 8 7 3 4
55 54 53 53 53 56 53 51 50 49 49 48 48 45 43 44 42 40 38 37 36 34 30 32 29 29 26 25 26 24 23 27 29 29 26 26 24 14 13 3 4 2 5 9 8 8 7
55 56 57 56 56 54 56 56 55 54 53 50 48 49 48 45 44 44 40 38 36 35 34 33 31 28 27 25 25 24 22 27 27 27 24 25 23 13 10 6 7 8 6 6 7 10 11
54 54 56 57 57 56 55 55 56 57 56 56 53 49 49 50 46 44 43 40 39 36 37 37 32 31 29 27 25 24 23 26 26 26 23 23 21 12 7 8 11 10 7 7 14 13 7
54 53 52 52 53 54 55 55 55 56 56 57 55 53 51 51 49 45 44 41 40 37 38 33 30 32 33 30 27 24 24 26 23 23 21 22 19 10 6 6 11 12 5 2 7 3 10
58 58 57 57 56 56 55 55 55 52 51 55 58 57 55 54 53 51 48 44 40 39 36 32 28 28 28 32 30 27 24 25 24 20 19 19 15 10 6 5 9 12 6 2 5 4 7
67 66 65 64 63 62 60 58 59 57 56 53 53 56 57 56 55 54 52 48 45 39 37 34 31 30 27 27 30 27 25 25 23 20 17 16 12 12 9 9 15 19 10 8 8 5 7
74 74 73 73 71 69 68 66 63 63 61 58 58 56 54 54 53 53 51 52 46 45 37 35 36 30 31 29 29 26 25 24 21 18 17 15 11 10 3 6 13 20 13 7 9 5 7
81 81 80 79 78 77 75 74 69 68 65 63 61 60 58 57 55 52 51 50 47 48 47 33 35 30 31 33 29 26 26 24 21 15 16 14 11 8 6 8 11 20 15 11 9 6 11
89 89 89 88 87 85 82 80 78 74 72 67 65 63 62 61 60 56 52 51 47 47 48 36 35 35 32 31 30 29 28 27 21 16 15 12 10 5 10 7 6 9 19 16 14 10 7
87 90 93 93 91 90 89 88 85 80 77 73 70 66 65 64 62 59 54 51 49 45 45 39 34 36 33 34 25 29 32 29 22 19 15 12 11 5 9 11 7 10 13 19 17 12 11
59 59 63 68 73 76 78 79 79 84 80 76 72 71 69 68 65 61 58 54 50 45 48 39 34 32 30 32 29 34 32 27 25 22 17 12 10 8 11 12 9 7 12 12 12 12 14
52 50 49 48 46 46 50 56 60 64 63 66 66 68 71 71 67 63 61 56 51 52 49 41 37 35 30 29 30 36 37 31 27 22 16 14 13 15 14 15 12 8 11 11 11 14 12
46 46 48 50 51 52 49 47 47 45 49 66 71 76 75 70 71 68 64 60 60 53 44 42 39 40 37 32 33 37 39 36 31 24 22 16 19 19 17 17 17 15 16 16 16 13 11
47 46 48 46 45 49 50 51 52 51 53 48 72 78 79 75 74 73 71 69 62 51 45 40 43 43 39 37 36 38 40 37 29 26 23 19 21 19 24 23 22 19 21 20 20 19 17
54 54 53 53 53 53 51 50 50 52 56 56 52 65 78 76 74 75 76 75 59 50 44 46 45 44 42 40 40 39 43 38 34 28 27 22 23 22 26 26 24 24 25 24 26 25 23
60 64 64 64 64 63 61 58 55 52 54 61 62 56 54 76 78 81 83 71 55 56 52 51 48 46 43 41 42 43 43 37 32 30 28 24 24 24 24 28 27 25 27 29 28 27 23
65 63 69 72 73 69 69 66 61 58 57 61 62 57 51 63 84 85 82 65 62 62 58 55 50 49 48 44 43 45 45 33 32 31 30 22 26 30 25 27 27 29 30 32 32 28 23
75 75 75 77 76 76 71 68 64 62 61 61 60 61 64 60 78 85 77 69 70 68 64 58 50 48 47 50 48 47 45 35 34 34 32 27 28 30 29 28 30 29 28 28 32 30 27
83 87 78 74 73 70 77 74 67 66 64 63 64 66 69 64 61 77 76 75 74 72 66 59 49 48 49 49 48 52 41 38 38 38 33 31 30 28 27 24 25 27 24 23 26 31 29
60 52 49 46 47 59 53 58 67 71 70 69 66 68 63 61 58 60 77 77 74 77 69 64 54 52 50 45 50 55 51 38 38 36 35 36 33 28 24 24 31 30 31 30 32 29 31
56 56 56 57 56 56 58 64 64 66 73 76 67 62 56 57 61 54 75 81 81 76 72 62 56 52 47 47 49 43 42 42 37 34 35 37 32 28 23 23 27 29 26 32 33 33 32
63 64 63 63 63 62 61 63 63 66 68 76 66 61 57 55 59 52 71 76 78 77 72 64 55 47 47 42 42 41 49 39 37 36 36 38 33 28 24 22 25 28 24 23 25 24 24
54 56 57 57 54 58 56 60 66 69 68 67 60 60 58 56 58 48 56 71 79 78 72 67 60 54 52 41 45 38 47 44 43 39 39 38 33 31 27 26 31 13 16 22 26 23 23
38 45 49 52 47 51 63 59 62 64 61 61 61 64 61 56 46 49 54 71 77 81 77 69 63 56 48 41 40 41 45 50 45 42 41 38 35 32 31 29 24 23 19 21 22 19 23
13 26 41 44 47 47 60 67 68 52 57 56 57 60 63 56 43 44 47 71 79 81 78 69 65 58 49 44 44 41 48 46 46 48 43 42 38 35 33 29 23 14 16 18 24 12 18
17 29 35 43 40 42 59 73 59 56 55 50 53 58 59 48 47 48 48 73 78 79 74 70 64 59 53 48 50 45 50 49 43 48 43 39 40 36 32 31 22 17 22 21 26 8 26
21 32 38 37 37 52 60 53 57 47 46 50 51 49 45 47 48 44 47 66 75 78 71 68 64 60 52 51 51 49 47 54 49 47 43 39 37 36 34 33 25 14 22 26 18 23 24
23 28 30 35 43 56 52 59 54 45 48 49 42 43 47 42 41 42 53 55 44 58 70 66 59 55 53 53 54 55 53 49 55 52 46 41 39 37 35 33 24 22 24 26 24 25 24

GFSGBSN_500_spd_042.txt.gz
Wind_Speed
61 64 62 59 58 57 53 48 48 48 47 47 46 44 42 41 39 38 36 35 32 33 30 30 32 33 35 29 29 25 23 20 18 19 20 20 20 22 23 11 14 10 11 15 17 13 12
63 61 60 60 60 58 54 51 48 47 48 49 48 47 45 42 39 40 38 36 35 33 30 32 33 32 35 29 29 24 25 21 19 20 19 19 18 21 21 17 8 12 7 8 8 12 12
62 58 57 57 55 55 55 55 53 49 49 47 47 48 49 47 43 40 41 39 37 36 33 34 34 32 33 29 27 27 25 25 20 20 19 18 16 18 21 19 6 4 4 6 7 18 18
55 50 50 49 47 46 45 45 47 50 50 49 48 48 48 48 49 47 43 41 40 37 36 34 34 32 26 31 29 27 26 25 23 21 20 17 16 16 18 18 5 4 4 10 17 18 21
51 49 48 44 44 44 43 44 46 47 47 47 49 49 47 47 47 47 48 45 41 40 37 36 35 32 26 29 28 23 20 24 26 24 22 18 16 16 17 16 4 5 9 16 17 16 13
39 41 36 39 43 44 43 45 45 46 47 46 45 44 45 44 44 45 46 47 45 41 41 41 38 33 32 28 28 24 22 23 22 23 22 19 15 15 15 15 3 7 14 14 19 24 17
47 48 47 44 47 49 49 47 47 46 47 47 46 45 44 43 42 42 42 43 45 45 41 39 43 35 33 31 27 29 24 24 21 19 20 20 17 14 14 13 10 14 13 4 22 20 18
52 53 54 54 53 53 54 54 52 50 50 50 49 50 48 46 44 44 43 43 44 41 41 40 43 35 36 31 30 30 29 23 22 17 22 23 17 15 13 12 10 22 17 9 16 19 23
61 58 57 57 56 57 57 58 57 57 56 55 54 54 54 52 51 50 48 46 45 43 46 34 38 39 31 37 30 31 29 26 22 23 23 22 20 15 11 12 12 16 24 14 21 18 14
65 64 63 62 62 62 61 61 62 62 61 61 60 60 59 57 57 56 54 52 50 47 47 39 34 38 34 34 34 31 29 27 28 24 23 23 19 16 14 12 11 10 11 17 20 13 18
70 70 69 68 69 67 65 65 66 66 65 64 65 66 64 61 60 58 60 58 50 51 49 42 40 43 32 37 31 31 30 30 29 24 28 17 20 18 16 12 11 11 18 21 16 21 13
72 71 70 69 67 67 66 67 68 68 66 66 68 69 67 64 61 60 61 60 54 53 55 47 48 40 34 34 32 32 37 33 29 28 30 25 23 19 16 16 14 14 18 17 19 18 20
63 59 57 57 58 57 57 56 56 55 56 57 59 63 66 65 61 62 64 63 58 61 57 53 53 49 37 35 33 35 36 37 35 33 31 26 29 20 18 19 17 17 14 13 13 11 11
57 56 52 47 46 46 44 43 42 41 38 37 39 47 54 59 59 62 66 66 69 60 61 57 55 53 44 40 33 32 36 35 36 36 31 27 28 24 20 19 19 18 16 15 21 20 19
51 50 48 45 43 43 43 44 43 43 41 42 43 38 38 42 51 65 66 72 68 66 65 57 57 55 51 39 35 36 36 33 35 35 36 33 29 21 25 21 24 20 22 9 23 21 17
46 44 43 44 43 43 43 40 38 38 37 38 39 43 42 39 41 48 63 73 66 65 62 58 53 57 48 38 38 38 39 37 35 36 35 35 29 26 28 23 28 29 18 23 29 23 19
40 42 44 44 44 42 41 39 38 39 41 42 40 39 37 45 50 50 49 51 57 66 65 64 65 53 50 35 39 40 41 39 37 37 37 38 34 25 26 35 27 30 32 28 29 26 28
40 42 44 44 44 44 43 42 42 43 45 47 46 44 39 45 48 48 43 29 27 59 64 63 60 56 43 37 35 33 42 44 36 38 39 41 39 38 31 34 31 29 28 32 31 28 26
41 42 44 46 48 48 48 48 49 51 52 54 54 52 50 52 48 44 36 30 35 37 59 64 65 62 57 48 45 44 30 41 37 36 40 40 44 40 41 28 36 28 28 30 35 30 35
43 44 47 49 51 52 54 55 55 57 57 59 64 64 61 59 52 46 43 37 35 40 40 54 60 66 66 56 40 50 46 30 37 46 38 44 47 46 47 41 26 24 27 28 35 35 29
48 49 51 53 57 59 61 62 61 61 60 62 65 67 62 62 51 47 50 41 38 42 44 45 59 65 61 55 47 47 50 48 44 51 46 47 53 46 47 36 35 29 26 23 29 25 34
57 58 59 60 61 62 63 65 66 66 66 66 69 66 63 61 58 56 50 46 43 41 46 49 51 59 63 62 50 46 51 32 48 39 47 45 51 48 47 42 42 36 31 27 25 28 33
61 62 64 64 65 67 69 70 69 65 66 65 68 62 64 64 64 65 58 47 43 46 49 45 41 51 63 59 56 58 30 37 42 49 41 47 49 52 54 47 44 47 43 35 28 26 30
61 66 71 75 76 77 74 71 71 70 72 71 72 64 65 65 63 63 56 50 48 50 50 45 41 47 54 54 49 62 54 41 37 34 52 44 47 49 48 41 51 44 40 39 42 40 40
66 61 56 55 58 62 61 59 56 59 69 76 72 65 64 61 60 57 55 55 54 51 52 45 44 37 53 51 42 57 55 51 52 31 46 52 49 58 58 52 47 47 40 37 35 32 27
45 47 52 58 60 59 60 60 59 58 56 63 70 68 62 60 52 46 54 57 57 54 54 49 44 39 43 54 49 43 60 60 43 52 37 45 52 54 51 51 54 47 37 32 30 35 23
50 49 46 46 48 53 57 58 60 58 59 54 54 64 60 63 48 49 50 52 54 50 47 43 44 43 50 59 65 44 54 64 56 40 38 44 50 54 58 55 50 42 32 30 33 26 20
35 38 37 33 33 36 45 54 53 59 61 57 47 54 48 57 44 41 40 46 47 47 44 38 43 45 49 56 59 62 53 58 57 51 38 50 48 51 47 52 51 39 36 36 27 19 25
25 22 18 26 31 34 39 46 48 54 60 53 59 45 47 46 47 46 34 38 35 36 31 38 39 39 40 49 41 47 52 51 52 55 48 48 42 37 45 47 45 40 34 29 23 27 30

GFSGBSN_500_spd_045.txt.gz
Wind_Speed
68 68 67 65 62 60 64 64 59 58 53 49 46 46 45 44 42 39 35 34 34 33 30 31 31 27 28 25 28 23 26 23 21 20 18 17 15 15 19 22 25 10 9 8 8 9 12
66 67 64 63 64 64 62 62 64 63 60 57 50 47 46 44 43 41 38 35 36 35 33 32 32 29 24 22 29 23 24 21 19 21 19 17 16 15 16 19 22 12 8 2 2 8 14
59 60 61 59 61 65 66 63 66 68 65 61 63 51 45 45 44 41 41 39 37 36 34 35 35 33 23 22 29 19 23 23 22 22 21 18 18 15 17 18 20 11 6 4 5 9 15
48 49 48 52 56 59 65 62 60 61 60 59 56 57 56 49 44 42 40 41 41 37 35 36 37 35 21 30 28 22 22 23 22 22 21 21 18 15 16 17 17 9 8 8 10 12 15
34 31 33 37 45 49 53 54 46 44 55 55 53 51 51 49 46 43 40 40 41 41 40 39 38 36 25 28 26 24 20 23 19 19 21 22 19 15 14 16 16 11 8 6 11 11 18
40 39 39 34 30 31 41 37 35 36 38 37 37 39 40 44 46 43 40 40 42 40 44 42 42 38 34 28 27 23 23 23 19 18 15 20 19 14 12 15 13 13 14 5 12 10 19
43 41 43 39 38 37 38 35 30 34 36 33 35 35 37 39 37 36 39 41 43 44 45 38 44 40 35 33 29 27 25 25 21 20 17 22 18 11 12 14 16 12 8 6 7 16 17
49 48 47 48 44 40 40 40 40 39 39 39 39 41 40 40 36 38 38 36 39 46 43 37 40 37 36 34 30 30 29 27 25 19 26 20 12 15 14 14 15 12 11 11 5 10 19
56 55 53 52 50 49 47 45 44 43 44 44 47 44 44 43 42 42 42 39 40 41 42 33 33 38 30 43 28 31 31 29 26 26 25 22 14 20 17 17 13 11 10 15 17 19 25
62 62 61 59 57 55 54 52 51 48 48 47 48 48 46 46 46 46 45 43 44 42 41 35 32 36 32 33 35 27 30 30 30 26 24 25 20 22 19 14 13 10 14 19 28 27 25
66 65 64 64 63 61 59 58 57 55 52 52 52 52 50 49 49 48 48 47 46 45 45 38 38 40 34 35 28 26 30 32 31 23 29 17 20 21 19 12 15 10 13 16 22 25 19
66 67 66 65 65 64 63 62 60 60 59 56 56 57 56 53 49 50 50 50 49 48 48 45 44 39 33 31 31 28 34 32 31 33 34 27 25 26 19 18 18 16 14 20 21 24 20
61 61 63 62 60 60 59 58 59 61 60 58 57 58 61 58 50 52 52 53 53 54 51 49 49 48 41 35 30 30 29 33 31 32 31 29 28 25 24 24 21 20 17 16 19 20 6
61 57 54 55 54 53 52 52 51 52 52 51 50 52 58 58 53 54 54 56 59 55 53 55 52 53 51 43 40 32 32 32 34 31 33 33 30 27 22 25 21 23 19 18 17 17 16
58 54 49 48 48 48 46 44 45 45 45 43 44 46 47 43 46 47 53 59 56 58 56 53 55 55 55 47 41 38 38 33 30 28 34 34 30 24 25 24 23 20 21 17 23 23 22
51 49 46 44 43 41 40 39 40 41 42 41 41 43 41 42 42 41 47 56 56 56 55 60 60 56 38 43 38 39 38 36 35 32 32 33 33 30 28 26 27 26 22 26 26 26 19
47 47 45 41 40 39 38 39 40 41 42 42 42 40 37 42 48 48 38 26 30 47 54 55 55 53 63 49 40 35 38 36 36 36 29 33 36 35 35 36 32 28 32 31 26 30 26
40 36 35 35 35 36 37 38 39 40 40 43 44 38 37 39 41 40 26 21 20 24 32 50 54 61 51 57 37 39 43 45 32 36 35 32 38 41 36 37 32 32 32 31 35 28 31
36 36 34 35 35 36 38 39 40 41 42 43 44 39 40 41 36 29 22 21 26 30 32 32 42 53 53 50 54 52 44 46 41 27 35 31 40 44 41 36 42 38 36 30 33 37 36
36 36 35 35 35 36 37 39 41 42 44 46 49 46 44 42 37 33 31 28 26 29 33 30 33 39 59 53 49 49 46 45 45 45 42 35 40 45 45 40 37 40 33 33 33 41 37
37 37 37 37 36 38 37 38 41 44 47 50 55 51 48 42 35 40 39 35 30 29 32 35 32 31 40 60 54 51 48 42 42 43 45 44 44 45 46 40 44 38 32 35 30 32 38
39 38 38 40 43 44 45 44 44 46 48 53 57 54 52 48 48 45 45 39 35 31 36 38 30 21 27 60 63 51 55 45 39 41 47 49 47 48 49 46 45 48 48 31 34 31 28
39 42 44 46 48 49 49 51 52 52 55 58 59 55 57 55 53 50 39 36 36 42 40 41 32 30 29 27 53 66 65 57 45 39 42 50 48 49 48 45 43 52 50 48 41 38 29
46 49 52 54 55 56 55 55 57 57 56 58 62 60 62 62 58 50 45 43 44 48 44 44 41 35 25 28 40 55 63 61 48 52 44 52 46 48 51 48 52 43 45 49 48 37 34
54 55 55 56 56 56 57 58 60 60 58 52 54 55 55 54 54 53 52 49 52 52 51 46 43 33 30 35 37 43 52 61 57 43 31 32 40 40 47 51 48 48 49 42 48 46 41
60 61 61 61 63 65 66 64 66 65 58 55 57 57 56 60 55 44 48 52 54 53 51 54 45 40 34 35 40 45 50 57 65 52 39 49 34 47 62 49 49 47 48 43 46 50 45
49 49 49 50 50 50 51 51 49 49 51 52 56 63 68 63 57 55 50 48 48 49 49 51 47 40 37 37 40 40 47 53 54 60 56 50 34 33 55 56 41 46 41 36 45 41 33
40 43 45 46 47 50 53 54 57 58 60 58 55 63 58 68 53 50 48 47 46 47 48 48 45 44 41 41 38 41 42 46 38 47 59 57 49 38 48 44 44 44 35 39 43 36 27
26 28 32 37 41 45 47 48 48 49 52 55 60 62 69 60 51 45 45 44 39 40 35 45 48 36 44 42 40 41 37 48 44 30 39 52 52 44 32 42 40 40 40 40 35 40 42

GFSGBSN_500_spd_048.txt.gz
Wind_Speed
56 59 61 60 63 64 64 67 66 64 63 62 57 57 53 48 45 43 42 41 40 38 36 33 33 30 29 20 23 19 23 22 23 23 19 17 14 13 13 15 19 22 14 5 2 4 7
52 54 56 57 59 63 64 65 62 60 64 60 65 55 51 51 50 46 44 44 43 39 37 35 35 33 28 19 29 22 20 22 20 22 21 18 16 12 13 15 18 20 8 3 4 9 9
38 39 44 47 50 56 60 58 58 61 60 58 57 59 59 56 54 51 48 46 45 42 39 37 37 35 27 25 30 20 22 22 20 22 21 22 19 13 12 14 17 17 7 8 5 9 11
35 37 37 35 30 32 43 47 53 55 57 57 59 58 61 60 57 58 51 45 45 44 41 41 37 36 24 33 31 22 23 24 22 22 22 21 19 17 15 14 16 15 10 8 6 7 8
37 37 36 32 36 35 28 24 35 40 47 54 57 56 61 60 59 56 53 48 48 44 43 44 40 35 25 32 31 27 21 22 23 23 22 18 16 17 16 14 15 16 12 13 14 11 5
41 41 39 38 33 32 32 34 30 22 29 43 44 46 53 60 58 56 54 54 58 47 45 43 42 40 31 33 31 28 25 25 24 23 20 18 16 15 16 14 16 14 12 14 17 14 6
44 44 44 43 42 38 34 31 32 31 28 27 21 24 28 33 32 39 44 42 49 51 47 43 44 39 34 37 34 32 30 27 26 20 18 23 13 9 20 18 17 15 14 16 19 13 12
50 49 49 49 45 43 40 37 35 33 31 31 29 30 25 27 23 28 27 31 43 49 47 42 43 37 32 37 36 34 34 32 29 21 25 25 11 18 23 20 19 16 14 15 19 14 13
55 54 53 52 51 49 47 44 41 37 35 35 35 32 30 28 33 29 33 32 36 47 44 32 36 41 29 44 31 34 36 34 32 30 26 25 14 26 23 23 21 16 16 13 14 20 23
60 59 58 57 55 54 52 50 48 43 40 39 37 38 36 35 34 37 35 35 35 34 40 28 32 38 36 35 38 28 34 34 35 31 28 30 24 27 26 22 21 19 18 13 19 21 26
64 63 63 62 62 59 56 55 52 50 48 45 43 41 40 41 42 42 39 38 35 35 40 31 34 36 36 36 27 25 29 37 35 28 34 23 24 26 27 20 25 21 19 14 16 22 21
68 68 68 68 66 63 60 58 55 53 53 52 50 47 45 42 44 43 40 40 40 39 43 33 32 33 32 33 30 30 34 32 32 35 38 32 29 32 28 26 27 22 18 19 18 19 18
72 73 70 66 63 60 57 57 57 56 54 54 54 54 52 45 45 45 43 42 43 42 41 40 41 37 35 30 28 27 32 35 32 33 34 30 32 31 31 30 27 26 21 23 22 21 13
69 67 65 63 60 55 52 51 53 55 54 54 54 55 56 47 49 48 45 45 45 44 42 47 43 45 41 39 34 33 33 34 31 30 31 33 32 30 27 26 26 27 25 24 23 22 18
63 63 61 59 57 55 52 49 50 52 51 53 53 54 54 43 49 50 52 51 47 45 48 50 51 51 49 43 40 42 41 37 34 29 30 32 32 28 30 27 28 27 31 22 29 25 21
63 62 61 60 56 53 50 45 46 46 47 48 50 50 44 45 48 49 56 52 51 48 46 50 46 51 51 46 43 43 42 39 39 35 30 28 32 29 32 31 34 31 24 29 32 26 24
64 59 57 55 51 47 44 43 43 41 42 43 44 46 39 43 45 51 53 50 42 38 40 46 46 48 50 44 48 46 44 46 41 37 35 31 32 27 35 41 37 35 34 33 35 33 29
55 51 49 46 45 45 44 42 41 40 38 36 37 42 41 42 43 44 44 39 33 29 33 37 48 52 54 47 45 46 39 46 48 47 45 37 30 33 35 38 39 38 36 36 40 36 29
48 44 42 42 36 33 33 34 35 35 35 34 39 38 40 40 39 35 34 34 35 34 29 26 27 41 50 52 48 49 45 44 48 50 49 44 42 39 37 41 42 44 42 40 38 39 37
41 40 35 33 33 33 31 30 30 30 31 38 41 40 40 37 33 34 36 35 34 33 33 32 26 23 30 51 55 50 47 45 47 44 51 48 51 49 45 38 42 44 42 40 40 41 39
34 31 31 32 32 32 34 35 35 36 37 42 44 40 37 33 34 36 34 30 28 25 27 28 25 21 24 24 49 57 49 48 44 46 42 40 46 51 51 44 44 44 42 39 42 41 43
30 31 32 34 35 36 36 38 39 38 39 45 41 42 40 38 37 35 36 31 31 32 29 26 23 22 22 18 29 57 61 60 52 42 44 43 35 47 54 52 48 48 46 45 45 44 44
32 32 34 35 37 37 37 39 39 40 43 45 42 43 43 42 41 39 31 30 35 38 36 31 30 28 25 23 28 32 55 55 55 48 59 50 43 50 52 49 49 54 50 49 46 46 46
34 36 37 37 37 39 41 43 44 45 47 47 47 45 47 47 45 33 40 40 36 35 38 38 37 34 27 28 30 29 34 57 59 56 63 50 43 36 50 53 49 48 48 48 48 47 46
38 40 41 43 45 46 45 46 48 49 51 52 52 53 51 50 43 46 42 41 42 41 40 41 43 40 33 32 34 30 30 32 36 51 59 57 44 43 36 55 50 52 45 43 47 46 50
47 49 50 51 52 52 52 52 51 50 50 54 57 55 56 53 50 46 48 47 44 41 42 40 43 45 38 36 35 31 28 29 33 48 61 66 59 49 30 41 52 47 43 45 50 47 48
54 55 56 58 58 59 59 56 55 52 49 49 52 51 56 59 49 53 51 50 48 46 46 46 42 44 44 41 37 36 36 33 32 35 47 64 62 64 53 37 33 53 47 45 47 50 48
35 36 38 40 43 48 53 54 55 55 54 54 54 53 52 56 48 50 49 49 46 46 44 41 45 49 48 46 42 39 38 38 33 35 36 45 54 60 51 46 21 20 35 52 45 49 49
33 34 36 39 42 46 46 46 47 48 50 51 51 49 53 54 52 50 49 50 42 41 38 37 43 43 42 44 44 42 41 39 35 34 37 40 43 56 57 55 30 25 22 50 47 40 40

GFSGBSN_500_spd_051.txt.gz
Wind_Speed
50 50 51 51 52 53 58 59 59 60 61 63 62 61 58 60 60 57 53 50 46 45 44 44 41 39 38 31 24 35 25 27 23 22 22 22 20 18 13 16 14 14 18 18 12 12 4
44 43 44 44 43 44 49 53 54 58 62 63 62 63 57 61 64 57 59 54 50 48 43 42 41 40 38 31 33 37 25 28 24 23 22 23 25 20 14 17 16 15 16 17 15 9 5
39 37 37 36 33 36 35 38 42 48 47 53 56 56 57 57 60 56 57 58 56 49 46 44 43 41 35 32 37 35 27 28 26 24 24 25 25 21 17 18 16 16 17 18 17 9 7
35 33 31 33 30 31 33 36 34 34 35 39 47 48 51 51 55 64 57 47 48 50 49 49 47 45 36 36 38 35 34 29 28 26 26 26 24 21 21 21 16 15 20 19 18 14 12
35 34 33 34 34 33 33 32 33 33 34 26 30 35 45 51 54 49 52 54 55 51 50 51 49 44 34 38 37 37 32 31 32 26 28 25 21 20 22 21 18 17 20 19 20 17 15
36 35 34 36 37 37 36 35 35 34 31 32 27 23 34 45 49 50 51 52 56 56 55 50 51 46 36 41 37 36 34 34 32 30 30 23 20 20 21 19 18 21 20 19 21 20 17
40 39 37 39 41 40 39 38 37 36 34 31 27 28 20 28 30 40 47 50 54 56 56 52 50 48 40 43 41 39 36 33 36 31 28 25 19 10 17 25 27 22 19 20 23 25 21
45 44 42 44 44 44 43 41 40 39 38 33 30 24 27 27 23 19 29 46 55 55 54 53 51 45 42 43 45 44 40 37 37 30 31 28 14 17 25 24 25 25 20 18 22 23 25
49 48 47 49 50 48 47 46 44 40 39 37 33 30 28 28 29 25 22 25 35 48 51 46 45 45 39 45 41 42 43 41 38 37 33 30 21 26 28 22 23 25 21 21 22 25 29
53 52 52 53 54 53 52 50 47 45 43 40 39 34 33 33 29 32 26 30 27 33 41 26 39 40 44 46 43 36 42 41 42 38 34 39 28 31 31 22 21 20 23 24 25 27 28
56 56 56 57 57 56 56 55 53 52 51 45 44 41 36 35 36 34 34 29 31 25 39 24 35 43 44 43 36 32 35 39 39 34 38 32 27 30 35 20 27 18 27 28 28 29 24
58 58 58 59 59 59 59 59 58 56 54 51 46 45 42 38 39 37 37 37 35 31 38 25 28 32 35 35 33 33 42 36 34 39 40 38 33 37 34 30 32 25 30 30 32 32 23
60 60 60 60 61 63 62 61 61 58 56 52 50 49 46 45 43 42 41 41 41 37 35 34 33 27 28 30 33 33 38 36 37 36 35 35 36 38 38 35 31 31 30 30 33 33 22
62 62 61 62 63 64 64 62 59 58 54 51 51 51 50 48 48 46 45 44 42 40 41 45 37 35 35 31 29 28 34 38 38 36 34 34 33 35 35 33 28 28 30 34 33 32 26
61 60 61 62 63 63 63 61 58 55 54 51 51 52 51 51 51 50 50 49 44 44 48 47 48 46 39 40 35 34 35 36 36 36 35 36 34 33 34 33 33 33 37 30 34 34 30
59 58 59 61 63 64 65 62 59 55 52 51 51 55 52 51 54 53 54 51 49 50 49 49 49 48 48 43 40 40 41 41 36 33 32 33 34 32 33 37 39 38 34 35 36 37 31
56 56 60 62 67 68 64 58 55 51 49 49 51 54 49 50 52 55 53 54 54 51 45 44 41 43 48 46 45 45 42 45 44 43 43 39 37 32 36 42 39 38 39 39 37 38 33
56 59 61 66 61 56 51 48 47 46 44 46 46 50 48 46 50 53 52 53 51 46 42 42 44 46 47 46 44 45 47 49 50 48 48 47 44 40 39 39 42 42 42 40 42 40 39
57 59 64 56 48 46 44 42 40 41 42 42 45 44 44 41 49 48 48 45 44 39 34 34 42 47 49 49 47 44 40 45 50 53 50 48 48 47 42 41 45 45 46 43 42 41 43
57 61 54 51 47 41 39 40 38 36 34 35 39 41 40 40 39 37 40 37 37 32 35 34 37 37 44 53 50 47 44 44 48 50 51 51 51 51 49 45 44 46 45 43 42 44 43
62 57 49 40 40 41 37 32 30 31 32 35 38 39 36 32 29 29 33 31 33 32 33 34 31 26 27 41 58 51 48 46 43 45 44 49 51 53 53 48 48 49 47 44 44 43 44
49 41 40 42 37 32 29 30 29 28 32 40 32 32 31 27 28 29 30 30 32 32 30 29 28 30 33 27 33 56 59 48 48 48 46 40 45 50 51 51 47 49 48 48 48 47 46
47 45 38 33 32 32 32 33 34 38 44 45 42 39 38 33 28 27 28 29 29 28 26 25 26 31 31 30 30 29 40 59 57 50 50 51 51 41 47 48 51 53 49 51 52 52 50
35 31 32 32 33 33 35 35 37 42 45 43 44 42 41 35 28 28 30 30 31 28 27 24 28 27 28 29 27 26 27 28 39 54 55 49 52 52 47 40 41 46 52 47 47 53 52
33 33 33 35 35 37 38 39 41 43 43 45 43 44 42 37 34 33 33 34 32 31 29 27 28 27 28 29 29 27 25 25 26 32 41 53 62 62 54 45 42 48 47 47 46 50 48
36 37 37 39 40 41 41 42 44 47 46 48 48 46 44 42 38 37 36 36 35 33 33 32 27 32 36 33 32 30 28 27 28 27 29 32 42 57 60 60 62 29 36 31 45 50 44
43 44 44 44 45 46 46 47 47 48 49 51 52 50 49 50 47 43 41 40 41 39 38 36 32 36 40 40 40 38 35 31 28 24 22 25 35 43 55 63 64 41 29 25 41 44 39
38 45 51 54 54 54 54 54 54 54 55 55 54 53 50 51 52 50 47 46 43 43 41 37 39 39 41 41 40 39 39 36 34 31 29 27 32 35 39 44 52 49 37 30 37 48 48
36 36 38 43 48 53 58 60 60 58 58 54 52 52 53 54 54 55 52 48 48 45 43 42 36 39 40 43 40 38 39 41 39 37 34 31 32 35 33 29 35 42 52 42 24 31 41

GFSGBSN_500_spd_054.txt.gz
Wind_Speed
51 51 50 51 51 52 51 50 48 50 49 52 52 55 58 58 58 58 58 56 53 51 50 49 47 48 44 39 31 36 35 31 31 27 28 27 22 22 21 19 18 15 18 16 19 14 8
50 49 49 49 49 48 46 43 43 44 41 42 45 51 51 55 58 59 58 54 55 55 52 51 47 47 45 38 35 36 35 30 31 29 27 30 27 23 21 19 21 18 17 17 17 16 13
48 47 48 46 42 41 38 39 37 36 36 37 34 41 43 44 45 52 56 52 52 52 56 51 52 50 43 37 37 36 36 33 33 31 29 31 28 24 20 21 24 21 18 19 17 14 17
46 45 43 39 38 36 35 34 35 34 33 31 32 37 38 39 36 44 46 50 50 47 52 59 56 51 45 40 35 36 39 35 35 33 33 32 29 25 20 22 26 24 21 22 19 14 17
44 42 39 38 37 39 37 36 35 34 33 32 32 32 33 35 33 38 42 46 44 46 46 56 56 52 46 42 40 37 40 36 38 36 35 33 29 28 22 21 27 25 24 26 21 17 16
43 41 39 37 39 39 37 37 36 36 36 35 32 32 32 32 31 24 29 39 43 39 47 47 44 45 45 43 43 40 40 38 39 38 38 32 30 28 22 20 20 28 29 27 21 21 17
43 42 41 41 41 41 42 40 39 38 38 37 34 34 32 31 29 28 25 30 36 40 39 45 48 53 48 43 44 42 43 40 40 39 35 34 31 20 18 21 26 34 29 24 22 25 20
46 45 45 45 44 45 45 43 43 41 40 39 36 33 32 31 31 28 25 23 30 37 42 46 48 44 48 47 47 46 45 43 43 40 37 37 24 21 25 24 23 26 27 23 23 25 25
50 49 48 47 48 48 48 46 45 45 43 41 38 36 31 30 33 33 28 22 20 31 41 37 46 45 49 52 47 49 47 46 43 41 40 35 27 28 28 27 25 22 20 23 23 28 27
51 50 49 49 49 50 50 49 48 46 46 44 41 39 37 31 31 34 32 29 26 20 29 20 34 41 42 49 48 46 47 46 47 43 39 40 35 33 32 30 28 19 22 27 26 28 26
53 52 51 51 52 52 52 51 49 49 48 48 45 43 41 37 32 33 32 34 31 22 30 18 28 27 38 42 44 42 44 44 46 44 44 41 34 36 35 27 31 14 29 29 30 28 28
56 54 53 53 54 53 54 53 53 52 52 51 49 48 45 42 36 37 33 35 35 32 33 22 22 25 27 39 41 39 39 38 40 42 47 44 39 41 34 32 36 27 34 33 33 29 28
57 57 57 57 57 56 56 55 55 54 55 54 53 52 49 44 40 37 38 38 40 40 33 30 27 21 21 27 34 34 36 42 37 41 45 41 41 41 39 39 39 31 34 35 35 30 26
61 61 61 60 59 59 58 57 57 56 56 57 57 57 52 46 44 42 42 42 42 44 41 41 32 26 27 23 31 31 38 42 41 39 37 38 39 39 37 36 33 32 34 36 33 35 30
64 65 64 63 61 60 59 58 58 57 56 59 60 60 54 48 47 46 47 48 47 48 46 43 42 41 29 32 26 29 31 38 39 39 39 37 36 37 37 33 35 35 38 30 35 36 36
67 65 64 62 60 60 58 57 58 57 59 60 62 62 59 55 53 51 52 51 52 52 52 46 43 42 39 33 34 31 34 35 36 42 40 38 36 35 37 37 39 40 37 37 39 40 40
61 61 59 58 58 57 55 55 55 57 60 64 66 66 60 58 56 57 55 55 56 54 54 47 43 40 38 39 39 38 38 39 38 39 39 40 42 38 40 40 39 38 40 40 39 41 41
61 59 58 57 55 54 53 53 54 58 60 58 56 59 53 52 56 59 56 56 57 51 55 48 45 42 41 42 41 39 42 44 42 40 41 40 41 39 43 42 37 39 41 43 44 42 41
63 61 58 56 54 54 52 53 55 55 48 47 47 46 44 48 53 54 54 52 51 47 47 46 42 44 44 42 44 47 47 48 46 46 45 44 46 44 39 41 44 44 45 44 44 44 43
63 60 58 54 52 52 52 54 54 49 48 46 44 44 44 46 47 46 46 44 43 40 39 39 37 41 47 49 48 48 48 50 49 47 47 47 48 47 45 42 45 45 45 46 46 46 46
58 58 55 52 51 51 54 54 49 42 40 44 45 43 42 43 41 40 39 35 34 32 32 31 31 39 44 51 56 52 50 53 51 48 49 50 49 50 49 45 47 47 48 47 48 48 46
54 54 51 50 50 51 48 44 37 39 41 42 43 41 38 37 35 31 33 29 27 29 28 28 29 34 39 40 42 51 53 48 47 49 45 48 45 45 48 49 46 48 49 48 49 51 50
45 47 47 48 50 45 41 40 43 40 38 38 36 33 32 31 30 34 29 24 23 26 27 27 30 32 36 36 33 34 48 56 49 50 50 47 47 47 47 45 47 49 50 50 53 52 53
42 44 46 46 45 45 46 43 38 37 35 34 31 28 29 25 25 25 24 23 23 21 25 25 25 27 34 36 33 29 27 35 53 50 48 49 43 48 43 40 45 44 42 48 49 49 50
40 41 40 37 35 33 33 34 36 37 38 37 36 35 32 29 29 27 23 20 22 23 25 27 23 24 31 34 32 28 26 24 23 25 44 55 53 54 50 56 46 42 36 35 42 46 45
34 33 32 32 31 32 34 36 38 39 36 38 39 39 37 35 29 29 26 22 20 22 27 25 22 23 28 29 29 28 27 24 24 23 22 25 30 42 42 54 54 44 50 45 40 40 29
31 33 34 34 34 35 37 38 40 40 39 38 36 36 37 37 32 31 27 23 22 24 26 26 24 26 28 30 30 29 28 27 24 22 24 24 24 21 25 31 26 29 53 58 57 49 42
24 30 34 36 38 38 39 40 41 43 43 43 39 38 39 38 34 34 32 29 26 24 27 27 28 28 28 29 31 31 30 29 26 25 24 24 23 20 21 23 23 26 31 38 44 57 51
27 28 30 35 41 43 44 44 44 45 46 47 46 44 41 41 39 37 35 33 30 26 27 28 26 30 31 32 30 28 30 32 31 31 31 31 30 29 26 21 24 26 31 35 36 44 58

GFSGBSN_500_spd_057.txt.gz
Wind_Speed
56 57 57 56 52 47 47 45 46 46 48 46 46 47 46 47 49 52 54 53 54 55 52 50 49 44 45 41 37 38 37 34 31 30 30 25 25 23 26 26 21 15 18 13 17 17 15
56 57 56 54 50 47 46 47 46 46 43 40 39 40 44 41 42 47 51 53 52 54 53 51 52 48 47 41 40 40 38 34 33 31 32 28 27 25 25 26 22 18 19 17 19 17 16
56 54 53 50 47 46 46 45 44 42 38 35 36 39 39 39 39 42 43 44 42 45 51 51 51 49 46 40 44 40 41 37 33 32 33 30 28 26 23 26 22 21 21 20 21 16 17
53 50 50 46 46 46 44 42 41 38 37 37 38 37 35 36 37 42 43 44 38 39 42 45 47 44 41 48 44 38 42 39 33 34 36 35 30 27 24 25 25 23 23 22 24 18 16
53 48 46 45 46 44 43 41 39 37 36 36 37 37 36 36 36 37 38 38 39 34 38 41 45 44 40 49 46 43 39 36 36 36 37 35 29 28 25 23 27 26 23 25 28 20 17
51 48 47 46 45 43 43 41 39 39 38 38 39 38 36 36 34 36 35 34 34 27 29 38 41 43 46 48 51 47 42 36 36 38 40 36 31 29 23 24 22 25 27 28 25 23 19
49 48 48 48 46 44 44 42 41 41 41 41 40 40 37 36 35 34 33 33 32 24 22 29 38 43 42 43 48 47 43 41 42 42 40 37 36 26 21 20 27 30 28 24 22 25 21
49 49 49 48 48 47 47 45 45 44 43 43 42 41 38 36 34 33 33 31 29 24 12 25 34 39 40 40 39 49 41 43 45 43 38 42 35 25 29 26 28 30 28 22 21 26 25
51 50 50 50 51 50 49 49 47 45 45 44 44 43 40 37 35 34 31 31 29 24 18 12 24 31 35 43 33 37 42 42 40 44 40 40 32 34 32 27 27 28 24 23 21 25 26
54 53 52 52 52 51 51 50 48 46 46 45 44 43 42 39 37 34 32 32 30 26 27 18 23 24 29 35 34 36 43 42 39 46 40 43 39 37 34 31 29 29 25 24 22 28 27
56 55 55 54 53 54 53 51 50 48 48 47 46 47 44 41 39 36 34 33 31 29 31 17 16 16 22 26 31 33 41 42 41 44 47 40 35 37 36 30 33 28 27 29 29 30 23
58 57 57 55 54 54 53 53 51 51 51 49 48 48 45 43 41 37 36 35 33 33 30 24 18 17 16 21 23 32 36 44 43 47 48 45 41 42 38 32 35 33 33 35 33 31 24
60 59 58 57 56 55 54 53 54 54 53 52 51 50 47 46 43 41 38 39 37 36 31 29 23 22 18 18 22 21 34 41 41 43 45 42 43 42 38 38 38 37 39 37 38 32 22
62 61 60 58 57 56 56 56 56 55 54 54 53 51 50 48 47 44 42 42 43 41 36 34 32 27 24 23 19 24 27 36 38 36 36 33 39 43 41 40 35 36 37 40 35 34 29
67 65 63 61 60 59 58 59 57 55 55 55 54 53 51 52 48 48 46 46 45 42 41 38 37 32 33 24 28 19 28 29 32 33 37 29 29 35 39 38 38 39 42 36 37 39 34
69 67 65 63 61 61 60 59 58 56 54 55 55 55 52 52 52 52 52 51 47 47 45 42 40 36 37 36 27 30 26 29 30 36 37 34 31 31 34 38 40 41 39 39 42 40 35
73 70 67 62 59 57 56 55 55 54 53 55 55 55 51 53 55 57 57 56 52 48 48 45 42 39 37 34 36 31 33 29 29 30 35 37 38 39 39 38 38 37 40 41 39 39 38
77 74 71 68 65 60 56 52 52 53 53 53 53 54 51 53 56 59 58 58 54 49 50 50 47 41 41 38 36 38 36 37 32 33 35 35 41 38 39 38 34 34 38 39 42 42 40
74 74 74 71 66 62 58 55 52 52 53 53 52 49 48 52 55 55 54 53 56 45 48 52 48 42 41 40 39 39 40 42 39 35 35 36 38 37 39 38 35 37 37 39 41 42 43
74 73 70 67 63 59 57 55 53 53 53 54 50 48 49 53 51 49 48 47 45 38 43 47 43 39 40 43 45 44 42 44 46 45 39 38 38 38 38 38 39 43 43 43 44 44 44
54 62 64 64 61 58 55 54 53 50 52 51 49 49 52 51 47 42 41 40 36 34 37 37 36 33 35 43 48 49 47 47 45 46 46 44 43 40 39 38 36 38 39 41 44 45 46
36 42 46 51 53 52 52 51 47 47 50 50 50 51 44 38 37 38 36 34 31 28 29 30 29 28 32 39 45 50 50 50 50 50 50 50 47 46 44 43 41 42 41 42 43 45 48
29 30 38 43 45 47 48 46 45 47 50 48 46 38 36 36 35 32 29 25 24 29 28 28 27 28 32 37 44 45 53 50 48 48 45 45 44 43 43 43 43 46 44 40 39 43 45
26 28 29 32 36 39 39 41 44 46 46 43 38 37 37 31 30 24 21 22 28 28 25 23 25 24 29 32 35 35 39 46 50 50 50 48 46 44 41 35 41 39 37 40 41 41 44
24 25 27 29 32 34 37 40 42 43 44 42 40 35 28 21 18 20 20 26 30 25 22 18 15 20 23 28 30 30 31 31 32 38 45 47 45 43 44 44 43 41 36 35 35 33 32
20 21 24 28 30 33 36 38 39 39 40 38 33 28 23 18 19 16 24 27 21 17 16 14 13 23 23 21 26 31 30 27 24 22 26 36 43 44 42 46 41 39 41 42 40 40 43
17 18 23 25 25 27 28 28 29 31 33 33 32 28 26 22 21 21 18 17 18 16 15 16 17 22 25 23 25 30 27 27 24 21 21 20 20 20 22 22 20 19 27 35 44 51 52
22 20 18 19 23 26 27 27 29 32 33 33 32 29 26 22 20 20 20 20 18 17 17 16 21 26 25 25 24 24 27 26 24 22 21 20 19 18 16 14 15 20 26 26 28 29 39
24 21 20 21 25 26 30 32 33 34 35 36 34 28 24 26 21 22 21 21 20 20 17 14 23 26 26 26 24 24 26 25 25 24 23 21 20 20 18 18 17 19 22 23 23 25 30

GFSGBSN_500_spd_060.txt.gz
Wind_Speed
56 57 57 54 54 52 51 50 49 47 46 45 43 46 45 46 45 45 42 42 43 44 48 47 45 45 48 47 48 47 43 40 35 35 34 33 29 30 29 27 23 17 17 21 22 22 16
56 58 56 55 53 53 51 49 48 47 46 44 44 45 46 44 42 40 39 40 42 46 47 51 44 45 48 50 51 56 42 42 38 37 35 33 31 33 30 27 23 19 19 22 23 24 17
54 54 54 54 54 51 49 47 47 47 45 45 44 45 41 40 39 39 41 41 42 42 43 45 45 40 41 49 49 53 46 45 41 38 37 36 35 32 30 29 26 21 20 23 24 25 20
56 56 56 57 49 47 48 46 47 46 45 44 43 42 39 38 37 40 41 42 40 41 42 43 44 41 40 46 49 49 46 43 43 41 38 37 36 33 30 29 26 23 22 21 23 27 23
51 54 54 52 49 47 46 47 48 46 46 44 42 42 40 38 39 39 40 39 39 40 39 39 41 36 37 38 46 46 46 44 47 44 41 40 37 33 31 30 27 25 20 19 25 27 25
48 52 52 53 50 48 48 46 47 47 46 44 43 42 41 39 39 39 39 39 38 37 37 36 36 28 33 36 41 45 45 42 49 48 45 41 38 34 32 31 22 22 19 22 27 26 23
52 53 53 53 50 50 50 48 47 48 48 46 45 44 42 41 40 40 38 36 38 34 34 32 34 27 30 33 37 43 41 40 40 47 47 38 39 37 26 28 26 24 27 25 27 27 21
53 51 51 51 53 52 53 51 50 50 50 47 48 46 43 41 41 39 38 35 35 33 24 38 31 29 22 29 34 41 42 40 40 44 40 43 42 31 31 33 30 28 30 26 25 24 25
56 53 51 51 51 52 53 52 52 52 49 49 49 48 43 41 40 40 38 37 36 32 25 26 29 33 26 25 33 40 34 36 44 48 46 44 36 34 34 35 32 28 29 24 22 23 26
57 55 54 54 53 53 55 54 53 51 51 52 50 48 44 41 40 39 38 38 37 33 28 27 26 21 25 20 14 26 27 32 45 50 46 44 40 37 38 37 31 32 28 28 25 25 25
61 59 58 57 57 55 56 55 53 53 53 52 50 48 45 42 41 40 41 39 38 36 32 26 24 20 20 20 16 21 23 32 46 48 46 42 42 39 36 31 33 26 35 30 27 28 29
61 60 59 59 57 57 56 54 54 53 52 52 51 49 46 44 43 42 40 40 38 37 34 28 24 23 23 21 17 13 20 27 33 42 45 41 42 42 42 36 35 36 38 33 31 32 30
63 63 61 61 59 58 57 55 54 53 52 52 51 50 46 46 45 44 43 40 40 37 33 30 25 24 22 24 17 16 17 18 28 36 41 40 43 42 42 41 39 39 38 35 36 41 29
69 70 67 65 63 59 58 56 55 54 53 53 52 49 48 48 46 46 45 42 41 40 33 30 26 27 24 21 22 16 17 21 20 31 37 36 40 42 46 41 36 34 34 35 40 40 30
75 74 71 68 66 64 60 58 56 54 53 53 52 50 48 47 48 47 46 45 42 41 37 32 28 26 29 27 22 22 18 20 22 21 37 37 35 38 46 44 39 39 45 40 40 41 37
76 76 74 71 67 63 60 58 56 55 55 55 53 50 48 50 48 49 48 46 43 41 42 37 32 29 28 29 28 26 25 23 23 22 31 34 34 32 32 41 43 43 45 42 43 43 42
64 66 70 73 72 70 65 61 55 53 53 52 51 51 49 49 51 51 50 47 45 42 44 41 37 33 30 31 30 33 32 27 26 23 25 28 29 33 31 35 33 39 42 42 44 43 40
65 67 67 67 67 69 67 64 60 56 54 49 48 47 48 50 51 51 50 47 47 42 44 45 41 38 33 33 35 32 34 36 30 27 24 24 28 28 31 31 31 33 37 39 42 41 41
53 57 62 67 68 66 64 63 62 57 56 54 49 45 47 49 50 48 47 48 48 46 42 41 43 41 37 36 38 39 35 35 33 31 28 24 30 31 30 37 37 33 34 36 39 39 44
42 44 46 49 58 64 63 60 57 55 53 52 50 47 46 48 46 47 46 45 44 42 43 44 45 42 41 39 40 41 40 36 34 35 32 32 24 30 34 37 37 32 32 32 34 36 36
40 39 38 37 40 49 53 54 54 52 51 51 48 45 45 45 44 44 44 45 43 44 41 42 43 39 39 40 40 42 41 42 41 41 38 34 34 28 32 34 36 35 34 33 35 34 36
36 36 34 33 31 36 43 45 48 50 49 50 47 45 45 43 41 41 43 42 42 36 36 35 32 32 34 38 41 48 46 46 48 44 42 44 37 34 32 30 32 34 32 29 30 31 35
33 32 30 27 28 29 38 43 45 46 47 44 43 42 41 39 38 39 39 32 30 28 31 29 26 28 27 32 40 45 51 51 50 48 46 42 40 39 35 35 36 36 31 31 33 31 32
32 30 27 24 24 27 29 36 40 42 42 41 39 37 39 35 35 29 27 28 26 25 24 26 23 22 24 29 34 39 46 52 53 51 49 44 41 39 36 31 38 38 33 34 34 35 40
24 25 24 22 22 23 28 30 34 36 37 37 36 35 34 31 29 28 28 29 26 25 25 27 22 23 14 24 28 31 36 44 47 50 49 46 46 39 37 39 40 38 33 27 29 33 33
18 17 17 16 20 22 25 27 30 32 33 36 34 32 32 29 23 24 25 28 25 25 29 29 19 17 19 22 22 26 27 34 36 37 43 48 47 45 45 46 42 38 37 36 31 33 39
15 15 13 12 17 20 23 26 28 30 31 32 32 31 31 26 26 26 28 26 30 32 31 24 16 14 21 26 20 23 25 28 26 29 28 30 35 36 39 40 40 33 36 37 39 40 38
18 18 17 13 13 17 20 23 26 28 28 30 30 25 24 28 29 29 31 35 35 26 23 18 14 20 26 25 21 21 24 25 25 24 23 20 19 18 18 19 20 18 19 21 25 24 25
19 19 18 17 17 16 18 22 25 28 29 31 25 28 31 33 26 32 33 28 22 20 19 16 20 24 27 25 23 20 21 24 24 24 23 20 18 18 19 20 19 17 16 15 14 14 15

GFSGBSN_500_spd_063.txt.gz
Wind_Speed
53 51 50 48 49 50 53 55 58 56 52 49 47 44 43 43 43 44 45 45 46 48 46 42 44 44 45 44 44 44 48 47 45 51 41 40 38 35 35 32 32 31 29 24 26 25 23
51 54 55 56 54 53 54 54 52 54 54 49 46 43 40 42 44 43 46 47 48 46 44 42 41 43 47 46 43 42 46 48 48 50 44 42 39 37 36 36 34 32 31 25 25 25 25
53 56 55 55 53 52 52 52 51 52 50 45 44 43 42 42 43 43 45 48 48 46 44 41 40 45 48 47 45 42 43 50 49 47 47 45 43 41 39 36 33 32 31 27 25 25 24
51 52 54 53 52 50 51 50 49 46 45 43 42 43 44 43 42 43 44 46 45 46 44 40 42 45 45 45 48 41 42 51 46 39 46 44 44 43 42 39 34 33 32 26 23 24 24
49 51 51 50 50 48 46 43 46 45 46 44 44 44 43 44 43 42 43 43 45 44 42 40 42 45 44 41 42 37 38 46 44 45 52 48 46 44 41 37 34 32 28 25 23 24 23
50 47 49 49 48 49 48 46 47 48 46 46 44 45 43 44 44 42 42 44 43 44 41 40 42 43 40 39 43 34 36 38 42 45 53 49 47 45 43 41 34 30 28 22 22 21 25
48 50 51 48 49 51 53 51 47 48 47 47 45 44 44 44 45 44 44 43 45 44 38 39 41 37 40 35 39 30 29 34 38 41 39 51 51 48 43 39 32 32 21 19 24 20 28
52 52 53 52 53 51 53 49 50 50 50 48 47 46 45 45 45 45 45 44 43 43 36 37 38 36 35 36 30 29 27 34 40 37 42 56 53 50 46 40 37 34 28 28 27 25 25
55 55 56 55 54 56 55 50 49 50 51 51 49 48 49 49 47 47 46 44 42 41 38 37 37 34 34 29 25 29 22 30 36 35 41 46 50 49 48 43 39 32 29 28 28 22 25
54 56 56 55 55 57 55 53 53 52 53 52 51 51 50 51 47 47 45 43 40 39 38 38 35 36 30 27 26 27 18 26 34 35 36 42 49 50 46 43 40 33 29 29 34 28 26
56 57 55 57 58 58 57 56 56 56 55 52 52 52 51 50 48 46 44 41 39 39 36 37 33 32 29 26 26 26 25 19 26 34 40 41 46 46 45 43 39 32 33 36 36 27 28
59 58 61 60 60 59 57 57 56 55 57 53 53 51 51 49 47 47 44 42 40 39 41 35 33 31 29 24 24 25 22 17 26 31 37 46 47 51 45 42 40 34 38 39 35 26 33
61 64 65 67 67 64 64 62 58 56 55 55 53 51 49 48 46 45 44 43 41 39 38 36 31 29 28 25 26 21 22 21 19 27 36 43 51 49 44 42 41 40 38 34 31 31 31
65 66 68 70 71 70 68 66 64 59 57 54 53 50 49 47 46 44 44 44 44 42 37 34 31 29 27 24 25 23 21 21 23 14 22 35 47 48 46 48 44 40 39 37 30 28 29
68 70 72 72 72 71 69 67 64 60 59 56 53 51 48 46 45 46 45 47 42 40 37 34 33 29 29 25 25 25 23 22 22 17 16 22 30 35 43 44 46 41 42 35 30 22 30
68 67 66 62 61 61 60 63 65 61 58 57 55 52 48 47 46 47 47 46 41 39 37 36 34 32 27 29 25 25 28 27 23 22 17 13 25 30 35 39 44 43 35 37 37 35 31
55 53 53 54 56 57 57 59 60 61 61 58 53 51 50 50 51 51 50 44 41 41 39 37 37 34 31 30 28 27 28 33 26 23 22 16 14 26 32 37 36 40 44 42 39 43 32
51 51 51 52 55 58 59 61 61 59 59 59 56 51 48 50 51 50 48 43 42 41 39 39 37 36 33 33 31 29 31 33 28 25 23 22 18 19 16 23 29 32 40 40 37 29 37
45 45 46 46 44 42 43 48 56 59 59 57 57 53 50 48 47 46 44 43 42 40 40 39 38 38 36 33 33 33 33 33 29 31 28 30 22 15 18 22 30 35 27 29 35 40 26
43 42 42 43 43 44 44 43 42 52 55 55 53 52 50 50 44 41 40 41 40 39 40 39 37 36 36 34 36 36 34 34 28 28 28 31 28 22 25 25 16 30 25 32 33 34 35
40 39 40 39 39 40 41 40 39 43 47 49 51 48 46 46 43 41 39 38 38 38 39 38 38 36 34 34 34 35 38 38 34 34 33 30 26 26 23 24 32 23 30 33 31 27 30
38 40 39 38 37 37 36 36 35 37 42 47 46 43 43 43 41 39 38 37 35 35 36 36 37 36 36 38 37 36 40 43 41 41 39 32 28 27 28 24 23 25 25 24 24 22 21
40 38 38 37 35 33 32 31 30 34 40 43 41 41 43 43 40 39 37 34 33 34 34 34 36 37 36 32 38 40 40 44 47 46 46 40 36 30 33 27 27 25 24 25 24 25 22
39 37 35 33 32 30 29 26 28 32 35 40 38 38 40 38 36 35 33 32 30 30 28 28 31 31 26 26 29 37 42 47 52 49 51 47 46 45 37 26 28 29 28 25 25 24 26
29 26 22 19 21 25 25 24 25 28 34 35 34 36 35 35 34 32 30 27 27 25 23 21 22 25 25 23 26 29 34 44 50 52 52 54 44 38 43 41 39 38 32 29 25 22 27
22 21 18 16 21 19 21 22 22 26 29 33 32 33 34 32 31 28 27 28 26 18 19 23 23 21 25 22 24 25 23 27 36 47 54 52 53 47 46 44 40 37 41 30 24 24 36
18 18 17 16 15 16 17 20 21 26 28 30 32 29 32 32 25 26 28 28 27 22 21 25 24 24 25 18 19 21 22 19 23 27 40 51 52 51 48 45 41 34 41 32 32 35 44
18 18 18 18 16 14 14 16 21 24 27 29 27 30 30 28 23 26 25 24 24 27 27 30 33 25 17 27 22 19 21 21 22 18 21 30 36 40 42 43 45 47 43 39 41 39 36
19 18 18 18 17 16 13 16 18 22 25 26 27 28 23 22 24 30 31 33 33 32 28 26 25 17 22 23 21 19 17 19 21 17 18 22 23 23 27 29 28 28 25 25 24 23 24

GFSGBSN_500_spd_066.txt.gz
Wind_Speed
54 52 52 52 51 48 51 50 49 52 53 54 53 53 51 49 49 46 44 44 42 41 44 45 45 46 48 47 47 44 44 41 44 45 46 44 44 44 44 42 39 37 32 32 29 33 32
48 51 50 51 51 49 51 54 54 56 53 52 51 51 49 45 42 41 41 41 40 41 42 44 45 47 49 44 46 49 45 42 44 43 44 47 45 47 44 42 41 37 34 34 30 33 32
50 49 49 51 54 55 55 54 53 53 53 52 50 48 46 42 39 39 38 40 39 40 41 43 46 48 47 46 48 46 46 43 46 44 42 49 46 48 48 42 41 41 38 42 34 31 29
51 51 53 54 56 54 52 52 52 49 51 50 49 46 43 41 39 38 39 39 39 41 42 43 46 50 45 45 44 44 44 43 49 43 40 47 45 43 45 46 45 46 42 38 29 31 27
52 53 56 55 54 54 54 53 52 50 48 46 45 43 43 42 39 39 37 39 39 39 42 45 46 46 46 45 43 41 42 43 48 36 34 44 46 38 53 46 46 44 41 36 30 28 25
54 54 54 51 52 53 53 51 50 48 46 46 44 43 44 42 42 39 39 40 41 41 41 42 46 46 42 41 41 40 40 39 45 31 30 38 42 39 46 46 47 39 36 30 26 20 21
52 50 48 47 50 50 51 51 49 48 47 48 48 45 44 44 44 42 39 40 44 43 39 42 44 42 40 44 38 39 37 34 39 30 28 38 42 50 48 48 45 43 40 36 19 15 19
48 49 48 50 51 53 52 51 50 49 47 49 47 48 48 45 44 43 42 41 41 43 41 42 39 39 38 39 36 39 32 32 37 31 28 39 43 37 52 49 45 40 37 32 23 16 28
51 51 53 54 53 54 52 52 51 50 49 50 47 48 47 46 44 43 43 43 43 42 43 39 39 36 37 36 36 36 27 31 37 29 29 37 36 42 53 52 49 44 43 38 31 27 17
50 50 53 54 54 53 53 52 53 50 50 50 48 47 47 47 47 46 45 45 44 43 43 43 37 35 33 36 32 30 25 29 32 26 27 36 32 41 47 53 50 50 47 39 34 31 29
46 47 49 52 51 52 54 52 52 52 51 51 50 49 50 48 48 47 47 46 45 42 38 43 38 34 31 33 31 30 24 25 25 31 31 33 36 38 48 52 53 53 46 43 38 35 34
45 48 49 51 54 56 57 57 56 58 57 56 51 49 50 49 48 47 47 45 43 39 39 40 38 33 33 34 31 28 24 25 20 27 22 32 28 32 43 46 54 48 47 44 40 40 40
49 51 54 55 58 60 60 60 61 61 61 60 59 55 50 48 48 44 46 42 41 39 38 39 36 31 30 31 29 28 23 24 23 20 26 26 33 36 35 45 51 51 46 41 41 42 37
51 53 56 59 61 62 63 63 65 65 64 64 61 57 52 49 47 45 43 42 43 38 36 40 36 32 31 30 28 26 25 24 22 17 23 20 27 33 34 36 42 48 43 45 32 31 25
52 54 58 60 62 65 65 65 64 64 64 62 61 58 54 49 45 46 44 43 40 36 38 43 31 32 31 32 26 26 25 25 22 19 17 21 16 26 37 37 43 42 42 36 21 24 27
55 56 60 62 60 58 56 53 50 50 50 50 51 53 52 49 48 48 46 42 40 40 42 36 31 32 31 30 27 24 21 26 24 20 19 15 16 21 28 39 41 45 34 38 36 32 28
55 60 59 60 52 49 48 48 47 48 49 50 49 49 47 50 49 51 48 42 41 43 41 35 33 35 34 33 30 26 27 24 24 23 19 16 18 15 19 28 30 38 39 38 40 38 26
57 56 60 53 50 47 44 44 44 42 42 46 50 49 47 48 51 50 46 43 44 43 42 37 36 37 35 35 32 28 26 32 26 24 20 19 19 17 15 14 26 30 32 36 34 30 38
59 56 56 49 43 42 42 41 42 42 41 39 41 45 47 45 49 48 44 45 46 43 41 40 38 37 36 35 33 30 28 35 25 26 23 24 22 17 19 22 20 23 32 37 34 36 33
58 57 51 42 40 41 40 39 39 40 41 40 40 38 45 42 41 40 42 42 42 41 40 40 38 37 36 35 33 32 32 34 26 27 27 24 23 24 17 17 12 20 26 26 35 34 31
58 54 43 40 39 39 40 41 40 39 39 39 41 32 25 30 40 41 40 37 37 37 38 38 37 36 34 34 34 34 34 35 30 29 28 26 28 22 19 20 21 16 16 26 25 31 39
56 45 39 38 38 39 38 36 36 35 37 37 37 27 36 25 27 32 39 37 35 33 33 33 32 32 32 33 34 34 37 36 34 34 30 29 34 26 21 23 22 28 14 21 29 27 27
46 38 37 37 39 40 39 38 36 34 34 32 29 30 33 39 37 30 23 32 34 33 31 29 28 31 32 34 35 36 34 35 35 35 37 37 35 32 26 26 25 21 29 22 19 17 23
37 36 36 35 32 29 27 28 31 31 28 26 20 26 31 30 32 28 28 21 22 31 28 29 26 22 26 30 30 33 34 34 35 35 40 41 35 36 29 27 30 23 24 24 24 28 26
34 34 31 27 25 22 19 22 24 26 24 20 25 31 30 28 34 33 30 27 19 23 27 26 24 25 22 23 27 29 26 33 33 36 41 44 44 38 31 28 21 26 29 23 23 21 22
31 26 22 21 20 18 18 22 23 22 20 19 26 29 28 24 31 29 28 27 15 16 16 19 23 20 17 20 22 19 18 12 19 31 39 46 48 51 32 26 29 31 28 21 26 29 26
22 19 18 18 17 17 16 18 19 18 17 18 25 26 29 24 24 28 27 29 30 26 19 18 18 22 24 20 20 15 14 16 12 15 21 37 48 57 53 31 39 40 37 39 33 36 34
16 16 16 16 17 18 17 14 16 16 15 19 24 27 26 22 25 24 28 29 28 20 20 19 17 19 21 22 19 13 16 20 19 8 13 17 28 51 57 45 40 29 29 31 43 40 37
15 17 17 18 17 16 17 14 15 14 15 20 27 25 23 24 22 26 27 27 24 22 25 24 19 16 26 17 20 17 17 19 20 18 13 16 16 30 50 53 49 45 43 43 42 40 42

GFSGBSN_500_spd_069.txt.gz
Wind_Speed
59 59 53 54 53 54 55 50 48 47 46 49 51 50 51 50 49 50 51 48 45 45 46 44 41 41 41 41 41 45 43 41 44 43 45 42 43 42 43 42 40 43 40 41 40 35 40
56 54 53 55 55 53 51 52 49 47 47 50 52 52 55 51 49 47 47 49 45 41 42 41 39 38 38 40 40 38 41 43 46 44 47 42 41 44 44 44 44 40 41 39 40 40 40
56 58 54 54 58 56 54 54 49 47 50 55 53 52 52 51 49 47 43 43 40 40 40 39 37 37 36 38 39 39 42 44 45 45 46 41 42 46 44 45 45 42 43 41 43 44 41
53 53 56 57 59 57 55 55 53 52 49 50 50 50 50 50 47 46 41 39 40 39 39 38 38 37 34 37 38 40 42 44 44 46 42 42 45 46 40 43 43 42 45 44 44 44 42
53 52 54 56 57 55 54 54 53 50 50 50 49 49 49 47 45 41 40 40 39 38 39 39 37 36 36 38 40 40 41 41 43 43 41 38 45 42 39 43 44 38 43 48 44 37 37
53 50 48 48 51 53 52 52 52 49 48 47 48 46 45 43 44 43 41 40 39 38 38 38 40 37 38 38 39 39 42 40 37 38 37 39 43 36 38 41 40 35 38 39 35 29 25
50 49 49 49 49 47 46 46 46 45 45 46 47 46 44 42 43 43 41 38 40 41 39 40 40 36 40 37 37 37 42 38 35 36 36 39 42 38 34 37 38 39 45 37 36 28 36
49 49 48 46 46 45 46 46 46 47 47 48 48 46 45 43 42 42 41 41 42 43 39 40 36 37 34 39 39 41 39 36 34 33 34 39 38 30 31 40 38 37 43 39 32 30 31
49 48 48 46 45 45 46 49 48 49 48 49 47 46 45 46 42 42 42 42 40 40 43 32 37 36 36 36 35 36 36 35 34 27 31 36 29 26 32 37 39 41 43 34 30 38 38
40 40 40 39 40 41 43 44 45 46 46 45 46 46 45 45 44 44 42 40 40 41 42 39 36 35 35 35 35 33 31 32 31 27 28 30 26 25 33 37 35 37 48 39 38 43 41
29 33 35 38 40 43 45 47 48 48 48 49 48 48 46 46 45 43 43 43 43 42 42 40 37 34 30 31 33 29 31 30 30 25 26 25 27 27 31 34 37 37 50 48 50 52 41
32 35 38 40 43 44 47 50 53 54 52 54 54 52 52 51 49 46 42 42 42 39 39 36 36 34 32 29 30 30 28 26 25 21 23 22 25 25 30 32 40 36 51 51 51 47 53
33 36 39 42 44 48 50 52 55 56 58 58 58 56 55 53 52 50 47 42 39 39 31 31 34 36 33 30 31 30 24 25 23 22 21 20 20 25 25 31 36 37 44 51 51 49 55
35 37 40 44 46 49 53 53 56 59 60 59 59 57 57 54 54 51 47 44 44 37 31 23 34 34 26 24 28 33 24 20 23 21 20 15 17 26 24 23 23 35 39 45 46 46 49
38 40 42 45 47 50 51 51 54 55 56 56 56 52 50 49 48 49 48 47 42 33 29 31 36 32 24 27 27 30 28 28 23 21 19 15 12 18 16 26 24 24 36 35 45 50 41
40 42 45 48 49 49 52 52 56 55 50 46 42 39 36 41 44 47 48 47 41 38 38 40 36 31 28 22 31 26 27 26 24 21 17 15 11 10 15 28 30 20 20 35 39 41 41
42 45 47 49 50 49 53 54 57 50 45 41 37 36 36 39 42 48 48 42 38 36 39 39 38 34 33 34 34 27 26 25 22 20 22 17 11 12 15 11 30 24 27 36 35 39 36
44 47 50 52 52 52 54 57 49 41 37 36 33 27 29 31 41 43 41 40 39 39 43 43 40 36 36 36 36 32 30 31 26 20 21 20 14 14 11 11 17 25 36 32 42 42 35
48 51 53 52 53 53 54 51 39 38 37 35 30 28 31 28 32 36 34 39 42 40 39 43 42 38 36 37 36 33 29 33 29 25 24 25 19 16 14 16 16 21 20 37 39 43 40
51 53 54 52 54 53 52 40 37 38 37 37 36 34 30 30 27 21 28 31 39 38 39 40 42 39 39 40 37 33 31 31 30 28 26 26 21 20 20 18 15 20 25 27 42 39 24
53 55 52 52 53 53 41 36 36 36 36 37 35 31 28 28 26 41 28 25 14 32 36 37 39 36 34 38 36 35 34 33 31 30 28 25 22 23 20 18 19 12 23 24 35 38 33
54 53 52 52 54 41 35 35 34 36 37 37 34 28 28 26 21 28 37 32 26 17 19 30 33 34 34 36 38 35 38 39 34 32 30 26 25 24 20 17 22 16 17 19 35 45 37
53 51 52 54 41 34 33 34 32 32 34 34 29 25 28 21 33 21 18 28 28 26 19 20 24 31 32 34 37 36 36 35 30 29 30 29 26 26 23 22 20 20 18 18 22 20 23
51 51 55 41 32 32 30 26 24 22 22 23 22 24 25 19 41 27 24 16 16 27 31 29 29 25 25 25 28 30 31 31 31 31 31 31 29 28 27 29 25 21 23 22 18 31 29
51 56 40 30 29 26 22 20 20 19 22 20 20 20 16 27 37 31 29 21 16 14 22 27 27 25 22 17 22 24 25 29 29 30 31 31 33 29 35 31 28 22 25 20 26 22 29
55 37 27 26 23 19 18 18 16 20 23 21 19 17 25 24 31 30 31 32 21 16 16 19 19 15 22 22 19 20 19 19 22 22 26 31 34 35 38 31 25 27 29 27 26 25 23
32 25 23 19 16 15 15 15 13 15 18 17 16 19 31 23 22 29 30 28 31 23 20 18 19 22 22 18 20 16 12 14 15 13 7 14 27 35 38 41 34 28 27 29 35 31 30
24 21 17 14 14 15 15 15 14 13 14 14 14 17 23 27 22 22 29 29 27 27 24 18 15 17 22 20 19 14 15 14 17 16 9 13 12 20 36 47 37 27 23 24 32 34 30
18 16 15 14 15 16 16 14 14 12 11 13 12 17 21 26 24 21 26 29 31 25 27 24 20 14 15 18 18 18 13 12 15 15 11 15 11 9 15 28 45 34 32 24 27 29 32

GFSGBSN_500_spd_072.txt.gz
Wind_Speed
53 54 55 57 59 62 61 55 54 54 55 55 52 51 53 53 54 53 53 52 51 50 50 51 46 45 44 43 45 43 39 36 41 45 42 43 40 43 41 44 48 50 46 42 34 32 37
56 53 52 56 55 58 61 57 56 54 54 52 53 52 52 52 49 49 51 52 54 52 51 48 45 44 41 40 40 38 39 37 38 40 41 41 43 42 44 46 46 45 45 41 40 33 37
54 52 54 55 60 58 57 57 55 54 53 55 56 57 52 50 51 48 48 48 49 48 47 46 42 41 40 40 38 36 36 36 37 36 37 40 42 43 44 45 45 46 43 40 40 34 36
54 57 54 56 56 54 55 54 52 52 53 56 56 54 51 50 50 47 47 46 45 44 43 41 40 39 38 39 38 35 33 32 32 36 37 41 42 43 45 47 44 45 43 40 35 35 34
49 50 51 52 51 51 51 51 48 48 48 49 50 51 48 47 47 46 46 44 43 43 40 38 38 39 37 38 36 35 35 33 33 32 35 39 42 44 45 44 42 47 41 41 35 35 39
52 53 54 51 48 48 45 44 45 46 46 45 44 44 44 43 43 42 42 40 42 41 39 38 37 37 37 36 36 35 34 35 33 34 35 38 42 43 42 39 43 39 39 37 36 30 42
49 48 50 48 46 45 43 42 42 43 41 41 40 39 39 41 41 41 41 40 41 42 40 39 39 36 36 36 33 33 34 32 33 34 35 37 38 39 41 40 41 36 35 36 34 29 32
47 46 47 45 42 43 42 41 42 43 41 41 41 41 41 42 41 41 40 40 38 42 38 40 38 37 34 39 30 33 32 32 33 33 34 35 32 38 40 39 37 33 31 33 31 31 36
44 42 41 42 40 40 39 38 39 40 39 38 39 40 38 40 40 42 39 36 37 38 41 31 39 37 34 34 33 33 30 31 30 31 31 30 30 35 38 39 32 34 34 31 33 37 36
41 40 37 34 32 30 30 33 34 35 36 38 38 39 39 39 39 39 38 35 36 37 38 37 32 35 33 32 32 32 31 30 30 27 29 30 29 31 35 34 29 34 33 37 32 37 40
28 24 22 24 25 28 32 35 36 38 39 40 42 41 43 42 42 42 42 38 36 35 38 33 30 28 30 31 30 30 30 30 30 28 27 29 28 30 28 27 29 25 33 32 31 40 46
19 22 24 27 29 31 32 35 38 39 42 44 45 45 45 45 45 44 43 42 39 37 36 34 29 24 25 27 30 30 29 29 31 27 26 27 24 27 25 26 27 24 36 30 30 41 52
21 24 26 29 32 34 35 37 39 41 43 47 48 49 50 49 49 46 45 44 43 41 32 30 30 30 30 31 32 28 28 27 26 27 23 24 26 23 23 25 21 28 33 32 32 39 52
26 27 29 31 32 34 36 38 40 43 45 46 49 49 49 48 49 49 45 45 48 42 36 34 35 35 32 25 24 25 26 27 29 28 22 21 26 20 23 23 18 24 26 33 34 34 49
28 30 33 34 34 35 39 42 44 46 48 48 48 48 45 48 47 46 44 48 47 38 38 34 34 37 35 22 26 29 29 27 29 25 20 21 23 19 18 16 13 15 18 25 30 28 41
31 33 34 36 36 38 42 47 49 49 47 47 47 47 45 41 37 37 39 42 40 37 34 35 37 39 37 31 31 30 33 32 27 24 23 25 19 20 16 10 8 17 17 20 24 31 34
33 35 36 37 39 42 47 50 50 47 44 45 48 44 37 34 32 33 35 31 28 34 36 40 39 41 35 33 36 34 33 31 26 22 22 23 18 21 15 6 5 17 22 19 21 30 32
35 36 38 40 43 45 48 50 47 44 45 48 45 32 32 29 25 22 19 25 31 35 35 38 46 45 41 38 35 36 35 28 24 21 19 22 19 17 17 13 6 10 23 23 19 30 29
38 39 40 43 45 47 49 47 45 46 48 47 32 29 31 26 27 26 23 20 30 33 33 42 39 47 49 42 40 39 37 34 30 26 24 22 19 17 18 19 13 10 18 31 25 30 34
38 41 43 45 47 48 48 46 47 49 45 32 28 28 29 29 29 28 24 21 24 30 32 37 45 45 44 40 48 43 39 38 33 30 29 28 25 22 20 21 18 13 18 29 35 35 39
42 44 46 47 48 48 46 46 51 43 32 30 29 27 28 29 27 26 24 19 18 19 21 31 37 43 44 41 43 44 44 37 36 34 32 30 27 26 25 22 26 18 16 22 33 33 40
44 46 48 49 48 45 47 51 41 32 31 31 30 29 30 28 27 25 24 24 27 22 16 19 26 35 39 39 38 40 40 37 36 35 31 29 27 28 26 23 24 28 22 17 21 29 36
46 48 49 48 46 48 50 43 30 29 30 24 21 22 26 25 24 21 22 29 33 31 20 11 18 27 29 33 32 35 34 36 35 32 31 28 28 28 26 25 24 24 19 16 13 24 29
48 48 48 46 47 51 42 29 28 26 22 18 19 20 21 17 21 19 25 26 40 29 26 20 19 15 22 31 29 30 34 31 32 31 32 29 29 28 27 27 24 21 19 22 18 18 22
47 47 46 47 52 38 26 25 23 21 19 15 17 20 19 18 23 26 36 22 27 32 31 22 27 22 21 25 24 24 22 28 28 30 31 30 29 29 29 27 25 25 23 21 19 20 24
45 45 46 50 33 24 23 20 19 15 20 16 20 23 20 18 22 24 35 23 29 19 26 27 28 22 24 18 21 19 21 22 24 25 29 30 32 32 31 31 30 27 26 23 26 25 17
45 45 46 28 23 21 17 15 14 13 12 18 15 23 19 16 17 24 33 29 23 10 14 23 24 22 23 25 20 17 16 18 20 24 29 30 32 32 32 34 32 29 32 23 26 25 23
43 43 27 22 19 15 14 13 13 12 12 15 13 22 15 21 18 20 32 27 23 22 19 19 21 17 21 25 24 20 17 18 19 21 21 17 19 20 29 35 36 35 30 29 29 29 26
40 26 22 18 15 14 13 13 11 11 12 12 11 17 12 28 20 24 31 26 25 23 22 25 20 14 14 21 19 17 17 18 15 19 19 17 12 12 12 15 24 34 35 29 32 28 26

GFSGBSN_500_spd_075.txt.gz
Wind_Speed
59 63 62 61 63 64 64 58 56 56 58 61 60 59 58 60 59 58 53 55 58 60 59 54 51 49 48 47 46 50 42 41 41 42 43 42 41 43 42 42 41 44 39 43 46 47 44
64 66 63 64 65 66 60 57 56 55 59 59 58 60 60 60 58 56 54 54 57 58 57 54 54 53 50 47 50 47 46 41 40 40 39 38 39 40 39 40 40 39 41 44 47 48 43
66 66 64 65 61 58 58 56 58 59 58 58 61 59 58 57 54 53 56 56 56 56 52 47 47 49 49 47 47 45 45 42 39 41 40 39 39 38 38 35 37 39 42 44 46 44 45
65 60 59 56 55 54 53 54 54 54 54 53 56 55 56 56 52 52 54 53 52 51 48 46 43 44 43 45 44 45 42 40 41 40 39 40 38 34 34 35 37 41 43 41 42 45 41
55 51 51 53 54 54 53 56 57 54 51 50 47 47 46 46 47 47 45 46 49 46 43 43 39 40 39 40 40 40 41 41 40 38 35 36 36 32 32 34 38 39 41 43 47 42 41
49 51 50 51 54 57 56 56 54 52 50 47 46 44 45 47 45 43 41 41 43 43 41 40 36 36 36 36 38 40 41 40 39 37 35 34 36 31 31 36 38 42 42 46 44 39 43
43 46 45 47 48 50 51 52 47 45 45 41 41 42 42 41 39 37 35 36 38 39 37 38 36 37 36 37 38 39 39 38 39 38 34 34 33 28 35 35 37 42 43 42 40 38 37
45 45 48 49 48 50 47 45 42 40 41 40 40 43 42 43 40 38 35 33 34 37 33 36 36 34 33 36 35 36 38 38 37 35 35 31 27 33 32 35 36 39 39 36 38 38 34
45 48 49 49 47 45 41 40 39 38 36 33 35 35 34 36 36 36 34 33 32 31 34 23 36 33 32 34 32 32 36 36 35 34 31 31 29 30 31 32 35 38 38 34 33 36 37
44 45 43 42 38 39 36 34 34 33 33 30 32 32 32 34 34 34 35 35 34 34 35 29 28 34 32 29 33 35 33 34 34 30 30 30 27 30 32 29 35 38 38 35 37 33 37
40 38 38 37 31 30 31 31 32 31 31 31 32 33 34 36 36 35 35 36 36 35 38 31 28 26 28 31 32 34 34 33 32 30 30 28 28 30 30 27 32 33 30 32 33 34 37
37 32 29 27 26 26 27 29 30 31 32 33 34 37 39 41 42 42 40 40 39 38 38 32 28 26 24 28 32 34 34 33 32 30 31 30 32 30 31 27 26 27 29 28 27 31 35
30 22 21 23 25 27 30 31 31 30 31 34 38 40 43 45 45 44 42 40 40 40 37 38 37 36 34 30 31 31 32 31 31 31 30 31 29 28 28 28 25 27 25 23 28 31 33
18 19 23 26 30 31 32 32 32 32 34 37 40 44 47 47 47 46 44 43 43 42 41 42 39 36 31 35 34 33 33 34 33 33 30 28 27 27 27 29 24 24 25 23 31 36 33
21 23 27 30 31 32 33 34 34 35 39 42 47 50 50 48 45 42 41 42 38 35 36 37 33 37 36 38 37 36 36 34 35 35 30 26 25 26 28 26 23 19 18 19 27 31 30
24 27 28 29 31 32 34 35 37 40 43 47 50 49 43 40 42 40 40 35 33 33 31 35 36 34 38 39 38 36 35 36 36 34 31 25 26 27 26 25 22 17 16 17 22 25 24
25 26 27 29 31 33 35 37 40 44 48 50 46 41 41 43 43 38 32 27 29 32 33 35 40 44 36 41 40 38 38 37 36 33 30 28 27 27 23 24 22 15 14 17 19 19 20
27 27 28 30 33 35 37 40 44 48 50 46 39 43 44 47 37 28 25 26 24 27 36 36 42 49 30 40 37 38 37 30 25 31 30 28 26 26 23 25 21 16 15 19 20 16 14
27 28 30 32 36 38 41 45 47 48 45 41 41 47 44 33 26 26 25 25 26 27 29 36 41 50 51 21 38 34 40 41 26 31 32 30 28 24 25 25 20 18 15 17 24 23 13
29 30 33 34 38 41 44 47 47 46 42 43 44 38 30 25 26 26 27 27 28 27 25 35 38 47 47 32 31 34 38 43 41 34 28 27 26 22 21 22 22 21 18 15 21 28 22
31 33 35 37 40 44 46 47 46 44 45 45 41 26 26 27 27 28 29 28 25 24 24 30 35 43 48 41 28 37 31 23 41 35 35 33 28 27 23 23 24 24 21 20 20 22 34
33 35 37 39 43 46 47 46 44 45 47 41 27 26 27 29 30 30 30 27 24 23 22 23 31 39 50 47 38 35 32 34 36 36 38 35 31 29 27 27 28 27 25 25 29 26 30
35 37 38 42 45 46 46 45 45 50 39 26 25 25 23 20 23 25 25 27 25 24 25 22 23 34 42 43 36 31 35 32 40 42 37 35 31 29 26 28 28 23 22 31 27 24 25
37 38 40 44 45 46 45 45 50 35 24 22 22 21 21 17 19 22 24 26 23 25 32 25 16 19 27 37 34 34 37 46 43 39 33 30 29 30 29 28 28 21 24 29 26 25 16
38 39 41 43 46 44 44 46 30 23 21 18 20 21 19 15 16 20 22 21 23 24 37 28 20 15 7 23 29 27 24 35 32 32 32 30 31 29 29 28 26 22 25 24 23 23 17
38 39 41 44 42 42 43 27 24 21 17 15 21 23 18 17 16 23 26 28 23 19 30 23 24 19 10 16 20 22 24 24 29 33 33 33 30 29 29 28 26 24 24 25 24 20 17
38 39 41 41 40 40 27 23 20 16 15 16 15 13 16 20 17 22 24 22 28 21 25 15 28 24 11 11 21 23 25 22 22 26 29 29 29 27 28 30 27 22 27 26 24 20 19
37 38 39 38 38 27 23 19 16 14 13 15 11 14 16 19 16 13 14 26 22 25 21 22 20 27 20 19 22 23 19 19 20 22 23 24 24 24 27 31 30 25 28 28 25 20 19
36 37 37 36 27 23 18 16 13 11 12 12 10 17 16 16 17 14 15 24 23 22 15 23 19 24 24 26 27 23 18 16 16 16 19 20 23 22 27 29 34 29 31 29 27 26 18

GFSGBSN_500_spd_081.txt.gz
Wind_Speed
53 54 53 52 52 53 51 50 53 54 57 56 54 53 54 54 47 45 45 45 47 48 51 50 56 60 57 52 46 49 50 49 49 49 47 46 44 43 44 43 41 42 40 39 38 36 37
61 57 56 56 58 58 55 55 57 60 61 60 59 59 60 55 48 47 48 46 46 50 51 54 58 58 54 50 52 48 47 50 49 50 49 46 46 44 43 41 40 38 39 38 39 37 37
66 63 62 62 62 62 60 59 60 62 65 64 63 64 64 54 53 52 51 50 49 51 52 53 56 55 49 48 50 48 48 49 48 49 48 45 44 42 42 40 41 38 37 38 38 36 35
70 68 68 68 67 65 63 63 64 66 65 67 64 61 55 51 54 55 55 51 51 52 51 52 52 47 43 44 47 46 46 49 52 50 50 47 44 42 40 40 37 36 37 36 36 36 35
73 70 70 69 69 68 65 64 64 65 65 63 60 51 47 49 50 53 52 51 51 50 49 47 46 44 40 40 42 43 44 47 49 46 43 44 45 41 39 37 36 37 35 36 39 35 33
74 73 69 67 67 66 65 64 62 60 58 53 49 50 50 52 55 52 50 49 47 45 43 41 40 38 37 35 38 40 40 43 45 46 40 37 41 43 37 36 36 36 39 38 35 32 32
68 69 66 64 62 61 61 59 56 54 50 49 51 53 52 54 54 50 42 40 39 39 39 39 38 37 36 36 33 36 37 40 40 47 36 40 41 35 35 37 39 37 37 37 35 35 34
64 65 65 63 58 54 52 51 49 46 48 49 51 51 50 51 44 40 36 35 35 36 31 33 37 35 32 35 31 32 36 39 36 37 43 42 42 37 37 36 38 36 36 35 36 35 36
54 55 55 53 50 47 44 39 40 43 45 47 47 44 46 40 37 36 35 34 31 29 28 28 29 33 36 35 30 29 33 33 34 34 29 31 33 34 36 36 36 35 35 34 35 33 33
52 49 48 49 48 40 37 39 41 42 42 42 43 41 40 38 34 32 30 30 30 29 33 32 35 32 34 38 36 34 34 31 33 32 33 36 32 35 37 35 34 34 33 33 32 32 32
43 40 39 38 38 39 39 39 38 38 39 39 40 39 36 33 32 31 30 29 30 31 34 34 33 30 25 28 33 35 34 36 31 30 30 32 37 36 35 30 35 32 31 31 31 30 32
40 36 36 38 38 37 37 36 36 37 37 37 35 33 32 30 30 30 31 32 35 36 39 39 38 37 34 32 32 33 33 33 36 31 30 34 33 30 28 31 33 33 32 30 30 30 29
34 36 37 37 35 35 33 35 35 34 32 30 30 30 31 31 32 34 35 37 42 40 43 44 42 42 41 35 35 34 35 32 37 35 31 29 28 30 32 31 30 31 30 30 31 30 26
34 35 36 36 33 31 31 30 31 26 26 29 30 31 33 34 34 37 40 43 45 47 48 49 44 40 41 39 39 37 37 35 34 36 34 33 31 33 32 30 30 29 31 28 29 29 23
36 36 31 31 30 28 29 24 24 24 27 30 31 32 34 35 37 39 42 44 46 46 48 44 39 37 34 39 39 40 40 35 33 36 34 34 34 34 33 31 30 29 28 28 28 27 24
34 32 30 30 28 23 21 22 23 24 27 30 32 34 35 36 38 40 42 45 44 43 41 38 36 39 36 35 40 39 40 40 35 36 36 35 34 33 32 31 29 28 27 26 26 24 24
31 29 29 27 22 20 22 23 23 25 28 31 34 35 36 38 40 41 42 41 40 41 41 42 42 40 35 35 38 40 39 39 38 35 36 36 35 32 31 29 28 26 24 24 23 22 22
30 28 24 22 21 23 23 24 26 27 30 33 35 37 38 40 41 40 39 42 43 43 42 37 31 28 26 30 32 36 39 30 36 36 34 35 35 31 27 30 28 23 21 21 20 21 20
28 24 23 24 25 23 24 25 26 30 32 34 37 40 40 41 41 42 45 46 41 34 27 21 21 21 20 17 24 30 27 25 33 36 32 32 35 28 30 30 30 24 21 21 21 21 21
26 26 26 25 25 26 25 27 29 31 33 35 40 42 43 43 45 48 46 35 26 22 21 19 20 20 20 20 19 28 40 23 24 35 32 33 27 30 28 30 27 23 22 23 21 20 20
31 29 26 27 27 26 28 28 30 32 34 38 41 43 43 47 47 38 23 18 20 22 21 20 23 22 20 17 18 26 43 24 17 31 31 23 33 35 31 29 27 24 22 25 23 26 24
35 28 28 28 27 28 30 31 33 34 36 39 42 42 46 45 29 22 21 21 23 23 21 24 23 22 20 20 19 31 45 22 20 25 28 34 30 22 27 28 24 21 21 23 25 28 24
30 31 30 28 29 29 30 31 33 35 37 40 41 44 41 30 25 22 20 17 18 19 19 21 23 21 19 21 19 27 39 34 20 15 22 31 23 32 24 19 20 24 21 22 21 23 24
33 33 31 30 30 31 31 33 34 35 37 39 40 40 29 24 23 23 21 21 20 21 18 21 20 17 18 17 16 24 27 45 16 17 14 21 12 17 23 30 22 18 19 19 16 19 21
35 34 33 32 33 32 33 34 34 34 36 37 39 30 25 19 20 23 24 24 26 24 20 18 16 13 13 13 12 18 23 35 39 16 17 11 9 14 22 25 23 17 17 20 15 21 16
37 36 35 34 34 34 33 33 33 32 35 36 32 26 20 16 21 23 26 28 21 19 18 13 11 15 9 3 4 9 14 21 26 27 12 12 13 14 16 18 19 20 21 21 18 18 18
38 38 37 36 35 33 32 32 31 31 33 31 26 20 19 18 20 23 29 29 24 19 15 17 14 12 13 13 5 10 14 17 22 22 26 16 19 20 23 19 20 23 24 19 20 18 18
36 35 35 34 33 31 30 29 29 30 31 24 19 18 19 20 20 26 25 25 19 13 18 16 17 7 16 7 9 11 10 15 16 18 20 28 25 22 21 23 23 25 23 21 20 18 17
34 33 32 32 30 29 28 27 27 28 25 17 16 16 18 20 22 25 21 14 11 11 20 15 10 16 16 11 11 12 8 6 12 16 15 15 18 18 20 22 24 25 22 21 19 18 17

GFSGBSN_500_spd_084.txt.gz
Wind_Speed
53 51 51 51 52 52 52 51 50 51 50 49 50 51 52 52 54 54 53 53 52 49 48 45 45 47 47 48 49 49 50 46 41 42 47 49 51 52 50 50 49 47 48 45 45 42 39
65 62 58 58 56 55 55 58 55 54 53 53 55 54 54 54 55 57 57 57 55 54 51 46 47 49 48 48 50 48 50 49 44 40 46 49 50 52 54 52 47 48 46 45 42 40 40
71 65 64 64 62 63 66 63 61 59 56 57 56 54 55 56 57 57 60 60 54 52 50 49 50 52 47 49 46 47 45 46 44 43 43 47 52 53 54 53 51 49 47 45 42 39 39
66 66 70 71 71 70 65 62 64 62 62 62 60 57 58 60 57 58 56 52 49 50 52 53 52 52 48 45 42 39 40 40 41 44 46 47 50 52 49 51 50 47 47 44 41 40 39
64 65 66 66 69 69 65 61 60 61 60 61 59 58 59 57 56 52 48 46 48 49 51 50 49 51 48 43 41 39 38 39 40 42 45 46 48 52 52 51 49 46 45 43 40 40 40
62 65 66 66 64 64 65 62 58 56 57 58 58 58 54 50 47 46 46 47 48 50 48 50 50 48 45 42 37 35 36 37 39 41 43 44 46 49 51 46 41 42 40 45 41 40 39
67 63 56 56 62 63 60 57 55 54 52 54 52 50 50 46 46 46 46 45 46 43 41 43 44 37 37 36 35 34 36 36 37 39 38 37 41 44 38 43 40 41 42 40 38 39 38
65 64 62 58 58 56 60 61 58 55 49 47 47 46 42 43 41 42 40 42 40 38 32 35 33 33 31 33 31 33 34 34 37 36 36 36 38 37 39 37 38 40 33 35 36 38 38
65 60 58 54 52 53 53 55 53 49 44 42 39 41 39 39 39 39 37 36 35 33 33 31 30 30 31 32 32 31 33 34 35 34 32 34 36 40 38 36 36 37 36 35 38 34 36
54 50 51 51 49 49 49 47 46 44 39 38 39 38 37 38 37 36 35 33 32 34 35 34 31 31 29 26 28 32 35 35 36 35 33 34 32 32 44 42 41 40 33 33 33 32 32
49 48 48 47 47 43 44 44 39 39 39 38 37 35 36 36 35 35 35 33 33 35 35 36 32 32 33 33 29 31 33 32 34 33 35 33 32 34 33 27 34 33 30 32 32 31 32
46 44 42 41 40 40 40 39 39 39 37 35 34 34 34 33 32 32 31 30 32 33 37 37 37 36 37 39 38 35 34 36 34 34 34 36 33 33 34 34 34 34 32 34 33 29 30
44 37 39 38 38 37 38 39 40 38 34 32 31 31 31 29 27 28 30 31 33 33 36 39 39 40 42 42 42 39 38 37 36 35 34 35 35 33 37 34 38 36 27 29 29 30 27
35 35 33 33 35 36 37 36 37 32 31 28 28 27 26 26 27 28 30 31 34 36 38 40 41 43 45 43 42 35 35 38 38 36 34 33 34 36 29 29 27 26 25 26 27 26 28
34 35 33 34 33 34 35 33 28 27 27 25 24 22 23 25 27 29 31 33 36 38 39 41 44 44 41 39 37 33 31 35 39 37 33 33 36 36 32 29 26 27 26 26 26 27 28
33 32 33 33 33 34 30 27 26 24 21 21 21 23 25 26 29 31 34 36 39 41 42 42 41 39 37 37 38 37 33 32 35 38 35 32 33 33 31 30 27 27 26 24 25 25 25
30 31 31 32 30 29 27 24 20 19 20 21 22 24 26 29 32 34 36 38 41 42 42 41 41 41 40 39 41 40 37 32 30 33 35 31 32 28 23 25 26 23 24 24 25 25 21
30 31 31 30 29 27 25 19 19 20 20 21 24 26 29 31 34 36 38 40 44 45 45 46 45 43 40 37 34 32 33 35 31 28 30 33 31 30 27 22 23 25 21 23 24 22 21
33 30 31 29 28 25 19 21 20 20 21 23 26 27 30 33 36 38 41 44 47 49 44 35 28 23 20 19 19 17 24 31 30 21 30 34 35 29 26 32 29 23 22 23 22 23 20
29 30 29 29 24 21 22 20 20 21 22 24 28 30 32 35 37 40 44 47 42 29 23 17 18 17 15 14 16 17 17 27 27 36 20 29 31 29 27 26 25 23 23 24 23 22 21
33 33 29 22 22 24 22 20 21 23 23 26 28 31 32 36 38 42 43 32 24 20 18 19 19 18 16 16 16 15 16 26 33 13 28 33 32 30 25 23 24 23 22 22 23 25 24
29 27 25 26 26 22 21 22 23 23 24 27 29 31 33 36 39 40 28 22 19 17 16 19 17 20 20 19 18 17 15 32 37 14 13 19 26 24 25 29 28 25 24 24 23 24 24
29 28 29 28 26 23 23 23 22 23 25 28 30 32 34 37 38 29 22 21 18 18 20 22 21 18 19 20 19 18 20 25 42 15 11 19 28 24 29 39 30 26 21 17 18 23 22
35 36 33 31 23 24 24 22 22 25 27 28 29 31 33 36 31 24 23 20 20 19 19 22 20 18 20 16 15 17 21 21 41 10 16 14 22 36 31 22 27 21 20 16 16 20 18
33 35 32 27 26 26 24 22 24 27 28 27 28 31 33 31 24 22 23 24 24 25 24 21 19 14 16 14 13 15 15 22 31 18 13 10 10 18 17 24 19 15 12 12 15 17 14
31 31 33 28 28 27 25 25 26 27 27 25 27 29 30 24 22 22 25 28 27 26 27 21 15 12 13 8 6 2 8 10 18 30 16 14 13 13 16 14 13 14 15 15 15 17 16
31 31 30 31 30 28 27 27 26 25 24 24 26 28 22 19 20 24 26 29 30 30 25 19 15 14 16 8 4 9 12 10 14 24 25 12 12 9 7 7 7 11 14 12 17 19 17
32 33 33 32 30 28 28 26 24 23 21 23 25 23 16 17 22 25 29 30 24 15 10 14 15 11 16 8 3 8 9 9 11 15 27 25 17 11 9 7 9 9 11 13 16 20 20
32 32 31 30 29 27 25 23 22 20 19 22 23 15 12 16 20 24 22 12 12 7 14 20 15 14 11 11 14 12 9 8 12 14 16 20 19 20 17 13 11 12 14 16 16 18 20

GFSGBSN_500_spd_087.txt.gz
Wind_Speed
56 57 55 54 53 51 47 49 50 51 51 50 49 50 50 49 48 48 49 51 51 51 51 51 49 48 54 51 53 53 52 52 51 49 48 42 41 43 48 48 52 56 55 56 57 56 57
58 59 57 57 56 56 56 58 58 55 53 54 54 54 56 55 51 50 51 51 50 54 53 52 50 50 55 52 52 52 53 53 52 50 48 41 41 43 46 49 51 55 55 57 55 56 56
63 63 65 64 61 64 64 60 59 59 62 58 57 57 55 55 57 56 53 54 55 55 52 46 49 54 54 49 53 52 50 50 51 50 43 38 39 42 46 50 53 55 54 57 54 55 52
67 61 63 64 67 62 62 59 62 63 61 60 57 55 56 57 55 55 55 55 54 50 47 49 52 54 53 53 54 54 53 48 47 46 41 40 39 42 47 51 53 53 56 58 54 55 55
68 71 67 65 64 63 62 60 58 59 57 55 54 53 51 50 51 53 56 54 50 48 49 50 51 51 53 51 49 44 42 39 38 38 37 38 41 42 46 49 51 55 55 51 53 55 54
69 67 63 64 62 59 58 56 57 59 57 53 49 46 44 45 47 49 48 47 48 48 47 47 48 49 46 43 38 39 37 36 35 35 36 37 40 43 46 48 50 48 50 49 45 43 56
78 69 59 58 54 55 52 50 51 51 52 52 51 51 51 46 44 44 45 43 43 42 44 43 44 40 40 33 32 32 32 31 32 33 33 35 37 38 38 44 46 55 51 49 46 45 45
78 73 72 67 63 54 52 52 52 52 54 54 53 52 46 42 40 39 37 38 41 42 39 37 36 32 31 30 29 29 30 30 30 29 33 36 37 34 37 40 41 40 38 43 37 39 44
75 79 75 69 66 64 63 54 52 50 49 51 47 45 43 40 37 36 38 38 38 35 34 34 31 29 29 29 31 31 31 31 30 32 33 35 35 39 31 36 39 34 34 35 42 40 38
68 72 66 61 61 59 52 47 47 47 47 45 44 42 43 39 37 37 36 35 33 32 33 33 31 30 30 31 31 31 30 30 30 32 35 39 40 40 34 36 35 40 29 34 31 34 33
67 63 69 59 56 46 42 42 46 45 45 44 43 40 39 38 36 35 34 32 32 31 28 32 27 28 29 32 34 34 33 34 35 36 35 35 39 38 41 34 38 39 38 35 34 36 35
63 70 55 52 45 40 41 42 40 41 41 42 42 40 38 34 35 33 33 32 30 28 31 29 31 33 34 35 36 38 39 39 40 39 38 37 36 38 35 36 37 33 34 34 30 30 36
50 46 44 42 41 38 38 38 37 41 41 42 39 34 35 33 31 31 30 30 29 27 29 33 33 33 35 40 37 42 41 42 41 42 38 39 38 39 35 35 37 35 31 29 26 30 32
37 35 40 42 37 35 39 39 39 37 39 40 35 30 31 29 26 27 27 26 27 29 29 32 33 36 38 41 40 44 43 42 39 37 39 30 25 31 35 33 32 29 35 33 22 17 14
30 35 35 34 31 31 33 36 35 37 37 33 28 24 25 23 24 23 24 25 26 29 32 34 36 39 40 44 44 44 42 40 37 36 30 27 24 33 40 31 32 28 35 24 30 24 25
29 31 30 30 29 30 29 31 34 34 29 26 21 20 20 20 22 23 24 26 30 31 33 36 38 41 42 46 46 43 43 41 35 34 32 30 32 25 35 27 28 28 23 22 26 21 23
30 29 27 27 29 30 30 31 32 28 26 19 18 17 19 20 22 23 26 29 31 33 35 39 42 45 47 47 48 45 44 42 33 36 33 31 33 26 29 26 25 24 25 24 25 23 19
25 29 27 27 28 31 28 27 26 23 16 18 17 18 19 21 23 25 28 30 33 36 39 43 45 47 48 48 49 46 44 42 36 40 35 28 33 35 32 26 23 24 23 22 28 24 24
26 29 26 28 27 27 25 25 22 17 19 17 18 19 20 22 25 27 29 32 35 39 41 41 39 34 31 28 27 26 26 29 36 36 38 31 31 31 27 27 30 19 21 21 21 23 19
29 28 28 27 27 29 29 23 19 20 19 18 19 21 22 23 25 28 31 33 37 37 31 27 24 19 17 16 17 13 17 24 20 28 33 38 35 32 26 26 27 30 28 23 24 22 20
30 29 28 29 31 28 24 20 22 20 19 19 20 22 22 24 25 28 30 34 33 26 23 21 20 19 19 17 17 19 19 17 20 25 39 38 20 34 28 24 22 29 24 29 27 25 24
29 31 32 32 30 26 21 22 22 20 21 21 21 21 23 25 26 28 31 30 26 24 22 21 22 20 17 16 21 21 21 19 18 23 26 23 17 23 29 32 31 26 25 19 19 22 25
29 31 31 32 27 23 22 23 21 21 21 20 19 22 24 25 26 28 29 24 22 20 20 23 24 22 23 23 17 20 22 22 17 23 17 19 15 13 39 30 27 25 21 21 22 25 23
32 35 34 30 25 23 24 23 23 20 20 19 19 22 23 24 26 28 26 21 21 23 24 27 27 25 24 20 20 17 20 21 16 28 15 12 13 8 28 24 29 29 29 26 25 21 19
36 34 30 28 27 28 29 22 21 20 20 20 21 22 22 24 27 26 22 21 23 27 30 31 27 21 17 17 12 13 13 13 16 25 14 14 17 12 23 22 31 32 30 26 21 17 17
36 35 32 33 34 32 28 21 21 20 20 21 21 21 21 24 25 24 21 24 29 34 38 35 24 14 12 10 7 6 5 8 7 23 9 14 15 13 24 26 17 15 18 15 15 17 14
31 34 36 34 34 31 24 21 22 21 21 20 19 19 22 25 23 21 23 28 35 37 34 28 21 13 11 13 10 2 5 7 5 14 17 15 16 16 14 16 18 18 13 14 14 15 14
27 26 31 22 24 28 22 22 23 22 20 18 17 19 22 22 19 20 26 32 33 30 18 9 7 10 18 15 6 2 5 10 8 10 21 15 15 15 17 13 14 14 13 13 11 11 14
28 28 29 30 28 24 23 24 23 21 17 17 15 18 20 16 15 22 25 22 21 14 3 15 16 12 20 11 7 11 11 12 12 13 18 22 19 17 18 17 11 10 10 7 8 10 16

GFSGBSN_500_spd_090.txt.gz
Wind_Speed
55 58 56 55 53 53 53 54 51 50 49 49 48 49 49 49 51 51 50 51 50 48 47 49 49 48 51 50 52 52 50 51 50 50 52 52 48 46 48 46 47 50 52 53 54 54 57
59 60 60 56 57 57 57 56 54 51 51 53 53 55 57 56 53 54 55 54 54 53 51 51 51 50 52 51 50 46 48 51 51 46 48 47 47 45 48 45 44 46 51 55 57 57 59
62 64 64 63 61 62 58 58 60 60 57 56 59 61 56 55 59 57 57 57 53 52 55 53 52 54 49 48 46 47 50 51 50 50 48 46 44 44 42 44 42 46 50 51 52 56 56
65 66 66 68 66 68 67 65 56 56 59 60 60 57 57 56 56 53 50 49 51 52 54 54 54 53 47 48 50 50 49 49 51 49 49 46 43 38 39 41 44 44 46 50 48 54 56
69 68 65 69 68 62 56 60 62 59 56 55 56 56 54 52 52 49 44 44 45 47 48 50 49 47 46 47 47 47 47 47 46 45 43 44 40 37 39 42 39 45 45 48 46 52 55
71 71 73 73 69 70 67 58 58 54 54 49 49 48 47 44 45 44 44 43 44 45 47 47 47 46 44 43 42 43 41 39 40 38 36 33 34 37 38 37 38 40 43 45 49 45 32
73 73 72 72 73 71 72 71 70 58 50 45 45 46 44 44 44 41 41 40 42 42 44 45 41 40 41 40 40 38 37 32 32 31 28 31 34 35 35 39 40 38 38 43 47 47 41
68 68 69 66 68 71 73 72 70 64 60 64 50 49 48 48 45 43 39 39 39 40 38 38 38 38 37 35 35 32 31 30 29 28 29 32 34 32 36 38 39 36 41 41 43 43 48
66 66 67 63 61 64 70 73 72 64 59 54 50 49 48 47 44 41 39 39 37 36 38 36 37 36 32 30 31 31 31 31 29 30 29 31 33 36 35 34 34 36 40 37 39 39 42
67 67 64 58 64 65 68 72 67 65 55 52 49 51 46 43 42 40 40 38 35 36 35 38 38 32 31 31 32 30 30 28 29 29 31 34 32 33 36 37 39 39 39 40 39 39 40
66 63 60 71 68 67 66 65 61 56 47 43 43 43 42 40 41 41 37 35 32 33 31 39 34 25 25 28 31 33 27 32 32 33 35 33 36 36 37 36 39 40 39 36 39 41 37
60 62 66 67 63 55 50 57 44 46 44 44 42 41 40 41 41 40 36 31 31 28 29 31 30 26 27 31 33 33 37 33 36 36 39 38 36 38 39 41 38 38 38 37 37 35 40
69 76 61 47 55 51 49 49 46 48 42 43 41 38 39 40 38 32 32 28 28 25 30 32 26 28 29 30 35 32 36 37 38 40 41 38 40 38 37 41 39 39 35 33 32 27 23
60 52 54 54 52 50 49 50 47 47 39 38 39 36 37 37 33 26 25 25 24 28 29 24 27 28 30 31 35 36 37 37 33 41 43 37 35 25 31 35 34 31 30 28 26 23 22
34 38 41 44 42 40 39 40 42 41 38 38 37 35 31 26 22 21 21 22 24 24 23 24 26 30 31 36 37 38 38 40 33 45 41 37 32 34 31 35 36 23 27 20 25 25 29
24 27 27 27 30 33 33 35 35 36 37 37 34 28 21 18 16 17 19 21 23 21 24 27 28 31 33 36 40 43 43 42 42 43 38 35 42 35 26 30 25 19 22 27 26 27 26
25 28 29 27 31 34 33 33 31 33 36 30 23 21 15 15 16 17 19 20 21 23 25 27 31 35 38 41 44 47 48 43 51 49 44 42 37 30 35 25 20 19 22 20 23 20 20
25 28 27 31 30 29 30 31 32 30 24 21 21 12 14 15 17 18 18 20 22 25 27 30 33 37 39 41 43 44 45 35 40 41 41 42 38 37 34 35 16 18 21 21 24 22 23
21 23 25 29 30 30 32 31 29 25 23 19 13 16 15 16 17 19 18 21 24 26 29 33 36 36 34 32 30 26 24 24 31 36 36 37 40 34 29 36 30 20 21 24 21 27 28
21 23 26 28 28 29 29 26 24 21 17 17 18 15 16 17 18 21 21 22 26 26 31 32 30 28 26 23 22 22 19 22 20 26 24 32 34 34 32 35 37 19 22 26 28 23 25
21 21 24 25 28 27 24 23 21 19 18 19 15 15 17 17 19 20 21 24 26 29 29 28 26 25 25 23 22 24 24 23 24 21 23 27 32 41 32 29 33 31 20 28 25 23 23
24 22 27 28 25 25 28 26 21 19 20 18 17 16 18 18 20 21 22 24 27 28 25 24 23 24 26 25 27 27 26 25 25 22 21 24 26 40 34 32 33 17 27 28 32 29 28
24 25 27 28 29 29 29 25 20 21 19 16 16 16 18 20 20 21 22 24 26 25 23 23 24 25 28 30 29 26 27 24 23 19 19 19 22 33 30 40 34 10 15 28 18 11 20
22 26 29 32 33 30 29 23 22 21 18 16 16 17 19 21 21 20 22 25 25 24 23 25 27 29 31 33 31 23 22 21 16 15 12 19 22 17 23 31 26 16 24 18 18 16 14
24 28 32 35 32 31 26 22 22 20 18 17 16 18 20 20 19 20 23 24 23 24 26 30 33 35 32 29 20 12 11 7 5 9 18 19 10 11 6 15 32 27 25 22 22 19 17
24 28 31 35 35 27 24 24 24 21 18 17 19 18 19 19 19 22 24 23 24 28 33 37 40 36 24 14 7 5 8 2 6 12 13 9 10 13 6 19 20 22 24 23 26 25 17
26 31 37 36 33 26 27 29 25 21 18 18 19 18 17 17 19 23 22 23 28 34 37 34 17 12 10 9 14 11 8 6 2 6 14 5 7 17 15 16 17 17 23 27 25 21 20
21 30 35 33 29 30 29 27 25 20 18 19 19 16 15 16 19 20 20 25 31 31 29 13 6 2 14 17 12 8 2 9 5 4 10 8 14 13 11 13 17 19 13 15 16 12 11
19 23 27 29 36 30 27 24 22 18 19 19 17 14 13 16 18 16 20 26 21 14 12 7 5 4 12 15 7 5 15 15 12 6 17 15 17 13 16 15 15 16 15 12 9 7 8

GFSGBSN_500_spd_093.txt.gz
Wind_Speed
58 55 54 53 53 52 53 52 51 51 51 51 52 51 50 49 51 51 48 49 49 50 51 51 50 50 48 46 50 50 49 48 47 48 48 48 48 49 48 49 48 47 43 46 47 49 50
63 63 60 60 58 57 59 55 56 53 52 53 55 54 54 50 51 54 53 54 55 56 53 53 53 53 53 52 50 50 52 50 48 46 45 46 47 48 48 44 47 43 46 49 52 50 51
68 68 67 65 62 61 60 60 58 60 59 56 52 53 54 59 58 56 58 58 59 57 58 56 53 54 54 53 54 55 52 52 48 48 46 44 47 48 46 46 42 45 47 45 48 45 46
75 73 73 70 69 66 64 64 63 59 57 55 50 47 54 54 56 56 54 55 55 53 53 52 47 49 48 49 50 52 50 48 48 48 45 43 43 45 43 45 43 42 44 44 42 43 45
79 77 78 76 73 70 69 65 63 58 61 61 54 46 49 51 51 52 54 54 50 48 47 46 44 45 45 47 47 46 48 47 47 45 43 42 43 41 40 38 39 39 39 41 39 43 45
78 80 79 78 75 74 70 68 67 67 65 67 61 64 53 43 38 38 43 45 42 41 41 42 41 41 42 43 43 44 45 42 41 42 40 38 39 39 32 30 33 35 40 41 38 42 48
81 74 72 73 72 72 68 67 66 66 69 69 66 63 61 58 53 57 47 43 43 40 40 42 41 41 41 43 41 39 38 39 38 40 34 33 35 30 28 31 32 37 39 39 40 40 45
74 71 70 71 71 70 68 65 65 66 65 66 65 56 57 59 55 56 54 52 48 40 38 39 39 38 37 37 37 35 35 36 35 33 32 31 32 26 30 31 33 34 37 37 38 40 43
67 69 71 72 72 70 68 67 66 65 63 64 63 58 49 55 51 54 46 44 45 44 37 36 37 37 35 33 33 35 33 32 31 30 30 31 26 29 30 31 33 31 36 38 40 42 42
63 63 66 68 68 69 69 64 64 62 58 62 59 55 51 54 54 51 49 46 42 39 37 35 37 34 33 32 33 32 34 32 30 28 28 30 28 31 32 33 33 30 33 36 40 43 43
59 60 64 64 64 61 62 60 59 59 62 61 55 55 55 54 47 46 42 39 39 38 34 33 31 29 28 26 28 28 27 28 29 30 31 31 32 31 31 29 33 39 40 39 40 41 43
52 53 58 61 63 64 65 60 60 63 54 50 40 40 45 44 43 42 41 39 36 32 30 31 30 25 25 25 25 29 30 29 32 32 33 33 34 34 33 33 35 36 39 42 41 39 42
54 55 54 55 52 51 54 59 55 46 41 43 40 40 43 43 46 42 39 38 32 26 27 31 28 22 25 25 27 31 31 33 35 33 36 35 33 32 31 33 33 32 35 37 39 39 38
57 46 52 51 60 66 53 48 52 51 44 44 43 43 43 40 40 37 36 34 25 27 32 22 18 23 23 24 27 30 32 33 33 39 40 41 37 29 33 33 30 31 31 31 33 29 27
37 37 49 45 48 48 44 44 47 50 45 47 45 42 38 39 34 32 31 27 26 22 18 17 20 22 22 28 29 31 32 34 39 41 42 45 44 36 31 33 31 29 32 19 33 27 26
32 38 41 37 36 31 37 38 39 37 36 37 39 36 35 33 30 26 23 23 19 17 18 19 20 23 24 28 31 35 35 39 43 47 49 49 49 39 31 33 32 32 26 25 29 27 31
23 21 22 23 25 26 28 29 28 28 29 31 34 32 29 25 23 20 19 17 17 15 18 20 22 24 26 28 31 35 39 43 47 49 50 52 54 49 37 36 30 28 36 25 25 29 29
23 24 22 22 23 24 26 26 25 27 30 32 30 26 25 24 18 18 14 13 16 16 18 20 23 26 28 32 34 36 37 41 40 37 37 37 44 46 42 35 34 40 32 24 25 21 23
20 21 28 25 23 24 26 26 27 28 28 27 26 24 18 16 16 13 14 14 17 19 20 21 24 27 30 32 33 33 34 35 29 29 28 24 31 35 24 31 36 38 41 36 25 23 21
23 20 19 23 23 23 23 22 26 27 28 24 20 18 17 15 14 13 15 17 17 18 21 22 26 29 31 30 30 31 29 32 33 31 25 19 21 24 22 22 38 43 45 31 25 30 20
22 20 21 23 23 24 25 27 28 27 23 23 20 17 17 12 14 14 14 15 18 19 20 24 27 28 28 28 28 28 29 30 30 27 25 23 22 24 24 33 31 41 40 35 31 26 27
21 21 22 23 23 23 25 28 30 26 25 21 19 18 14 14 14 13 15 17 19 19 22 27 27 26 27 28 28 27 27 28 28 25 25 26 26 24 21 31 36 35 36 37 16 27 23
18 19 20 23 26 28 31 29 24 24 20 21 20 15 14 14 14 13 17 16 18 21 25 26 27 28 28 29 29 29 32 29 27 23 22 25 23 23 15 30 27 26 27 28 3 25 28
16 19 21 28 35 34 29 26 25 23 23 21 17 13 14 14 13 14 15 16 20 24 25 27 29 30 31 31 30 30 31 23 15 14 18 16 19 9 12 27 13 22 14 16 18 20 12
18 19 28 34 32 33 30 30 27 24 23 14 14 13 12 15 14 14 15 18 22 25 26 29 32 34 35 35 33 25 13 0 3 7 9 6 9 8 11 11 9 17 26 23 16 13 7
19 23 28 33 36 32 32 29 25 23 20 17 14 13 14 14 14 14 16 20 23 25 28 34 37 39 39 29 11 4 9 8 3 7 3 9 6 9 12 6 15 25 26 19 11 12 11
18 25 30 35 31 30 28 26 23 22 21 15 14 14 14 14 14 14 18 21 23 28 32 36 36 24 12 10 13 14 12 8 8 6 6 7 5 6 12 6 12 14 18 16 16 14 16
16 22 29 35 33 31 27 25 24 25 19 19 15 13 13 12 12 14 18 19 23 28 31 29 10 3 10 21 21 14 8 10 7 3 10 8 10 13 16 4 9 16 13 16 17 15 14
16 22 26 32 32 33 28 27 28 21 18 16 14 13 11 11 12 14 17 17 21 22 17 15 11 5 12 20 12 9 17 9 6 4 9 4 15 12 8 12 11 8 9 4 8 9 9

GFSGBSN_500_spd_096.txt.gz
Wind_Speed
61 61 60 57 56 57 57 54 54 53 51 49 51 48 48 50 50 51 51 51 51 49 50 51 50 50 50 49 49 52 48 48 48 49 50 50 50 48 48 49 47 51 43 44 46 45 45
67 67 67 65 63 61 62 61 57 56 55 55 56 53 56 51 51 52 53 53 55 52 53 53 52 52 51 53 53 51 52 52 52 53 53 52 53 54 52 49 49 44 44 42 44 44 43
72 72 73 72 72 68 65 65 66 61 60 58 57 59 57 57 55 48 46 48 51 56 55 55 55 55 57 59 58 54 52 53 54 55 55 57 56 56 56 51 50 47 46 45 41 39 40
80 77 80 78 77 75 73 70 65 69 62 65 59 59 60 61 55 53 51 49 49 50 53 53 53 53 52 54 53 54 49 47 52 52 50 51 52 53 51 47 45 47 48 43 40 41 41
88 86 83 85 82 83 79 76 68 70 65 63 63 62 62 62 60 53 54 47 42 44 44 44 48 48 45 48 47 46 47 48 48 47 46 44 47 47 42 40 43 42 42 41 41 39 42
92 91 89 88 88 88 84 77 74 70 66 59 63 66 60 63 63 61 59 55 56 49 32 34 37 38 40 41 44 45 45 46 45 44 41 40 43 41 33 36 38 38 41 40 33 33 39
93 93 90 90 87 87 88 79 73 71 68 71 65 71 65 63 64 62 61 60 58 47 50 52 45 36 36 40 43 44 44 43 43 40 36 38 39 30 32 35 35 37 35 31 28 35 41
82 80 80 83 82 79 78 76 74 74 70 70 67 68 66 62 62 56 57 56 53 55 47 48 52 47 43 45 42 42 39 39 38 35 36 34 33 28 33 34 35 34 31 30 28 33 42
71 70 70 70 70 70 72 74 75 74 69 67 66 66 66 59 59 51 52 48 44 44 44 46 44 42 41 40 42 38 38 37 36 35 34 34 28 31 33 34 33 30 34 33 33 37 39
62 65 65 65 64 66 68 70 68 68 65 63 62 62 63 60 59 58 54 47 44 44 48 46 47 45 41 38 37 36 35 35 34 34 35 34 30 32 33 32 32 30 35 35 35 37 39
52 51 53 58 60 61 63 61 58 59 58 54 58 53 58 59 59 53 50 45 48 50 44 42 44 41 38 36 34 32 33 33 33 32 31 30 31 34 33 30 34 31 36 36 37 38 42
48 47 48 49 50 53 56 58 57 53 50 52 52 55 54 53 47 44 48 45 44 44 41 38 37 34 32 27 26 27 29 31 31 29 30 31 34 36 33 33 36 35 37 38 38 40 42
41 44 48 51 53 50 50 51 52 50 51 49 48 49 50 48 41 44 47 47 45 40 38 38 38 30 28 28 29 31 32 32 29 30 31 31 32 34 37 35 36 37 37 37 37 32 36
41 46 44 45 46 45 49 48 44 41 37 38 46 50 49 43 39 41 46 46 43 39 37 35 27 25 27 32 30 28 29 30 28 31 32 32 31 34 35 37 39 33 33 34 34 31 28
19 40 54 59 48 38 37 37 37 47 47 36 36 40 38 40 43 41 43 39 39 34 28 25 27 29 27 26 25 24 27 30 32 33 36 37 35 38 38 37 38 35 33 30 29 29 32
21 26 36 35 44 49 52 51 46 44 34 37 40 45 47 41 42 39 39 35 30 24 19 21 23 24 22 22 24 24 27 31 33 35 37 39 40 41 41 39 35 38 33 30 28 32 34
23 22 26 34 36 32 34 35 33 33 33 34 39 41 43 41 40 35 30 24 18 16 21 21 17 21 21 23 25 27 31 33 35 36 37 41 44 46 44 42 40 38 33 34 34 35 33
22 23 25 23 29 36 38 35 33 31 28 28 33 36 33 35 31 31 25 15 19 20 20 16 17 20 22 24 25 28 31 34 35 35 37 37 38 42 38 33 36 43 44 39 30 37 36
22 26 25 23 21 22 24 27 28 29 28 29 33 34 33 31 25 22 17 18 15 17 18 19 21 22 23 25 26 28 30 32 34 34 31 28 33 36 29 26 30 46 49 47 41 29 37
23 24 24 22 22 21 22 25 25 24 26 30 34 34 28 23 21 17 17 15 13 16 16 19 21 22 23 24 27 28 29 32 31 31 29 31 30 29 28 21 22 23 48 51 48 45 34
24 24 23 20 20 21 21 22 21 26 29 29 25 25 22 16 16 16 15 14 16 15 17 18 20 21 23 25 27 28 28 29 30 29 30 32 30 28 24 20 23 30 42 45 48 36 29
22 22 20 19 18 20 20 21 24 25 27 28 27 22 20 16 15 14 15 15 14 16 18 18 20 23 26 27 27 26 29 30 29 31 33 33 29 26 20 21 28 36 41 36 38 37 18
21 19 19 18 18 18 22 28 31 32 30 31 24 22 21 15 13 13 13 13 15 15 17 19 22 24 26 28 30 32 32 29 28 31 31 30 22 22 14 24 23 31 25 27 33 33 15
19 19 20 19 20 22 25 30 32 35 31 26 23 20 16 15 14 14 13 13 14 15 18 22 24 26 29 31 33 32 30 27 30 22 19 15 15 16 8 6 9 21 18 18 24 38 23
19 19 20 19 18 27 32 37 34 30 27 25 21 21 16 14 12 12 11 13 14 17 20 22 27 31 34 38 38 32 28 17 7 6 5 7 5 9 16 22 27 25 18 17 22 20 10
20 20 20 22 28 35 40 33 30 25 27 24 20 17 16 13 11 10 11 11 14 18 22 27 32 37 41 38 29 16 11 10 7 4 6 4 4 10 16 13 3 16 26 22 22 10 7
21 20 24 32 40 38 33 32 27 26 23 22 18 16 13 11 10 10 8 10 14 18 24 30 35 34 28 8 14 18 19 10 10 10 4 3 9 12 3 4 3 27 21 18 11 9 7
21 23 30 35 36 33 31 31 30 25 22 22 18 15 11 11 9 8 8 11 16 21 27 31 29 19 5 15 16 20 17 13 9 9 5 7 14 5 6 12 6 24 22 14 11 8 10
24 25 27 34 33 33 32 30 29 23 25 20 17 14 12 10 8 6 8 11 14 20 23 22 15 9 20 19 12 15 11 10 10 5 5 12 8 2 3 8 13 11 7 4 10 9 9

GFSGBSN_500_spd_102.txt.gz
Wind_Speed
48 48 49 48 49 49 49 49 50 50 50 51 51 51 52 52 51 51 49 51 49 47 46 48 49 47 47 44 44 51 50 49 49 51 50 50 52 53 50 49 50 51 50 51 51 50 49
54 53 54 55 55 55 56 55 55 55 55 55 57 59 58 59 58 56 57 54 53 52 49 51 50 49 50 47 47 43 45 44 50 53 53 55 55 55 55 53 51 52 53 54 54 54 53
63 61 63 62 62 63 62 64 62 60 61 62 62 61 64 64 65 65 63 63 60 58 54 52 52 52 52 44 52 45 45 46 48 49 50 50 51 53 56 58 57 56 56 55 55 54 56
69 69 68 69 69 69 70 72 67 70 70 68 69 70 71 73 71 71 70 71 68 65 58 54 55 54 51 51 53 50 47 43 47 49 52 51 52 52 54 54 54 54 55 54 53 54 54
78 81 79 80 79 78 78 79 79 77 75 76 75 76 79 76 77 72 73 71 72 67 64 61 58 56 55 54 52 53 48 44 43 43 45 48 49 50 51 48 50 52 50 52 54 52 52
84 84 84 82 82 85 84 85 84 82 82 82 80 81 79 76 73 73 73 70 73 67 66 61 61 60 58 57 56 56 53 50 50 43 42 43 45 47 44 43 47 49 52 52 50 48 49
90 90 89 88 88 88 85 86 85 86 87 84 87 88 80 76 73 74 73 68 75 72 67 64 59 55 57 59 59 58 57 54 51 49 42 40 42 42 41 46 48 49 49 48 46 46 49
91 93 94 93 92 88 87 89 88 90 91 91 86 83 80 77 74 74 72 70 75 72 72 65 62 59 59 60 58 59 58 55 53 51 50 50 49 45 47 48 48 49 46 42 42 42 49
84 87 88 85 88 88 87 90 92 91 91 88 82 76 75 73 70 69 69 59 68 66 67 64 63 62 62 62 58 56 55 54 51 52 52 51 50 48 48 46 47 43 43 42 43 41 42
69 78 77 76 71 74 76 75 74 74 76 74 70 67 64 62 62 61 62 66 61 63 70 62 58 60 58 57 55 50 50 50 51 50 49 49 46 45 43 41 41 42 41 40 39 40 38
60 59 62 59 57 58 59 61 63 63 59 56 54 54 54 53 52 52 54 53 52 57 58 48 49 53 51 51 49 49 48 49 48 49 48 46 45 43 40 37 38 35 35 35 37 38 37
57 50 55 50 52 54 54 56 58 56 49 45 47 49 48 47 48 52 51 51 55 45 47 48 46 46 46 46 45 48 50 48 48 48 46 42 40 38 37 36 36 34 35 36 37 39 40
52 47 53 48 50 48 47 48 50 50 49 46 45 45 40 39 43 36 46 48 42 44 45 39 34 37 41 42 41 45 47 46 45 43 42 40 36 35 33 34 34 35 36 39 40 40 37
53 46 48 50 47 45 43 44 43 44 45 45 42 41 38 36 41 43 38 36 45 48 45 38 39 39 38 41 41 41 40 42 40 36 34 33 33 34 34 33 35 37 37 38 42 42 40
56 52 50 48 44 39 40 42 42 40 30 31 37 39 37 31 32 41 45 45 38 38 42 46 43 40 44 43 38 39 41 34 31 32 33 31 31 33 33 35 35 37 37 40 42 43 44
53 52 52 46 38 36 37 40 39 45 31 33 33 28 44 37 41 37 40 41 40 41 44 46 46 43 45 42 40 36 33 32 34 33 29 30 30 32 33 36 38 40 41 41 43 43 46
49 49 48 39 35 36 37 32 41 40 42 44 37 40 35 39 37 40 42 44 42 47 51 45 44 40 30 34 34 31 32 28 27 26 24 26 31 34 33 36 38 39 42 44 44 45 48
52 47 43 38 37 34 30 29 29 30 37 46 38 35 41 40 44 41 39 46 48 49 49 40 31 25 27 28 24 25 22 22 24 25 25 29 33 34 37 38 39 40 41 44 47 48 50
47 42 40 39 36 33 30 31 29 30 29 29 37 40 42 41 41 39 38 36 42 40 34 32 28 26 23 18 18 18 20 23 25 26 30 29 32 35 39 40 40 42 46 48 48 48 48
39 39 39 38 35 33 32 32 28 28 33 31 31 33 36 34 33 29 28 32 31 28 29 25 23 17 11 15 19 21 24 25 27 29 30 34 35 35 38 41 44 44 43 43 46 46 41
34 36 37 35 34 30 30 28 25 25 32 36 33 30 31 25 22 26 27 25 27 21 16 11 14 14 16 21 23 25 25 27 29 32 35 36 35 37 40 43 44 46 44 37 43 43 43
32 33 32 30 28 28 27 25 23 23 25 28 28 29 25 23 24 25 25 22 17 15 13 13 14 16 19 22 23 25 27 29 32 34 34 36 38 40 41 41 43 43 37 39 40 39 42
27 26 26 25 23 24 24 23 22 21 21 24 22 26 24 21 26 26 20 16 11 9 10 13 17 18 20 22 24 27 30 32 34 35 37 39 39 40 39 36 39 33 26 30 30 33 36
23 24 24 24 22 23 22 20 21 22 22 26 28 25 26 28 24 21 14 11 10 11 13 14 16 18 20 23 26 30 32 35 37 39 40 38 35 37 33 30 26 15 12 11 4 5 9
23 23 24 23 24 24 24 25 24 22 28 31 34 32 28 24 20 16 15 13 11 14 14 14 15 18 22 26 29 32 37 40 43 41 32 26 24 21 20 19 6 8 5 7 8 4 7
22 23 23 24 26 26 24 24 26 34 42 41 33 30 27 24 19 17 12 11 11 12 11 12 14 18 23 27 32 36 37 34 18 7 7 8 6 7 2 10 3 4 7 17 10 6 11
22 22 24 25 26 25 25 32 42 44 42 35 27 27 25 21 16 12 11 10 10 8 8 11 15 21 24 26 22 10 6 13 9 6 6 5 8 7 4 7 4 5 17 16 11 15 17
24 25 26 27 30 37 41 40 40 39 33 29 28 25 19 17 14 13 10 9 8 7 8 12 17 20 18 7 12 15 10 7 2 6 8 9 7 5 8 2 3 8 17 12 15 16 17
26 26 30 32 37 40 39 39 38 35 29 29 28 23 19 16 12 11 9 9 6 6 8 12 15 15 3 16 15 7 7 5 4 5 6 5 7 1 5 5 10 12 15 17 19 15 12

GFSGBSN_500_spd_105.txt.gz
Wind_Speed
50 48 48 47 46 45 44 44 44 44 45 45 47 46 46 46 46 44 43 42 42 40 45 44 43 41 42 43 46 46 44 40 39 37 36 39 43 48 48 49 51 51 51 49 48 47 46
54 53 51 52 51 49 48 49 49 48 50 52 52 51 52 52 55 55 53 52 50 49 49 49 49 47 47 46 46 48 49 46 43 43 45 43 40 42 44 45 47 51 53 54 53 50 51
61 61 60 58 56 55 55 58 56 56 56 57 59 59 61 60 61 62 63 65 61 60 57 60 58 55 51 51 50 50 49 52 48 47 48 48 47 45 45 44 45 46 48 49 51 52 54
66 65 66 65 63 63 64 62 63 65 64 66 67 67 66 69 70 70 71 72 72 72 68 67 67 65 60 55 55 55 53 51 53 56 52 49 50 48 45 49 49 47 49 49 50 51 52
67 67 73 72 72 71 72 72 71 71 71 70 71 71 73 71 76 75 76 73 77 73 75 73 74 72 68 61 57 56 55 56 57 56 53 53 51 47 47 45 46 48 47 48 50 51 49
76 77 77 76 76 76 76 77 77 78 77 74 75 76 77 75 75 74 75 71 76 74 76 77 79 75 73 70 65 61 56 59 60 59 57 56 54 52 51 43 45 48 48 46 46 43 45
78 78 80 80 80 81 82 81 81 83 80 80 77 79 78 80 78 76 77 75 76 78 81 76 75 77 79 71 62 62 61 60 61 62 61 57 57 56 48 48 49 48 46 44 42 44 46
83 84 86 86 86 86 84 84 82 82 81 82 77 75 78 82 80 80 81 78 75 77 73 73 73 75 71 69 67 64 61 59 58 57 58 58 56 53 54 54 51 50 49 48 47 45 48
81 78 79 81 84 82 80 78 80 75 73 70 70 72 76 78 76 80 80 68 69 69 70 65 67 68 62 60 61 60 61 60 59 56 55 55 54 53 54 54 54 53 51 48 47 45 47
76 76 72 71 73 78 76 72 72 73 67 68 64 65 70 67 71 68 62 60 58 58 61 55 52 54 60 60 57 50 60 58 58 54 55 56 54 51 51 51 51 49 46 47 44 45 42
73 68 65 62 61 67 70 63 63 60 59 58 61 59 57 55 58 49 47 47 45 46 57 46 46 52 45 47 54 55 55 52 50 49 49 49 52 51 49 45 45 43 43 40 40 40 41
69 64 62 59 57 59 58 54 54 54 54 55 56 54 50 46 42 42 42 38 37 37 42 47 39 37 44 46 43 43 50 50 49 49 49 50 50 46 42 42 41 38 37 36 35 36 41
65 63 59 57 54 53 50 51 53 52 52 51 50 48 46 43 44 41 36 34 41 50 49 46 47 45 41 42 45 39 38 43 48 49 50 48 44 42 41 39 36 31 30 33 36 36 38
65 62 58 53 48 50 50 52 53 49 45 45 45 45 43 42 43 34 36 32 35 36 38 41 41 30 36 38 34 31 36 39 42 46 48 45 41 39 35 33 30 30 32 35 37 37 36
67 63 60 53 48 52 51 54 49 44 43 42 40 40 39 38 35 40 35 37 42 40 34 28 32 36 42 48 41 37 38 38 42 45 40 34 32 29 28 29 30 31 31 31 32 34 37
64 60 55 53 49 49 54 54 46 43 40 39 38 34 31 34 38 34 35 33 35 38 39 39 39 38 38 39 38 39 40 39 39 32 27 21 24 26 25 27 30 29 29 31 34 37 40
60 56 51 48 45 46 48 49 45 40 36 33 31 37 33 30 33 35 35 41 33 30 35 36 42 41 41 41 42 42 41 41 36 28 21 24 28 24 25 27 28 31 34 35 37 39 40
59 56 54 50 47 45 48 42 42 40 34 48 46 46 44 36 36 30 33 33 33 34 41 44 44 43 46 39 30 37 36 32 28 21 16 16 23 27 29 30 30 33 35 37 39 39 41
56 56 53 50 48 48 42 39 40 35 30 28 33 49 52 46 39 40 38 37 37 42 42 40 45 46 28 28 27 28 31 30 22 16 18 22 29 28 29 30 32 35 36 38 40 44 45
37 38 42 44 50 44 41 38 36 35 36 33 29 29 34 42 43 35 36 39 37 36 32 29 28 33 25 26 28 30 25 22 15 20 23 25 27 29 31 34 35 35 38 42 45 48 47
36 31 31 33 35 38 38 36 36 32 32 31 35 31 29 31 37 35 34 33 32 27 25 23 25 29 28 28 30 21 16 16 19 23 24 26 28 31 34 36 37 39 42 43 45 45 51
27 28 30 30 34 32 32 32 32 32 32 31 33 36 31 29 30 30 28 25 22 23 22 22 24 22 19 16 14 14 15 20 23 24 27 30 33 35 36 37 39 41 42 42 42 41 45
24 24 22 27 27 30 31 29 31 32 29 27 27 32 31 28 25 25 21 21 23 21 18 15 11 8 7 11 15 19 21 23 26 28 31 35 37 39 40 39 41 42 37 37 36 32 34
20 19 20 23 26 27 30 31 29 27 27 26 26 28 28 22 23 23 25 24 21 17 13 10 9 9 12 15 17 19 22 25 30 33 36 38 41 44 42 39 38 32 28 26 20 19 22
18 19 23 25 26 29 29 26 26 26 24 24 26 25 26 27 27 28 27 21 16 11 8 8 9 11 12 15 18 22 26 29 34 38 43 45 44 39 32 26 24 17 11 14 12 4 7
20 22 23 24 26 27 25 25 24 26 26 25 28 32 34 34 29 24 19 15 11 8 8 8 8 10 13 17 20 25 29 31 33 32 22 7 7 8 9 7 8 15 13 12 13 13 9
20 21 21 23 25 26 27 29 30 30 29 34 35 33 33 31 25 19 17 13 10 8 8 7 8 11 14 19 20 23 24 20 9 6 6 6 4 7 8 4 9 13 12 12 10 5 6
19 21 21 24 27 29 30 31 32 41 42 39 36 32 30 26 23 18 14 11 9 9 6 6 8 11 13 14 12 7 4 4 5 6 3 4 6 2 6 2 6 5 7 2 3 6 14
22 21 23 24 26 29 31 37 43 46 39 35 31 29 24 20 18 14 13 11 10 8 6 6 7 9 9 3 9 6 5 3 4 2 2 6 4 1 5 7 7 6 5 4 11 17 19

GFSGBSN_500_spd_108.txt.gz
Wind_Speed
51 51 50 49 47 47 46 46 45 44 43 43 44 43 41 40 40 44 45 42 41 40 40 39 38 37 38 39 39 40 37 35 35 37 39 40 38 39 41 39 37 36 39 43 46 47 47
53 53 53 52 49 47 48 48 49 49 46 46 45 45 46 45 49 53 49 48 49 48 48 48 46 47 47 49 47 48 48 44 41 38 40 42 45 42 45 46 43 43 42 42 43 44 48
59 57 58 56 55 54 54 53 53 51 50 50 52 53 55 53 52 54 56 55 56 57 56 56 54 55 54 56 58 59 56 56 50 47 45 45 44 46 47 49 45 44 44 46 47 46 47
62 61 65 62 60 61 57 57 59 58 59 56 57 59 60 62 60 59 61 60 62 64 63 64 64 60 62 63 63 63 64 62 57 55 53 50 49 52 49 51 51 48 46 44 47 47 51
66 64 64 64 65 64 65 65 64 65 65 65 64 64 66 65 66 65 66 68 65 65 65 66 66 66 64 67 67 64 65 64 63 58 59 59 56 55 56 55 54 53 50 50 49 48 46
66 71 71 67 65 67 66 65 65 68 68 70 68 68 70 70 70 71 72 72 71 71 71 73 67 69 67 68 71 72 72 70 66 63 63 63 62 60 60 59 54 52 57 52 52 50 47
71 71 72 72 72 73 73 72 72 73 72 70 73 72 72 69 72 71 71 71 72 73 71 68 70 70 69 72 76 78 79 78 70 66 62 63 66 66 63 61 59 61 59 56 54 50 51
78 76 72 72 75 76 76 77 75 74 74 75 76 74 69 67 67 63 66 66 65 68 73 74 71 73 73 74 78 75 75 74 71 62 63 66 64 62 66 64 64 61 60 57 56 53 52
76 77 77 79 74 74 76 79 76 76 71 69 69 65 65 65 64 67 64 66 67 67 72 68 67 69 71 72 69 68 71 68 69 64 65 63 57 58 59 57 56 56 57 56 55 54 53
72 70 69 70 68 66 68 71 70 67 65 62 64 62 65 60 62 63 63 63 61 61 61 60 62 63 61 60 60 52 56 54 50 53 52 60 55 55 54 53 52 52 52 51 51 50 48
71 68 66 65 62 60 60 60 60 60 58 58 58 60 60 54 60 58 54 57 55 43 49 51 51 46 45 37 36 38 46 55 55 53 53 51 52 53 54 51 50 48 50 49 48 47 47
70 68 65 62 60 58 57 57 57 57 55 55 55 54 55 54 51 48 47 45 41 42 46 43 33 31 32 36 36 26 34 42 43 50 50 50 54 52 51 51 48 45 43 43 43 44 46
67 66 65 62 59 56 56 56 54 54 53 53 51 50 51 52 48 43 42 42 42 47 45 39 39 38 43 41 38 42 34 34 39 40 42 45 49 48 49 49 46 39 36 34 37 41 41
68 66 64 61 59 54 52 53 51 51 51 50 49 50 47 45 43 41 41 42 47 42 37 37 35 28 28 33 36 29 28 36 48 40 37 39 44 42 44 43 37 34 32 27 23 23 24
70 69 66 63 59 54 52 50 49 48 50 47 49 46 44 44 42 41 38 40 46 38 34 33 32 30 25 23 28 36 36 37 40 31 34 39 42 48 43 41 42 39 32 34 32 35 38
68 67 66 65 63 59 55 56 51 49 48 50 47 42 42 42 41 39 41 46 36 39 34 33 36 36 40 38 38 36 34 31 31 34 36 38 35 31 35 35 36 33 30 28 32 32 30
69 67 64 62 62 59 55 55 51 49 51 52 44 44 42 44 35 37 39 44 35 35 35 35 30 33 33 32 35 36 36 35 34 32 29 27 32 33 32 30 28 25 26 27 26 28 32
72 68 64 61 58 54 49 48 49 52 53 51 43 42 40 35 42 44 37 33 35 38 37 37 36 31 33 38 40 37 38 39 34 32 38 33 34 32 27 21 21 21 23 26 31 32 32
72 67 62 56 53 51 47 45 48 48 46 41 42 42 46 43 47 44 37 31 32 38 29 32 32 37 41 37 36 36 35 32 30 26 29 30 28 23 20 21 22 25 27 29 30 32 34
60 57 54 52 50 48 46 46 48 41 38 42 41 42 59 52 50 48 38 38 31 33 35 37 37 38 33 26 27 29 23 26 28 30 30 26 21 19 22 26 23 27 29 30 32 36 36
39 38 38 39 43 46 45 44 45 40 35 37 41 44 31 31 45 41 47 43 39 35 35 38 39 35 29 25 26 33 32 27 26 26 25 20 17 20 25 27 27 30 32 33 37 38 44
27 30 36 26 30 32 38 41 41 41 39 42 43 43 36 30 30 29 36 39 38 36 35 33 30 25 21 24 26 27 30 29 24 18 15 18 21 24 27 29 32 34 34 36 39 42 47
33 35 31 27 30 32 33 35 36 37 42 43 38 39 37 35 33 29 26 31 33 33 28 24 20 20 22 23 26 24 22 18 15 17 21 24 26 29 33 31 35 38 36 38 42 44 44
26 29 28 24 32 32 34 34 36 35 36 35 33 35 35 36 30 27 27 28 30 25 20 20 21 20 16 15 13 11 13 16 19 22 25 29 31 35 38 37 41 40 40 39 38 35 29
24 19 23 24 30 34 35 35 36 35 34 33 34 33 33 36 32 30 26 24 23 23 23 21 17 14 11 11 11 13 15 19 23 27 31 35 39 42 40 39 36 34 28 27 21 17 11
17 24 23 25 28 33 34 33 32 33 30 31 31 31 32 33 33 30 27 28 27 24 20 16 12 11 10 9 10 14 18 22 27 30 29 28 24 17 11 12 15 14 12 13 13 12 18
24 21 23 23 26 26 29 29 28 27 31 32 30 33 37 38 35 34 32 28 25 21 16 13 10 8 6 8 11 16 18 16 12 12 6 4 4 3 4 5 7 11 11 11 10 13 10
20 21 21 22 25 29 32 32 30 32 29 32 37 39 39 38 36 34 29 24 20 17 13 10 7 4 6 10 11 8 6 5 2 4 3 4 5 3 6 7 10 10 5 3 5 4 7
21 21 21 25 29 31 34 30 36 37 34 39 40 40 38 34 27 28 24 20 16 13 11 7 3 4 5 5 2 1 1 6 6 2 3 6 5 4 1 3 2 7 7 1 3 7 11

GFSGBSN_500_spd_111.txt.gz
Wind_Speed
59 58 56 55 55 53 52 49 49 48 46 45 44 44 43 43 42 43 43 40 42 38 39 42 39 38 37 37 38 38 39 40 40 40 43 42 39 38 37 39 39 36 37 39 39 39 40
57 56 55 55 54 54 51 49 48 48 47 46 45 48 47 51 49 47 43 42 44 42 46 48 46 45 45 44 44 46 47 49 49 49 50 51 52 50 47 43 42 41 41 39 42 44 43
55 55 54 53 52 53 53 53 52 52 51 49 51 52 50 55 51 48 49 48 51 48 49 51 53 51 51 48 51 52 53 54 56 55 55 56 58 58 53 50 47 46 47 48 43 45 45
61 61 61 59 57 57 59 59 57 55 57 57 55 54 56 54 59 55 54 54 55 59 57 55 56 58 54 53 52 55 57 55 57 57 58 59 58 59 59 60 61 61 56 54 50 51 50
66 65 65 64 63 62 60 60 61 59 61 59 60 60 58 61 59 63 63 62 61 63 62 63 61 63 62 61 57 57 56 56 59 60 59 59 60 61 61 64 67 68 65 57 57 59 57
70 70 69 67 67 67 67 66 65 60 62 63 62 63 64 60 64 65 65 69 68 68 67 66 66 65 62 62 61 58 59 60 63 65 66 68 69 70 71 69 68 62 62 64 63 58 64
70 66 67 67 67 63 65 67 67 67 66 62 62 64 66 65 67 64 69 72 70 71 69 66 67 65 59 56 58 63 66 68 70 71 73 74 75 73 71 68 67 67 68 67 67 65 70
71 71 71 72 69 67 68 68 68 67 66 65 65 67 67 69 67 67 67 69 68 69 68 64 59 60 60 62 63 65 70 69 74 73 73 75 79 73 65 66 69 68 71 68 65 67 67
75 76 74 72 70 69 71 71 73 72 70 67 68 67 69 70 67 66 61 60 60 60 65 59 61 61 62 67 65 65 68 69 72 72 70 68 70 67 70 65 64 66 64 63 60 59 62
71 70 70 71 71 71 69 68 70 69 69 71 64 62 60 64 64 60 57 57 57 62 66 59 62 62 67 65 66 61 65 64 67 67 60 59 55 50 49 55 51 58 53 56 54 52 56
73 73 71 69 67 64 64 63 64 62 62 61 59 58 55 55 56 54 53 55 56 57 53 62 65 63 61 57 55 55 52 53 54 52 51 51 51 52 56 49 50 52 51 54 48 48 47
74 73 72 72 70 66 63 63 64 62 61 59 58 56 54 54 53 51 51 53 51 50 56 57 57 54 51 47 41 39 40 38 39 44 43 41 48 48 45 47 49 54 51 52 51 49 51
74 72 71 71 69 67 65 62 62 60 58 56 56 55 55 53 50 51 51 50 49 50 55 54 48 44 38 37 37 40 38 39 37 40 38 39 42 43 42 43 46 50 58 42 34 39 45
74 73 71 70 68 66 63 59 59 57 55 54 54 54 53 51 48 48 46 45 51 48 47 47 45 34 34 35 36 32 33 34 32 27 28 31 37 42 42 42 38 39 31 31 25 24 19
73 72 71 68 66 63 61 59 58 55 52 52 52 51 48 48 48 48 45 49 50 41 42 45 37 32 34 33 28 31 28 25 28 35 34 33 31 29 31 35 35 30 23 21 27 29 26
76 73 72 71 68 64 60 58 58 54 51 49 48 48 47 47 48 46 45 49 44 44 43 42 38 36 31 33 35 32 37 39 35 36 30 25 25 31 37 39 39 36 37 35 39 39 34
77 75 73 71 69 65 61 58 59 55 53 50 50 51 49 49 48 45 48 46 43 42 40 38 40 39 34 29 31 30 31 35 35 32 30 30 29 36 36 33 33 34 37 41 43 37 27
72 71 69 67 66 62 59 55 54 53 54 54 54 53 50 49 51 46 45 45 45 32 39 38 47 36 38 33 35 32 34 40 39 33 29 31 29 30 32 42 30 30 32 32 34 31 31
73 72 70 68 66 63 60 58 55 54 51 51 53 55 53 49 51 48 46 42 43 44 34 37 36 41 33 32 35 35 40 37 32 32 28 24 34 33 38 40 40 37 33 31 27 22 23
76 73 71 69 66 65 61 59 56 55 53 53 53 53 54 53 48 46 43 48 39 40 36 33 31 31 31 32 37 40 41 33 29 33 27 27 30 35 35 31 34 24 19 18 22 25 24
57 60 63 64 62 57 57 54 51 52 52 52 52 55 51 49 45 43 44 43 51 40 43 35 35 37 37 43 43 43 35 28 27 24 25 29 31 34 33 33 27 21 21 25 29 28 33
47 46 43 41 35 36 38 43 47 50 48 46 41 42 41 39 36 43 47 53 45 39 44 45 39 37 40 42 42 35 25 25 34 29 26 30 32 26 21 24 23 25 29 29 31 32 36
35 34 31 26 27 29 37 41 43 43 41 37 38 39 39 42 39 39 27 38 38 42 41 44 41 41 40 37 29 23 22 22 24 29 27 24 21 20 21 26 29 34 34 33 35 38 39
33 35 36 29 36 33 29 35 37 43 40 39 48 40 38 43 44 30 26 25 34 36 38 39 40 39 30 26 22 23 26 25 25 24 20 22 24 27 30 31 35 39 41 37 40 41 42
31 24 34 27 25 26 31 37 38 33 51 37 45 35 36 37 38 35 32 29 30 32 35 37 32 27 24 20 18 17 16 14 17 20 21 25 29 32 35 38 41 43 40 40 38 35 28
31 27 24 26 30 28 39 36 38 38 44 46 43 36 35 37 37 34 35 31 29 30 30 29 27 23 23 18 16 14 15 16 18 22 25 27 29 29 26 22 20 20 17 15 12 12 10
26 26 26 27 28 31 42 32 31 39 41 42 39 39 36 36 36 38 37 34 31 29 27 24 23 18 14 13 15 14 15 17 19 20 19 14 9 9 6 5 6 9 9 9 12 10 11
18 24 20 20 30 37 32 35 34 34 34 35 35 34 34 35 36 37 36 33 30 28 26 22 18 15 14 13 12 12 13 12 10 8 4 7 4 3 6 10 14 16 13 9 6 7 7
21 19 21 23 30 35 33 33 33 33 33 32 34 36 39 41 40 40 36 33 28 24 22 20 17 13 12 11 10 9 7 5 6 4 5 7 7 7 6 6 7 7 5 5 3 3 5

GFSGBSN_500_spd_114.txt.gz
Wind_Speed
59 59 58 56 57 58 59 59 56 56 55 53 53 52 50 50 47 45 43 42 42 41 39 39 38 37 37 36 32 39 35 35 36 36 38 41 41 43 44 44 43 43 40 37 37 37 36
62 61 61 61 61 60 59 58 56 54 51 50 49 48 48 48 47 46 44 44 44 44 43 45 44 42 43 40 41 43 41 40 41 41 42 46 49 50 49 49 50 50 51 49 47 41 39
63 60 61 61 60 59 57 56 52 51 50 48 47 47 48 48 49 48 50 52 52 52 51 50 48 47 47 43 44 47 48 46 48 47 49 49 51 51 51 52 54 56 56 55 52 49 50
65 57 57 57 56 54 53 52 53 52 51 50 50 53 54 56 55 52 55 53 53 56 55 53 53 54 52 50 54 51 53 52 53 56 55 53 52 49 49 51 52 56 58 58 56 57 56
59 58 60 61 61 61 62 59 60 57 57 55 59 60 59 59 58 62 60 59 57 57 59 64 60 60 59 56 57 58 57 56 55 54 52 52 51 51 54 56 57 60 61 62 58 63 61
65 65 65 64 65 63 62 60 62 63 63 60 59 59 61 60 58 61 61 63 64 63 62 64 67 68 65 65 63 62 60 61 57 54 50 51 55 56 59 61 62 64 68 68 68 61 28
71 70 69 65 63 65 66 65 64 65 64 66 62 62 62 61 59 58 62 65 61 62 67 60 63 65 66 65 65 62 64 56 54 53 56 60 60 61 65 66 69 72 74 75 74 71 56
67 70 69 70 71 68 65 64 62 62 62 61 61 61 61 61 62 64 63 62 65 71 69 64 63 58 59 60 63 55 55 56 57 59 62 67 68 69 71 70 67 68 72 75 74 71 68
70 69 71 71 68 66 69 70 67 64 65 66 61 62 63 63 62 62 61 61 66 66 69 65 64 57 53 57 53 51 57 58 62 66 67 70 67 68 70 73 67 67 60 61 59 59 61
76 76 73 72 72 70 70 69 69 69 68 66 64 63 64 65 64 62 63 61 60 62 64 59 60 57 56 57 56 57 59 59 63 65 64 69 66 64 65 68 51 50 49 41 38 42 49
73 73 73 72 72 71 72 69 68 68 67 66 64 63 61 60 59 56 53 56 57 59 58 56 58 55 57 58 55 58 58 56 55 55 56 63 58 56 52 49 44 43 45 52 53 56 51
74 73 72 72 70 70 67 65 65 64 63 61 60 61 59 57 55 53 54 55 55 54 58 57 58 57 52 51 51 49 48 52 52 48 45 48 40 40 42 38 41 44 46 43 45 48 51
76 75 74 74 72 71 68 66 65 64 63 62 61 60 59 57 54 52 54 55 53 56 56 55 54 56 52 49 45 44 39 40 40 44 46 41 39 36 36 39 42 46 42 43 45 44 44
77 76 76 76 73 72 70 68 65 65 65 62 61 61 59 57 57 54 55 57 59 55 54 47 48 46 48 42 36 37 36 35 37 36 37 32 36 28 31 30 32 36 41 41 33 31 28
74 74 74 75 75 74 72 68 67 65 65 62 62 62 58 56 56 54 55 59 60 48 49 45 40 42 39 33 31 33 37 33 27 32 29 27 32 30 28 30 29 28 26 22 24 21 26
81 80 78 75 76 74 72 69 66 65 63 61 58 57 55 55 55 55 56 59 54 47 47 41 41 33 36 34 27 32 30 31 31 30 33 32 33 31 28 27 30 27 29 29 30 30 33
84 82 81 80 77 76 72 67 65 63 62 59 57 57 55 53 53 54 57 54 46 44 42 42 39 36 33 28 23 31 33 32 31 28 30 28 32 29 28 29 31 31 35 38 34 34 34
81 80 79 78 78 77 73 69 65 63 62 62 60 59 53 52 55 57 54 49 45 42 37 40 41 37 35 32 39 39 38 37 36 33 33 39 34 32 29 34 35 35 34 34 33 32 38
74 73 71 71 70 69 70 68 67 64 63 61 60 58 56 55 58 53 50 49 45 41 37 41 38 35 35 38 42 39 36 37 36 36 41 39 35 31 30 33 35 36 34 34 37 40 39
73 72 69 69 67 64 63 62 61 62 60 56 55 56 54 55 54 53 50 48 45 38 38 41 39 30 33 35 34 41 45 37 34 41 42 40 30 30 30 26 29 34 36 33 30 37 30
63 68 69 67 66 66 62 60 57 58 56 54 54 53 51 49 49 51 49 46 43 38 42 40 47 42 38 34 34 38 35 39 41 45 41 36 31 33 31 33 40 41 42 38 36 28 28
49 48 55 64 68 68 64 61 56 56 55 55 54 54 51 47 46 53 46 41 40 45 43 46 41 31 37 39 35 37 41 42 44 42 34 30 25 25 26 32 37 42 42 33 27 24 29
42 45 47 47 47 56 62 52 46 54 55 57 53 52 52 50 49 48 39 42 45 43 43 39 38 42 40 40 46 43 40 44 39 31 24 27 29 30 31 35 35 35 28 30 29 32 35
37 37 37 36 36 38 47 54 53 47 46 47 49 51 51 52 46 41 42 35 35 38 43 42 45 47 47 41 40 44 43 39 28 26 23 24 27 30 28 25 31 31 36 35 36 37 40
25 28 31 32 31 36 40 36 37 41 43 39 48 47 38 41 44 33 38 38 38 36 37 40 47 47 35 36 41 38 35 28 25 26 26 22 23 26 30 32 34 38 41 37 38 36 39
17 25 34 42 40 30 30 33 36 36 43 37 38 40 41 37 41 32 29 26 27 26 30 35 34 36 36 34 32 28 23 22 19 18 21 24 26 30 32 32 33 32 27 23 22 22 15
35 38 32 32 31 28 36 30 34 35 37 43 43 43 36 29 35 30 31 27 31 27 26 27 30 32 30 28 24 21 20 17 19 20 23 23 22 20 20 18 15 8 10 10 14 15 12
32 27 28 25 25 24 21 30 44 28 36 33 45 26 30 29 30 31 34 31 31 31 27 28 27 26 22 22 19 17 19 18 20 19 15 14 13 8 5 10 14 14 17 16 14 12 14
27 24 25 26 24 24 30 42 33 31 34 33 32 33 27 26 28 30 31 34 32 29 28 28 24 23 21 19 17 18 18 16 16 11 11 9 8 11 9 12 14 14 11 9 11 10 9

GFSGBSN_500_spd_117.txt.gz
Wind_Speed
59 58 57 55 55 55 56 56 58 57 57 56 55 54 55 55 55 54 53 52 51 46 43 40 40 39 39 34 28 37 31 31 34 35 35 35 35 37 38 38 40 41 43 42 40 40 39
66 63 62 60 58 59 59 57 58 58 57 57 58 58 58 56 55 52 51 50 47 44 41 41 40 41 41 35 37 39 38 33 35 39 42 44 42 43 44 44 47 47 49 48 47 44 43
56 66 66 66 62 60 59 58 57 56 56 55 53 53 52 49 49 49 50 47 45 45 42 43 44 45 44 38 42 48 47 43 38 41 44 44 47 48 48 48 51 51 51 50 49 46 49
63 62 64 58 59 59 67 60 61 59 51 53 52 49 51 48 54 51 50 46 51 52 48 45 48 49 49 50 49 49 51 48 51 48 49 51 53 52 50 52 52 54 52 49 48 49 49
66 65 62 60 58 57 55 57 51 52 52 52 50 50 51 53 52 51 51 59 51 48 50 53 55 51 51 52 54 54 56 57 58 57 53 52 53 54 55 54 52 50 50 51 50 55 56
67 65 62 62 61 59 56 51 53 54 58 57 59 60 59 57 53 58 60 55 55 57 55 53 53 54 57 57 58 57 57 59 62 63 62 55 53 55 49 48 50 53 57 57 57 62 63
69 66 67 65 62 59 57 58 59 59 60 59 57 58 60 60 61 59 58 59 59 58 57 57 59 60 61 60 66 65 58 57 48 51 53 50 49 48 49 53 56 59 62 65 66 67 72
69 68 67 66 66 66 66 64 63 60 61 61 61 64 63 58 61 61 58 61 63 61 63 62 63 57 50 51 59 62 59 54 51 47 45 46 46 51 55 57 60 64 67 69 71 71 71
68 67 65 65 64 65 63 63 64 65 65 64 63 61 61 59 57 57 59 56 59 62 61 54 54 52 54 56 51 52 58 56 54 53 52 50 52 56 58 60 64 66 70 71 71 71 77
70 68 66 66 66 65 65 64 64 64 62 62 61 62 62 62 60 59 57 60 61 61 59 53 57 54 53 50 48 46 48 50 52 53 55 57 56 56 56 59 53 62 54 48 48 57 59
69 68 69 69 70 69 68 68 67 66 66 66 67 66 64 61 62 62 59 59 58 58 57 51 56 53 49 44 45 47 47 49 47 49 55 54 56 56 58 54 49 52 45 45 42 41 42
70 69 70 69 66 65 64 65 66 65 65 66 65 65 65 63 63 63 57 56 55 53 54 50 52 50 48 47 47 47 49 51 52 53 51 52 48 49 45 41 42 41 41 39 43 43 47
71 70 71 70 69 68 65 64 64 62 62 63 62 61 61 59 57 58 58 57 53 53 51 47 49 50 48 47 48 47 44 45 48 48 46 43 40 36 35 37 38 36 36 37 39 44 41
71 70 70 70 70 70 68 66 65 64 64 65 64 62 61 59 58 58 61 58 57 48 49 46 49 50 46 46 49 48 44 40 37 36 37 35 32 28 27 30 28 30 35 36 34 31 24
67 66 67 67 68 68 69 68 68 65 66 66 65 62 61 60 60 60 61 62 59 48 47 47 45 48 47 45 47 47 36 37 31 30 30 29 30 31 26 25 30 31 32 31 31 27 25
68 67 68 67 66 65 64 64 65 65 67 68 67 65 61 60 58 59 61 62 56 49 47 47 49 48 44 46 40 36 37 31 30 28 28 28 29 28 26 27 30 33 32 34 31 28 26
76 75 75 75 74 72 71 69 66 63 65 68 67 66 60 59 59 61 63 62 53 48 44 46 42 44 42 42 34 34 30 32 33 33 32 29 31 29 26 28 29 32 33 33 32 31 31
80 80 79 78 77 76 74 72 70 69 70 70 67 67 62 60 59 57 59 52 49 45 47 42 43 42 36 35 34 33 31 31 27 27 35 36 37 35 31 36 33 32 34 33 32 34 33
77 77 78 78 78 76 75 74 72 71 73 71 69 67 63 61 61 59 54 51 48 44 44 43 43 36 35 34 35 32 29 38 38 39 39 34 38 37 37 40 34 35 33 33 36 37 36
77 78 78 79 78 78 75 72 71 69 70 69 66 64 63 61 60 55 52 49 48 44 44 42 40 38 40 37 34 32 33 35 40 41 41 40 38 39 44 40 33 36 34 35 37 38 32
62 63 64 65 67 69 67 62 60 61 62 62 58 57 58 58 56 53 51 48 46 46 44 42 42 41 37 36 33 33 26 30 32 33 36 38 40 45 46 34 33 37 38 36 34 35 39
61 62 62 62 61 58 61 61 58 57 57 58 57 53 50 47 48 49 50 47 48 43 44 45 37 36 38 32 30 40 36 37 34 32 32 40 44 44 32 23 28 36 32 34 36 38 40
58 57 56 54 53 51 54 60 59 59 57 55 53 52 50 46 46 48 45 41 40 42 40 40 34 35 41 33 36 42 35 34 39 39 41 44 42 34 28 31 30 33 30 33 33 33 34
45 45 47 45 47 45 40 52 58 55 55 50 47 47 47 46 47 43 41 39 38 33 39 39 35 36 37 31 35 37 40 38 41 41 39 40 31 28 24 25 30 30 31 29 29 34 39
30 33 36 38 40 40 41 40 53 56 51 40 44 46 47 42 43 44 42 39 34 36 34 34 37 34 36 33 35 38 39 40 40 40 39 30 27 25 27 26 25 29 31 33 35 40 42
15 24 31 33 34 35 37 38 41 53 47 44 43 41 45 46 40 38 39 37 34 33 31 33 32 33 34 39 37 40 39 37 39 35 30 24 22 22 24 28 34 30 33 31 29 23 18
11 10 19 25 29 32 35 35 45 42 38 36 33 37 38 43 38 39 39 38 32 34 35 40 39 38 36 36 32 33 34 35 31 23 19 19 22 26 31 33 30 20 16 15 19 19 18
17 16 18 23 29 31 47 44 42 44 36 37 43 29 34 35 35 36 36 38 38 34 30 26 23 24 28 30 29 30 30 28 19 17 20 25 24 23 22 18 10 10 14 17 18 18 18
31 30 28 33 33 33 37 36 35 37 40 35 43 30 29 32 28 31 27 31 27 19 21 23 21 21 23 25 25 24 21 18 17 20 21 19 18 17 15 9 10 13 13 14 14 16 17

GFSGBSN_500_spd_120.txt.gz
Wind_Speed
58 58 57 59 57 55 55 55 55 55 56 56 56 55 55 55 53 52 51 50 50 49 49 48 45 42 41 34 34 36 33 32 31 30 35 34 35 37 33 32 34 36 36 39 38 36 36
58 57 60 61 62 62 62 61 59 59 57 56 57 57 56 55 55 54 52 52 52 51 48 48 44 38 37 32 36 36 36 34 36 35 40 40 39 40 41 39 39 39 43 43 42 42 44
64 62 59 58 58 63 57 66 65 64 60 60 59 57 57 56 55 56 53 49 49 47 44 44 42 40 36 36 37 38 38 38 38 39 38 45 44 43 46 46 47 48 49 46 46 45 49
68 65 65 62 59 61 59 56 54 60 65 63 61 60 61 58 56 52 52 53 51 48 49 52 44 46 40 41 44 44 46 45 44 45 46 48 50 53 53 53 52 54 52 52 50 48 49
70 68 65 60 60 61 58 57 56 56 57 49 54 60 64 60 59 52 50 47 49 49 47 47 48 48 44 46 45 47 44 47 47 48 48 50 54 58 61 59 59 58 57 55 52 50 50
65 63 62 62 61 61 59 58 58 58 57 57 51 49 49 50 44 45 49 53 54 49 50 50 50 45 45 46 47 48 45 47 51 53 56 55 54 55 55 57 63 61 61 56 52 53 54
66 66 66 67 65 63 61 60 58 57 57 57 53 48 49 49 53 55 55 58 57 54 51 52 50 48 48 49 53 52 50 53 48 46 51 55 52 48 48 49 50 52 54 53 51 58 60
67 65 65 65 65 64 65 64 63 63 60 57 57 55 55 55 54 55 55 53 56 55 51 49 51 50 52 55 53 52 49 45 44 44 45 43 44 48 48 49 50 53 55 56 55 62 66
68 66 64 62 63 62 63 62 63 63 63 64 64 61 61 60 57 57 55 59 61 60 56 49 48 50 51 50 50 48 52 50 49 46 42 42 44 44 46 50 53 54 59 59 63 66 66
67 65 65 64 62 63 65 66 65 63 63 62 61 60 60 60 60 57 56 57 58 57 56 51 53 48 48 48 48 44 43 43 47 45 43 46 39 43 47 52 51 54 52 59 63 63 65
63 62 62 62 62 64 65 65 63 62 61 61 62 61 60 59 57 54 55 55 54 51 51 50 53 53 46 40 39 38 39 40 40 42 43 43 45 49 50 48 50 54 49 50 51 46 41
66 64 64 62 61 61 61 63 65 65 66 66 64 64 61 61 58 58 57 57 55 53 53 51 54 52 49 43 42 41 43 42 40 41 42 43 47 50 49 49 45 46 43 41 39 37 39
68 67 65 64 63 63 63 63 63 62 62 61 61 59 58 59 57 58 58 55 54 56 52 50 52 55 52 46 44 42 43 41 43 42 40 41 41 43 46 45 35 31 31 35 35 36 36
67 67 66 66 65 65 65 65 65 64 64 63 62 59 56 54 55 55 56 55 56 51 48 47 50 49 46 45 47 46 44 43 40 40 41 42 40 36 34 30 29 29 28 28 33 35 33
68 67 66 65 65 65 66 66 66 66 66 65 63 61 58 58 57 58 59 61 54 46 45 44 44 48 43 45 48 46 47 45 42 34 37 35 35 33 26 23 24 26 28 32 37 38 37
69 69 67 66 64 64 65 65 65 65 64 65 64 63 59 59 58 59 60 61 53 49 48 49 48 47 43 42 47 48 45 46 44 38 36 31 31 21 21 21 19 23 27 30 35 37 41
70 69 67 65 63 63 62 61 61 62 62 64 63 62 59 59 59 61 64 61 53 50 50 50 46 47 44 44 44 44 45 43 41 36 32 33 29 24 22 27 28 30 34 35 34 38 40
72 71 70 68 66 65 64 64 63 64 63 62 61 59 57 58 60 60 59 55 52 49 46 48 49 48 45 41 42 40 41 39 32 32 35 38 37 27 29 31 32 33 34 38 39 39 40
72 74 74 72 71 71 70 70 69 69 70 70 69 66 63 64 64 61 57 54 50 47 49 47 46 43 39 40 38 41 39 36 33 32 31 24 29 32 36 34 35 37 39 42 37 43 43
71 73 74 76 76 76 75 74 73 73 72 73 72 71 69 70 69 65 59 55 51 46 49 49 43 40 39 37 37 38 36 36 35 34 34 34 33 34 38 41 44 45 44 41 38 42 36
68 69 70 71 72 73 72 72 72 71 71 73 73 71 69 71 68 65 62 56 51 47 48 48 48 43 39 38 36 38 38 37 34 35 31 29 30 33 35 37 40 46 47 34 39 36 40
64 65 65 67 67 68 70 71 70 72 72 71 70 67 66 65 61 58 58 53 49 42 47 47 45 39 40 39 39 36 37 39 36 34 32 29 33 31 33 37 43 49 41 32 30 29 35
59 59 58 58 58 58 57 57 60 62 64 62 62 58 53 51 48 51 49 51 47 47 48 44 44 42 40 37 39 37 36 36 36 38 33 32 34 37 40 40 42 44 35 28 29 32 34
51 52 53 53 53 53 53 54 54 54 55 57 56 51 50 49 47 42 42 40 42 45 43 40 41 41 37 36 38 35 35 37 35 30 34 34 36 39 41 40 39 32 31 29 30 32 33
49 50 50 51 51 50 50 51 49 49 52 55 54 50 47 45 44 47 32 35 38 39 38 37 36 37 36 35 32 30 33 35 34 29 31 33 36 39 38 33 33 30 25 26 28 33 36
40 41 43 44 45 44 44 44 43 43 47 53 52 49 44 44 39 38 40 43 38 35 34 33 34 28 34 37 34 38 37 33 30 32 31 33 36 36 34 30 30 22 27 31 35 30 31
21 20 26 34 37 38 39 39 39 41 40 50 47 44 43 40 38 39 39 40 36 33 31 30 30 32 30 36 37 35 36 29 32 32 31 34 32 28 25 27 27 26 27 25 24 24 25
11 8 9 22 32 36 36 36 37 36 36 45 41 40 39 35 35 35 37 33 34 31 29 27 28 28 28 30 32 31 28 30 31 29 31 30 26 22 25 28 24 22 18 18 19 21 21
18 9 11 16 23 27 30 32 31 30 33 42 39 40 31 32 30 33 35 33 30 30 32 27 28 33 34 32 31 29 30 30 28 27 26 22 22 25 23 20 19 16 15 16 16 15 17

GFSGBSN_500_spd_123.txt.gz
Wind_Speed
53 51 51 51 52 52 52 53 53 52 54 55 54 54 54 53 52 55 56 52 50 49 47 45 45 43 42 39 43 42 32 32 35 34 32 34 35 33 33 33 34 35 34 34 34 31 33
60 59 60 57 56 57 58 58 56 59 57 56 55 58 59 56 57 58 55 54 53 51 48 47 48 46 41 34 40 38 36 32 34 36 35 35 38 38 39 38 41 41 41 41 41 38 41
62 57 58 57 56 57 57 56 53 53 51 56 58 61 59 62 60 58 57 55 55 53 52 53 51 46 38 37 38 40 36 36 34 34 36 39 41 43 44 43 48 47 47 45 45 48 49
59 58 59 60 60 62 62 60 58 54 52 54 51 52 53 54 59 59 62 60 59 58 57 55 55 51 43 46 42 40 39 40 40 38 37 44 47 48 49 48 47 53 58 56 55 55 56
71 68 66 65 69 63 65 66 63 60 56 57 57 54 54 52 52 57 58 59 59 59 58 59 60 56 50 46 45 45 43 44 43 44 45 45 49 52 56 58 56 52 58 63 60 62 62
77 75 69 67 66 64 63 64 62 60 57 57 56 56 52 49 49 53 53 51 50 50 51 51 53 44 45 42 42 43 41 40 43 46 47 46 50 52 52 53 57 57 54 52 55 54 54
68 64 65 65 64 62 63 66 60 58 59 57 57 56 55 52 50 49 48 49 49 49 47 47 45 43 46 45 44 44 42 44 45 46 47 50 51 47 43 46 51 53 52 51 51 51 51
71 70 66 62 60 63 63 62 62 61 62 60 58 56 53 53 52 49 49 48 51 50 48 48 47 44 43 46 43 45 46 47 46 46 44 43 44 46 46 46 49 47 48 50 51 54 56
70 67 66 63 62 61 63 63 63 64 62 61 60 59 57 56 57 54 52 54 52 53 51 47 47 47 48 49 46 42 48 45 44 44 44 46 48 45 43 45 45 44 48 47 53 56 57
69 66 65 66 63 62 64 64 64 63 62 61 60 60 57 56 57 56 58 59 57 57 55 50 50 48 49 48 48 46 44 44 43 43 43 43 34 36 42 45 41 46 44 48 51 56 57
65 64 64 66 66 66 63 64 64 62 63 62 61 59 57 57 58 59 56 55 54 53 53 52 54 54 48 41 41 39 38 39 39 41 42 41 39 39 43 40 45 47 48 50 52 55 56
63 64 63 62 61 61 60 60 63 62 62 62 61 60 59 57 55 57 56 56 56 53 55 54 56 53 51 46 43 42 40 40 40 41 43 41 43 44 44 43 42 44 45 46 48 50 54
66 65 63 62 61 61 60 60 59 59 59 59 61 59 58 57 58 58 58 58 56 56 53 54 55 56 56 53 50 47 44 42 41 41 41 43 41 41 42 44 40 39 36 39 41 38 39
69 68 66 66 65 64 63 63 63 63 61 60 60 57 55 55 55 55 54 55 58 54 53 52 53 53 52 50 50 47 47 45 42 41 41 41 38 38 39 40 36 34 31 30 32 36 34
70 69 68 67 66 66 65 64 64 64 63 63 61 59 56 55 57 57 59 58 54 48 48 49 47 46 46 46 47 46 44 43 41 39 40 41 41 36 31 33 30 27 28 29 32 35 36
71 69 68 67 67 66 66 66 66 65 64 64 62 60 57 58 59 60 61 60 53 49 51 51 48 47 44 43 45 45 45 44 41 41 41 40 40 37 31 23 24 24 27 25 28 33 40
70 69 67 67 67 66 65 65 65 65 64 64 62 60 58 58 58 61 63 58 51 49 50 50 50 50 45 44 47 45 45 44 43 42 41 40 36 35 32 25 25 30 29 30 31 35 38
76 73 71 70 68 65 64 66 65 65 65 64 62 59 58 58 60 61 60 53 50 50 52 52 53 53 50 46 47 45 43 44 42 36 37 36 33 32 32 34 35 33 31 32 35 38 41
75 76 75 73 72 70 68 67 64 65 65 63 62 58 56 56 59 58 54 52 52 52 53 52 49 47 46 47 47 45 43 40 40 39 36 37 39 38 34 32 31 35 36 36 38 39 45
72 74 74 73 73 71 70 69 67 65 64 64 64 62 60 60 58 57 53 51 49 44 46 46 46 46 45 44 43 43 39 38 39 37 35 37 40 40 38 36 37 38 37 36 36 41 45
67 68 69 68 70 70 70 69 68 67 67 68 68 66 64 65 61 60 60 57 56 52 50 50 50 46 45 45 40 40 40 39 38 34 34 36 38 36 37 37 36 33 32 35 38 43 50
67 67 67 67 68 68 68 70 71 70 68 69 70 68 68 67 64 63 63 62 60 56 57 54 51 43 44 44 43 41 41 41 43 38 38 37 36 34 32 32 34 34 35 39 41 44 45
65 64 65 65 66 66 68 68 67 66 68 70 69 68 68 68 67 65 60 57 54 49 52 49 50 47 47 40 40 40 41 40 40 37 32 41 32 36 36 34 34 37 37 41 41 41 37
60 62 63 63 63 63 63 64 64 65 67 66 65 65 66 63 62 60 55 51 51 48 49 45 47 47 38 43 41 41 41 40 39 38 40 37 31 33 39 37 39 39 41 39 35 33 33
49 53 57 59 60 62 62 64 64 64 63 63 62 62 61 60 57 54 50 41 41 41 42 44 44 41 40 40 40 42 41 40 38 37 37 35 36 35 36 39 39 40 37 36 34 32 29
43 44 47 49 51 52 53 54 54 52 50 48 46 46 46 44 42 39 38 37 33 37 42 42 41 44 41 35 31 40 40 35 33 37 38 37 35 34 36 38 39 37 30 28 30 28 33
40 43 44 45 46 47 48 48 48 47 47 46 44 45 46 43 34 34 36 36 37 31 36 34 36 34 36 33 36 38 37 35 36 34 34 34 33 34 35 37 37 27 27 31 32 27 27
30 35 37 38 41 44 45 45 44 42 40 41 39 41 42 41 36 36 37 36 35 34 32 28 32 34 31 35 34 31 32 39 40 37 35 34 34 34 33 34 30 27 27 25 26 24 24
23 21 18 21 32 37 38 40 39 38 36 37 37 36 36 36 35 32 34 34 34 32 33 31 31 30 31 32 29 34 34 33 33 31 33 34 32 32 29 26 26 24 23 22 19 20 20

GFSGBSN_500_spd_129.txt.gz
Wind_Speed
55 56 56 58 59 56 56 52 51 51 50 48 50 48 47 48 48 46 44 43 41 42 45 44 43 42 42 43 44 41 38 37 37 35 35 36 34 33 33 31 32 32 29 31 30 31 32
56 55 54 52 54 51 54 54 51 51 50 49 48 46 45 43 47 47 45 44 46 47 49 47 48 48 43 44 42 37 37 35 38 39 39 38 36 35 34 32 34 35 34 35 36 37 37
61 59 60 57 55 52 51 52 52 51 51 48 48 48 50 48 48 48 45 41 39 42 45 43 41 39 38 39 38 37 39 39 39 39 39 38 37 37 35 35 35 37 39 38 40 41 43
63 62 60 54 55 54 54 54 54 54 54 54 55 55 52 50 52 49 45 43 42 45 49 47 44 39 36 39 37 35 35 36 37 38 42 40 41 40 37 38 39 41 44 42 43 44 47
61 60 61 59 60 60 58 59 60 61 57 59 59 58 52 50 51 50 46 46 48 47 44 42 45 45 42 41 37 36 35 35 37 40 43 43 43 44 40 38 43 45 49 49 49 51 50
67 67 62 66 66 66 68 64 65 65 65 62 57 57 55 51 51 51 51 52 52 52 47 45 44 43 42 39 39 41 41 41 42 42 42 40 40 41 39 45 47 45 46 49 51 51 51
72 74 71 71 70 69 69 70 68 68 69 67 67 59 58 57 57 56 54 56 56 54 49 44 42 43 41 37 38 40 41 40 40 40 39 41 42 42 43 45 45 46 46 47 49 51 49
77 77 81 77 76 74 73 74 74 74 69 70 70 71 68 66 63 57 56 54 54 53 49 47 43 41 41 40 41 39 40 41 41 40 40 38 39 41 43 44 46 48 50 50 50 50 48
84 81 83 85 87 80 80 77 78 80 77 76 76 82 75 67 57 57 54 53 52 49 50 42 39 38 42 42 42 40 39 39 40 41 41 42 43 42 42 44 46 47 47 47 47 48 49
82 90 86 90 82 83 80 86 82 81 75 76 70 70 62 57 57 53 52 53 51 50 49 48 45 44 46 45 45 43 44 46 47 45 46 45 42 43 45 44 44 45 43 45 45 46 47
85 87 90 96 92 90 80 74 71 71 70 63 63 62 57 58 56 55 55 54 52 52 53 53 53 51 52 49 47 46 45 45 43 42 42 39 39 40 42 40 44 44 45 45 47 48 49
77 78 79 83 87 84 77 77 70 69 63 63 61 56 59 58 58 57 56 56 54 52 52 52 53 51 52 51 49 47 45 44 41 40 40 40 43 43 43 44 45 46 45 46 47 48 48
74 73 72 72 72 68 68 60 62 56 57 58 57 56 56 59 58 57 57 55 54 53 51 51 51 52 53 52 51 49 47 45 45 45 45 46 46 46 45 44 43 43 45 45 45 45 45
74 74 71 71 69 66 61 57 52 54 58 60 58 57 58 62 59 60 61 59 57 51 48 52 51 51 50 49 49 47 45 44 42 41 43 44 43 43 43 42 43 42 39 40 39 43 44
75 73 72 70 69 65 62 58 56 54 58 59 56 59 58 57 57 58 60 62 58 52 51 51 51 51 50 49 50 48 49 46 44 45 44 45 44 40 37 37 37 35 34 33 38 39 43
77 73 71 69 67 65 63 61 59 57 59 60 60 59 56 56 56 56 56 57 51 50 51 52 48 44 46 45 45 44 43 44 42 42 39 41 44 39 36 35 34 30 31 33 31 32 38
77 77 72 69 68 66 65 63 61 60 61 59 59 58 56 56 55 55 55 50 47 45 46 45 45 42 40 40 42 43 43 42 42 42 40 39 38 39 37 33 30 30 33 33 32 32 36
71 73 74 71 67 67 67 65 62 62 63 63 61 60 58 59 60 59 53 49 48 47 48 46 44 45 44 43 43 44 44 44 44 43 42 40 40 39 36 33 30 28 26 28 32 34 38
70 68 68 70 66 62 65 66 64 65 65 63 62 61 61 61 60 57 54 52 51 49 47 46 46 46 45 45 46 47 44 41 40 41 43 42 42 42 37 33 31 33 27 32 34 35 36
71 67 65 65 66 61 62 66 65 65 64 65 62 62 63 62 58 55 54 52 50 48 47 47 45 44 43 43 44 44 40 38 37 38 39 40 39 40 40 37 38 40 39 39 39 42 38
69 65 61 65 62 64 59 62 59 54 65 65 66 65 64 59 55 52 52 47 44 43 45 47 46 43 42 42 42 38 34 35 36 37 37 39 39 38 42 40 40 41 41 40 41 38 40
67 63 59 59 64 60 58 59 57 58 58 60 64 64 61 57 54 55 52 46 45 46 47 46 45 42 41 39 36 36 37 36 35 36 37 39 41 40 42 38 40 43 40 39 38 37 37
61 62 61 59 60 62 61 59 52 47 50 57 62 61 56 57 55 54 50 46 45 46 45 45 44 43 41 38 38 41 41 41 41 42 41 42 42 42 42 41 42 42 32 38 39 37 36
64 56 55 60 62 65 62 58 49 50 47 52 42 45 49 56 58 53 50 51 49 49 48 45 47 46 42 43 44 46 45 45 46 45 45 45 43 42 41 41 42 35 34 29 31 34 36
44 47 41 44 59 68 64 58 55 57 51 52 48 45 48 49 47 49 52 51 47 48 47 47 44 42 43 44 46 47 46 49 47 45 45 43 41 42 40 38 39 36 37 42 37 34 35
32 35 40 51 61 62 64 59 52 54 51 46 48 55 54 48 46 44 44 43 47 50 47 46 44 44 47 48 50 51 48 45 44 42 41 40 40 41 39 39 39 32 36 36 35 36 36
27 29 34 42 45 52 59 54 54 58 55 54 48 45 50 49 43 42 39 36 39 40 41 41 41 42 41 41 44 43 42 38 40 37 33 30 32 36 37 39 37 35 35 32 33 35 36
14 12 23 33 37 42 48 56 52 61 59 56 56 55 53 49 44 39 36 36 37 38 37 35 34 24 21 28 32 37 37 37 40 34 27 28 24 26 31 38 36 28 32 31 34 36 35
15 12 14 23 35 39 38 51 53 62 62 61 61 59 56 48 38 36 37 38 38 38 36 37 32 25 13 24 23 25 26 27 28 31 31 30 24 29 27 34 31 27 26 32 36 35 31